<?xml version="1.0" encoding="UTF-8" standalone="no" ?>
<gpx xmlns="http://www.topografix.com/GPX/1/1" xmlns:xsi="http://www.w3.org/2001/XMLSchema-instance" xsi:schemaLocation="http://www.topografix.com/GPX/1/1 http://www.topografix.com/GPX/1/1/gpx.xsd" version="1.1" creator="VisuGPX - https://www.visugpx.com">
  <metadata>
    <name>Mardi 29 décembre (Sabot, à 2) N57 utilisable</name>
    <desc><![CDATA[14 h : Profitant d'une éclaircie, Chris et moi avons atteint l'aérodrome par la route. Une courte averse et retour par le Grippot, assez boueux. On a pris la N57 sur 400m : les accotements sont refaits et relativement larges (en passant par Comberjon / N57, on pourra donc se rendre à Colombier et Montcey en évitant la boue). A Coulevon, petit coucou au forgeron du village avant d'aller visiter le lotissement de Villeparois.  ]]></desc>
  </metadata>
  <wpt lat="47.64453" lon="6.18291">
    <ele>230.3</ele>
    <name><![CDATA[0000149]]></name>
    <type><![CDATA[Point de départ]]></type>
  </wpt>
  <wpt lat="47.6443" lon="6.1831">
    <ele>228.6</ele>
    <name><![CDATA[0000150]]></name>
    <type><![CDATA[Point d'arrivée]]></type>
  </wpt>
  <trk>
    <name><![CDATA[2020-12-29 14:00]]></name>
    <desc><![CDATA[<p>Heure de départ: 12/29/2020 14:00<br/>Heure d'arrivée: 12/29/2020 15:52<br/>Distance: 15,5 km (01:51)<br/>Temps déplacement: 01:33<br/>Vitesse moyenne: 8,36 km/h<br/>Vitesse moyenne mouv.: 9,96 km/h<br/>Vitesse Max.: 34,68 km/h<br/>Altitude minimale: -49 m<br/>Altitude maximale: 348 m<br/>Vitesse de montée: 219,3 m/h<br/>Vitesse de descente: -366,3 m/h<br/>Gain d'altitude: 201 m<br/>Perte d'altitude: -260 m<br/>Temps de montée: 00:55<br/>Temps de descente: 00:42<br/></p><hr align="center" width="480" style="height: 2px; width: 517px"/>]]></desc>
    <trkseg>
      <trkpt lat="47.64453" lon="6.18291">
        <ele>230.3</ele>
        <time>2020-12-29T13:00:43Z</time>
      </trkpt>
      <trkpt lat="47.64442" lon="6.18291">
        <ele>228.8</ele>
        <time>2020-12-29T13:00:44Z</time>
      </trkpt>
      <trkpt lat="47.64437" lon="6.18294">
        <ele>228.2</ele>
        <time>2020-12-29T13:00:45Z</time>
      </trkpt>
      <trkpt lat="47.64437" lon="6.18302">
        <ele>228.9</ele>
        <time>2020-12-29T13:00:53Z</time>
      </trkpt>
      <trkpt lat="47.64432" lon="6.18299">
        <ele>227.9</ele>
        <time>2020-12-29T13:01:09Z</time>
      </trkpt>
      <trkpt lat="47.64428" lon="6.18293">
        <ele>226.8</ele>
        <time>2020-12-29T13:01:11Z</time>
      </trkpt>
      <trkpt lat="47.64423" lon="6.18287">
        <ele>225.6</ele>
        <time>2020-12-29T13:01:13Z</time>
      </trkpt>
      <trkpt lat="47.64417" lon="6.18279">
        <ele>224.2</ele>
        <time>2020-12-29T13:01:15Z</time>
      </trkpt>
      <trkpt lat="47.64413" lon="6.18273">
        <ele>223.5</ele>
        <time>2020-12-29T13:01:16Z</time>
      </trkpt>
      <trkpt lat="47.64405" lon="6.18264">
        <ele>222.7</ele>
        <time>2020-12-29T13:01:18Z</time>
      </trkpt>
      <trkpt lat="47.64401" lon="6.18259">
        <ele>222.4</ele>
        <time>2020-12-29T13:01:19Z</time>
      </trkpt>
      <trkpt lat="47.64394" lon="6.18252">
        <ele>221.8</ele>
        <time>2020-12-29T13:01:21Z</time>
      </trkpt>
      <trkpt lat="47.6439" lon="6.18247">
        <ele>221.7</ele>
        <time>2020-12-29T13:01:22Z</time>
      </trkpt>
      <trkpt lat="47.64383" lon="6.18239">
        <ele>221.8</ele>
        <time>2020-12-29T13:01:24Z</time>
      </trkpt>
      <trkpt lat="47.64378" lon="6.18232">
        <ele>221.8</ele>
        <time>2020-12-29T13:01:26Z</time>
      </trkpt>
      <trkpt lat="47.64371" lon="6.18224">
        <ele>221.9</ele>
        <time>2020-12-29T13:01:28Z</time>
      </trkpt>
      <trkpt lat="47.64366" lon="6.18219">
        <ele>222</ele>
        <time>2020-12-29T13:01:29Z</time>
      </trkpt>
      <trkpt lat="47.64362" lon="6.18213">
        <ele>222.1</ele>
        <time>2020-12-29T13:01:31Z</time>
      </trkpt>
      <trkpt lat="47.64357" lon="6.18208">
        <ele>222.1</ele>
        <time>2020-12-29T13:01:32Z</time>
      </trkpt>
      <trkpt lat="47.64353" lon="6.18202">
        <ele>222.2</ele>
        <time>2020-12-29T13:01:33Z</time>
      </trkpt>
      <trkpt lat="47.64348" lon="6.18196">
        <ele>222.4</ele>
        <time>2020-12-29T13:01:35Z</time>
      </trkpt>
      <trkpt lat="47.64344" lon="6.1819">
        <ele>222.5</ele>
        <time>2020-12-29T13:01:37Z</time>
      </trkpt>
      <trkpt lat="47.6434" lon="6.18185">
        <ele>222.6</ele>
        <time>2020-12-29T13:01:40Z</time>
      </trkpt>
      <trkpt lat="47.64335" lon="6.18181">
        <ele>222.7</ele>
        <time>2020-12-29T13:01:42Z</time>
      </trkpt>
      <trkpt lat="47.6433" lon="6.18178">
        <ele>222.7</ele>
        <time>2020-12-29T13:01:44Z</time>
      </trkpt>
      <trkpt lat="47.64324" lon="6.18178">
        <ele>222.6</ele>
        <time>2020-12-29T13:01:46Z</time>
      </trkpt>
      <trkpt lat="47.64319" lon="6.18179">
        <ele>222.4</ele>
        <time>2020-12-29T13:01:48Z</time>
      </trkpt>
      <trkpt lat="47.64313" lon="6.18182">
        <ele>222.3</ele>
        <time>2020-12-29T13:01:50Z</time>
      </trkpt>
      <trkpt lat="47.64306" lon="6.18184">
        <ele>222.1</ele>
        <time>2020-12-29T13:01:52Z</time>
      </trkpt>
      <trkpt lat="47.64301" lon="6.18187">
        <ele>222</ele>
        <time>2020-12-29T13:01:53Z</time>
      </trkpt>
      <trkpt lat="47.64295" lon="6.18189">
        <ele>221.9</ele>
        <time>2020-12-29T13:01:55Z</time>
      </trkpt>
      <trkpt lat="47.64289" lon="6.18192">
        <ele>221.8</ele>
        <time>2020-12-29T13:01:57Z</time>
      </trkpt>
      <trkpt lat="47.64285" lon="6.18195">
        <ele>221.7</ele>
        <time>2020-12-29T13:01:59Z</time>
      </trkpt>
      <trkpt lat="47.6428" lon="6.18199">
        <ele>221.7</ele>
        <time>2020-12-29T13:02:01Z</time>
      </trkpt>
      <trkpt lat="47.64275" lon="6.18203">
        <ele>221.6</ele>
        <time>2020-12-29T13:02:04Z</time>
      </trkpt>
      <trkpt lat="47.6427" lon="6.18207">
        <ele>221.6</ele>
        <time>2020-12-29T13:02:07Z</time>
      </trkpt>
      <trkpt lat="47.64264" lon="6.18213">
        <ele>221.6</ele>
        <time>2020-12-29T13:02:10Z</time>
      </trkpt>
      <trkpt lat="47.64259" lon="6.18216">
        <ele>221.6</ele>
        <time>2020-12-29T13:02:13Z</time>
      </trkpt>
      <trkpt lat="47.64256" lon="6.18221">
        <ele>221.7</ele>
        <time>2020-12-29T13:02:15Z</time>
      </trkpt>
      <trkpt lat="47.64252" lon="6.18224">
        <ele>221.7</ele>
        <time>2020-12-29T13:02:17Z</time>
      </trkpt>
      <trkpt lat="47.64247" lon="6.18229">
        <ele>221.8</ele>
        <time>2020-12-29T13:02:20Z</time>
      </trkpt>
      <trkpt lat="47.64243" lon="6.18233">
        <ele>221.8</ele>
        <time>2020-12-29T13:02:22Z</time>
      </trkpt>
      <trkpt lat="47.64239" lon="6.18237">
        <ele>221.9</ele>
        <time>2020-12-29T13:02:25Z</time>
      </trkpt>
      <trkpt lat="47.64234" lon="6.18242">
        <ele>222</ele>
        <time>2020-12-29T13:02:28Z</time>
      </trkpt>
      <trkpt lat="47.64229" lon="6.18249">
        <ele>222.2</ele>
        <time>2020-12-29T13:02:31Z</time>
      </trkpt>
      <trkpt lat="47.64224" lon="6.18254">
        <ele>222.4</ele>
        <time>2020-12-29T13:02:34Z</time>
      </trkpt>
      <trkpt lat="47.64219" lon="6.18258">
        <ele>222.7</ele>
        <time>2020-12-29T13:02:36Z</time>
      </trkpt>
      <trkpt lat="47.64214" lon="6.18261">
        <ele>222.9</ele>
        <time>2020-12-29T13:02:39Z</time>
      </trkpt>
      <trkpt lat="47.64208" lon="6.18262">
        <ele>223.1</ele>
        <time>2020-12-29T13:02:41Z</time>
      </trkpt>
      <trkpt lat="47.64203" lon="6.18262">
        <ele>223.2</ele>
        <time>2020-12-29T13:02:43Z</time>
      </trkpt>
      <trkpt lat="47.64197" lon="6.18262">
        <ele>223.3</ele>
        <time>2020-12-29T13:02:44Z</time>
      </trkpt>
      <trkpt lat="47.6419" lon="6.18261">
        <ele>223.5</ele>
        <time>2020-12-29T13:02:46Z</time>
      </trkpt>
      <trkpt lat="47.64183" lon="6.18259">
        <ele>223.5</ele>
        <time>2020-12-29T13:02:47Z</time>
      </trkpt>
      <trkpt lat="47.64169" lon="6.18256">
        <ele>223.5</ele>
        <time>2020-12-29T13:02:48Z</time>
      </trkpt>
      <trkpt lat="47.6416" lon="6.18252">
        <ele>223.3</ele>
        <time>2020-12-29T13:02:49Z</time>
      </trkpt>
      <trkpt lat="47.64152" lon="6.18249">
        <ele>223.1</ele>
        <time>2020-12-29T13:02:50Z</time>
      </trkpt>
      <trkpt lat="47.64145" lon="6.18244">
        <ele>223</ele>
        <time>2020-12-29T13:02:51Z</time>
      </trkpt>
      <trkpt lat="47.64138" lon="6.1824">
        <ele>222.9</ele>
        <time>2020-12-29T13:02:52Z</time>
      </trkpt>
      <trkpt lat="47.64132" lon="6.18235">
        <ele>222.8</ele>
        <time>2020-12-29T13:02:53Z</time>
      </trkpt>
      <trkpt lat="47.64127" lon="6.18229">
        <ele>222.6</ele>
        <time>2020-12-29T13:02:54Z</time>
      </trkpt>
      <trkpt lat="47.64122" lon="6.18224">
        <ele>222.5</ele>
        <time>2020-12-29T13:02:55Z</time>
      </trkpt>
      <trkpt lat="47.64117" lon="6.1822">
        <ele>222.4</ele>
        <time>2020-12-29T13:02:56Z</time>
      </trkpt>
      <trkpt lat="47.64112" lon="6.18215">
        <ele>222.2</ele>
        <time>2020-12-29T13:02:57Z</time>
      </trkpt>
      <trkpt lat="47.64108" lon="6.1821">
        <ele>222.1</ele>
        <time>2020-12-29T13:02:58Z</time>
      </trkpt>
      <trkpt lat="47.64104" lon="6.18206">
        <ele>222</ele>
        <time>2020-12-29T13:02:59Z</time>
      </trkpt>
      <trkpt lat="47.641" lon="6.18202">
        <ele>221.9</ele>
        <time>2020-12-29T13:03:00Z</time>
      </trkpt>
      <trkpt lat="47.64096" lon="6.18197">
        <ele>221.9</ele>
        <time>2020-12-29T13:03:01Z</time>
      </trkpt>
      <trkpt lat="47.64092" lon="6.18193">
        <ele>221.8</ele>
        <time>2020-12-29T13:03:02Z</time>
      </trkpt>
      <trkpt lat="47.64088" lon="6.18189">
        <ele>221.7</ele>
        <time>2020-12-29T13:03:03Z</time>
      </trkpt>
      <trkpt lat="47.64081" lon="6.18183">
        <ele>221.6</ele>
        <time>2020-12-29T13:03:05Z</time>
      </trkpt>
      <trkpt lat="47.64077" lon="6.18187">
        <ele>221.8</ele>
        <time>2020-12-29T13:03:07Z</time>
      </trkpt>
      <trkpt lat="47.64074" lon="6.18195">
        <ele>222.1</ele>
        <time>2020-12-29T13:03:09Z</time>
      </trkpt>
      <trkpt lat="47.64072" lon="6.18204">
        <ele>222.5</ele>
        <time>2020-12-29T13:03:11Z</time>
      </trkpt>
      <trkpt lat="47.64067" lon="6.18197">
        <ele>222.3</ele>
        <time>2020-12-29T13:03:13Z</time>
      </trkpt>
      <trkpt lat="47.64067" lon="6.18205">
        <ele>222.6</ele>
        <time>2020-12-29T13:03:14Z</time>
      </trkpt>
      <trkpt lat="47.64064" lon="6.18215">
        <ele>223</ele>
        <time>2020-12-29T13:03:16Z</time>
      </trkpt>
      <trkpt lat="47.64059" lon="6.18218">
        <ele>223.1</ele>
        <time>2020-12-29T13:03:19Z</time>
      </trkpt>
      <trkpt lat="47.64053" lon="6.18218">
        <ele>223.2</ele>
        <time>2020-12-29T13:03:21Z</time>
      </trkpt>
      <trkpt lat="47.64048" lon="6.18216">
        <ele>223.2</ele>
        <time>2020-12-29T13:03:23Z</time>
      </trkpt>
      <trkpt lat="47.64041" lon="6.18213">
        <ele>223.2</ele>
        <time>2020-12-29T13:03:26Z</time>
      </trkpt>
      <trkpt lat="47.64036" lon="6.18212">
        <ele>223.2</ele>
        <time>2020-12-29T13:03:27Z</time>
      </trkpt>
      <trkpt lat="47.64031" lon="6.18209">
        <ele>223.1</ele>
        <time>2020-12-29T13:03:29Z</time>
      </trkpt>
      <trkpt lat="47.64026" lon="6.18205">
        <ele>223.1</ele>
        <time>2020-12-29T13:03:31Z</time>
      </trkpt>
      <trkpt lat="47.64019" lon="6.182">
        <ele>223</ele>
        <time>2020-12-29T13:03:33Z</time>
      </trkpt>
      <trkpt lat="47.64013" lon="6.18196">
        <ele>222.9</ele>
        <time>2020-12-29T13:03:35Z</time>
      </trkpt>
      <trkpt lat="47.64008" lon="6.18193">
        <ele>222.8</ele>
        <time>2020-12-29T13:03:37Z</time>
      </trkpt>
      <trkpt lat="47.64003" lon="6.18189">
        <ele>222.8</ele>
        <time>2020-12-29T13:03:39Z</time>
      </trkpt>
      <trkpt lat="47.63998" lon="6.18187">
        <ele>222.9</ele>
        <time>2020-12-29T13:03:41Z</time>
      </trkpt>
      <trkpt lat="47.63991" lon="6.18183">
        <ele>223.4</ele>
        <time>2020-12-29T13:03:44Z</time>
      </trkpt>
      <trkpt lat="47.63984" lon="6.18179">
        <ele>223.7</ele>
        <time>2020-12-29T13:03:47Z</time>
      </trkpt>
      <trkpt lat="47.63978" lon="6.18175">
        <ele>224</ele>
        <time>2020-12-29T13:03:49Z</time>
      </trkpt>
      <trkpt lat="47.63973" lon="6.18173">
        <ele>224.3</ele>
        <time>2020-12-29T13:03:51Z</time>
      </trkpt>
      <trkpt lat="47.63968" lon="6.18169">
        <ele>224.5</ele>
        <time>2020-12-29T13:03:53Z</time>
      </trkpt>
      <trkpt lat="47.63963" lon="6.18164">
        <ele>224.5</ele>
        <time>2020-12-29T13:03:55Z</time>
      </trkpt>
      <trkpt lat="47.63959" lon="6.18158">
        <ele>224.5</ele>
        <time>2020-12-29T13:03:57Z</time>
      </trkpt>
      <trkpt lat="47.63955" lon="6.18153">
        <ele>224.5</ele>
        <time>2020-12-29T13:03:59Z</time>
      </trkpt>
      <trkpt lat="47.63951" lon="6.18146">
        <ele>224.4</ele>
        <time>2020-12-29T13:04:01Z</time>
      </trkpt>
      <trkpt lat="47.63946" lon="6.18138">
        <ele>224.2</ele>
        <time>2020-12-29T13:04:03Z</time>
      </trkpt>
      <trkpt lat="47.63943" lon="6.18131">
        <ele>224</ele>
        <time>2020-12-29T13:04:05Z</time>
      </trkpt>
      <trkpt lat="47.63939" lon="6.18125">
        <ele>223.8</ele>
        <time>2020-12-29T13:04:07Z</time>
      </trkpt>
      <trkpt lat="47.63936" lon="6.18119">
        <ele>223.6</ele>
        <time>2020-12-29T13:04:09Z</time>
      </trkpt>
      <trkpt lat="47.63932" lon="6.18113">
        <ele>223.4</ele>
        <time>2020-12-29T13:04:11Z</time>
      </trkpt>
      <trkpt lat="47.63928" lon="6.18108">
        <ele>223.3</ele>
        <time>2020-12-29T13:04:14Z</time>
      </trkpt>
      <trkpt lat="47.63924" lon="6.18103">
        <ele>223.1</ele>
        <time>2020-12-29T13:04:15Z</time>
      </trkpt>
      <trkpt lat="47.6392" lon="6.18098">
        <ele>222.9</ele>
        <time>2020-12-29T13:04:17Z</time>
      </trkpt>
      <trkpt lat="47.63915" lon="6.18091">
        <ele>222.7</ele>
        <time>2020-12-29T13:04:20Z</time>
      </trkpt>
      <trkpt lat="47.63912" lon="6.18087">
        <ele>222.7</ele>
        <time>2020-12-29T13:04:22Z</time>
      </trkpt>
      <trkpt lat="47.63909" lon="6.18082">
        <ele>222.7</ele>
        <time>2020-12-29T13:04:24Z</time>
      </trkpt>
      <trkpt lat="47.63905" lon="6.18077">
        <ele>222.9</ele>
        <time>2020-12-29T13:04:26Z</time>
      </trkpt>
      <trkpt lat="47.63901" lon="6.18071">
        <ele>223</ele>
        <time>2020-12-29T13:04:29Z</time>
      </trkpt>
      <trkpt lat="47.63897" lon="6.18065">
        <ele>223.2</ele>
        <time>2020-12-29T13:04:32Z</time>
      </trkpt>
      <trkpt lat="47.63893" lon="6.1806">
        <ele>223.3</ele>
        <time>2020-12-29T13:04:36Z</time>
      </trkpt>
      <trkpt lat="47.63889" lon="6.18054">
        <ele>223.5</ele>
        <time>2020-12-29T13:04:39Z</time>
      </trkpt>
      <trkpt lat="47.63885" lon="6.18049">
        <ele>223.6</ele>
        <time>2020-12-29T13:04:42Z</time>
      </trkpt>
      <trkpt lat="47.63882" lon="6.18044">
        <ele>223.7</ele>
        <time>2020-12-29T13:04:44Z</time>
      </trkpt>
      <trkpt lat="47.63879" lon="6.18039">
        <ele>223.8</ele>
        <time>2020-12-29T13:04:47Z</time>
      </trkpt>
      <trkpt lat="47.63875" lon="6.18032">
        <ele>223.9</ele>
        <time>2020-12-29T13:04:50Z</time>
      </trkpt>
      <trkpt lat="47.63871" lon="6.18025">
        <ele>223.9</ele>
        <time>2020-12-29T13:04:53Z</time>
      </trkpt>
      <trkpt lat="47.63868" lon="6.1802">
        <ele>224</ele>
        <time>2020-12-29T13:04:56Z</time>
      </trkpt>
      <trkpt lat="47.63863" lon="6.18014">
        <ele>224.1</ele>
        <time>2020-12-29T13:04:59Z</time>
      </trkpt>
      <trkpt lat="47.63859" lon="6.18008">
        <ele>224.2</ele>
        <time>2020-12-29T13:05:02Z</time>
      </trkpt>
      <trkpt lat="47.63855" lon="6.18002">
        <ele>224.3</ele>
        <time>2020-12-29T13:05:05Z</time>
      </trkpt>
      <trkpt lat="47.63851" lon="6.17996">
        <ele>224.3</ele>
        <time>2020-12-29T13:05:08Z</time>
      </trkpt>
      <trkpt lat="47.63847" lon="6.1799">
        <ele>224.4</ele>
        <time>2020-12-29T13:05:11Z</time>
      </trkpt>
      <trkpt lat="47.63843" lon="6.17984">
        <ele>224.5</ele>
        <time>2020-12-29T13:05:15Z</time>
      </trkpt>
      <trkpt lat="47.63839" lon="6.17978">
        <ele>224.5</ele>
        <time>2020-12-29T13:05:18Z</time>
      </trkpt>
      <trkpt lat="47.63835" lon="6.17973">
        <ele>224.6</ele>
        <time>2020-12-29T13:05:21Z</time>
      </trkpt>
      <trkpt lat="47.63831" lon="6.17968">
        <ele>224.7</ele>
        <time>2020-12-29T13:05:25Z</time>
      </trkpt>
      <trkpt lat="47.63828" lon="6.17962">
        <ele>224.8</ele>
        <time>2020-12-29T13:05:28Z</time>
      </trkpt>
      <trkpt lat="47.63824" lon="6.17957">
        <ele>224.9</ele>
        <time>2020-12-29T13:05:31Z</time>
      </trkpt>
      <trkpt lat="47.63819" lon="6.17951">
        <ele>225</ele>
        <time>2020-12-29T13:05:34Z</time>
      </trkpt>
      <trkpt lat="47.63815" lon="6.17946">
        <ele>225.1</ele>
        <time>2020-12-29T13:05:37Z</time>
      </trkpt>
      <trkpt lat="47.63811" lon="6.1794">
        <ele>225.1</ele>
        <time>2020-12-29T13:05:41Z</time>
      </trkpt>
      <trkpt lat="47.63807" lon="6.17934">
        <ele>225.1</ele>
        <time>2020-12-29T13:05:43Z</time>
      </trkpt>
      <trkpt lat="47.63803" lon="6.17929">
        <ele>225.1</ele>
        <time>2020-12-29T13:05:46Z</time>
      </trkpt>
      <trkpt lat="47.63799" lon="6.17924">
        <ele>225</ele>
        <time>2020-12-29T13:05:49Z</time>
      </trkpt>
      <trkpt lat="47.63795" lon="6.17918">
        <ele>224.9</ele>
        <time>2020-12-29T13:05:52Z</time>
      </trkpt>
      <trkpt lat="47.63791" lon="6.17912">
        <ele>224.8</ele>
        <time>2020-12-29T13:05:55Z</time>
      </trkpt>
      <trkpt lat="47.63787" lon="6.17907">
        <ele>224.9</ele>
        <time>2020-12-29T13:05:58Z</time>
      </trkpt>
      <trkpt lat="47.63784" lon="6.17902">
        <ele>224.9</ele>
        <time>2020-12-29T13:06:00Z</time>
      </trkpt>
      <trkpt lat="47.6378" lon="6.17897">
        <ele>224.9</ele>
        <time>2020-12-29T13:06:02Z</time>
      </trkpt>
      <trkpt lat="47.63777" lon="6.17891">
        <ele>224.9</ele>
        <time>2020-12-29T13:06:04Z</time>
      </trkpt>
      <trkpt lat="47.63774" lon="6.17886">
        <ele>224.8</ele>
        <time>2020-12-29T13:06:06Z</time>
      </trkpt>
      <trkpt lat="47.6377" lon="6.1788">
        <ele>224.7</ele>
        <time>2020-12-29T13:06:08Z</time>
      </trkpt>
      <trkpt lat="47.63765" lon="6.17873">
        <ele>224.6</ele>
        <time>2020-12-29T13:06:10Z</time>
      </trkpt>
      <trkpt lat="47.6376" lon="6.17866">
        <ele>224.5</ele>
        <time>2020-12-29T13:06:13Z</time>
      </trkpt>
      <trkpt lat="47.63756" lon="6.17862">
        <ele>224.4</ele>
        <time>2020-12-29T13:06:14Z</time>
      </trkpt>
      <trkpt lat="47.63751" lon="6.17858">
        <ele>224.4</ele>
        <time>2020-12-29T13:06:16Z</time>
      </trkpt>
      <trkpt lat="47.63746" lon="6.17852">
        <ele>224.3</ele>
        <time>2020-12-29T13:06:19Z</time>
      </trkpt>
      <trkpt lat="47.63741" lon="6.17846">
        <ele>224.2</ele>
        <time>2020-12-29T13:06:22Z</time>
      </trkpt>
      <trkpt lat="47.63736" lon="6.17842">
        <ele>224.1</ele>
        <time>2020-12-29T13:06:23Z</time>
      </trkpt>
      <trkpt lat="47.63731" lon="6.17836">
        <ele>223.9</ele>
        <time>2020-12-29T13:06:26Z</time>
      </trkpt>
      <trkpt lat="47.63726" lon="6.1783">
        <ele>223.7</ele>
        <time>2020-12-29T13:06:28Z</time>
      </trkpt>
      <trkpt lat="47.63723" lon="6.17826">
        <ele>223.7</ele>
        <time>2020-12-29T13:06:29Z</time>
      </trkpt>
      <trkpt lat="47.63718" lon="6.17821">
        <ele>223.6</ele>
        <time>2020-12-29T13:06:31Z</time>
      </trkpt>
      <trkpt lat="47.63712" lon="6.17815">
        <ele>223.5</ele>
        <time>2020-12-29T13:06:33Z</time>
      </trkpt>
      <trkpt lat="47.63708" lon="6.1781">
        <ele>223.4</ele>
        <time>2020-12-29T13:06:35Z</time>
      </trkpt>
      <trkpt lat="47.63704" lon="6.17804">
        <ele>223.2</ele>
        <time>2020-12-29T13:06:37Z</time>
      </trkpt>
      <trkpt lat="47.637" lon="6.178">
        <ele>223.1</ele>
        <time>2020-12-29T13:06:39Z</time>
      </trkpt>
      <trkpt lat="47.63696" lon="6.17795">
        <ele>223</ele>
        <time>2020-12-29T13:06:42Z</time>
      </trkpt>
      <trkpt lat="47.63692" lon="6.17789">
        <ele>222.8</ele>
        <time>2020-12-29T13:06:44Z</time>
      </trkpt>
      <trkpt lat="47.63688" lon="6.17785">
        <ele>222.6</ele>
        <time>2020-12-29T13:06:47Z</time>
      </trkpt>
      <trkpt lat="47.63682" lon="6.17782">
        <ele>222.6</ele>
        <time>2020-12-29T13:06:50Z</time>
      </trkpt>
      <trkpt lat="47.63678" lon="6.17779">
        <ele>222.5</ele>
        <time>2020-12-29T13:06:52Z</time>
      </trkpt>
      <trkpt lat="47.63674" lon="6.17775">
        <ele>222.4</ele>
        <time>2020-12-29T13:06:55Z</time>
      </trkpt>
      <trkpt lat="47.63669" lon="6.1777">
        <ele>222.2</ele>
        <time>2020-12-29T13:06:57Z</time>
      </trkpt>
      <trkpt lat="47.63664" lon="6.17763">
        <ele>222.1</ele>
        <time>2020-12-29T13:07:01Z</time>
      </trkpt>
      <trkpt lat="47.6366" lon="6.17759">
        <ele>222.2</ele>
        <time>2020-12-29T13:07:02Z</time>
      </trkpt>
      <trkpt lat="47.63656" lon="6.17754">
        <ele>222.3</ele>
        <time>2020-12-29T13:07:04Z</time>
      </trkpt>
      <trkpt lat="47.63651" lon="6.17748">
        <ele>222.4</ele>
        <time>2020-12-29T13:07:07Z</time>
      </trkpt>
      <trkpt lat="47.63647" lon="6.17743">
        <ele>222.8</ele>
        <time>2020-12-29T13:07:09Z</time>
      </trkpt>
      <trkpt lat="47.63642" lon="6.17738">
        <ele>223</ele>
        <time>2020-12-29T13:07:11Z</time>
      </trkpt>
      <trkpt lat="47.63639" lon="6.17734">
        <ele>223.2</ele>
        <time>2020-12-29T13:07:13Z</time>
      </trkpt>
      <trkpt lat="47.63634" lon="6.17729">
        <ele>223.5</ele>
        <time>2020-12-29T13:07:16Z</time>
      </trkpt>
      <trkpt lat="47.6363" lon="6.17725">
        <ele>223.7</ele>
        <time>2020-12-29T13:07:18Z</time>
      </trkpt>
      <trkpt lat="47.63626" lon="6.17721">
        <ele>223.9</ele>
        <time>2020-12-29T13:07:21Z</time>
      </trkpt>
      <trkpt lat="47.63622" lon="6.17718">
        <ele>224.1</ele>
        <time>2020-12-29T13:07:23Z</time>
      </trkpt>
      <trkpt lat="47.63617" lon="6.17714">
        <ele>224.3</ele>
        <time>2020-12-29T13:07:25Z</time>
      </trkpt>
      <trkpt lat="47.63613" lon="6.1771">
        <ele>224.4</ele>
        <time>2020-12-29T13:07:28Z</time>
      </trkpt>
      <trkpt lat="47.63609" lon="6.17707">
        <ele>224.6</ele>
        <time>2020-12-29T13:07:29Z</time>
      </trkpt>
      <trkpt lat="47.63605" lon="6.17703">
        <ele>224.7</ele>
        <time>2020-12-29T13:07:32Z</time>
      </trkpt>
      <trkpt lat="47.636" lon="6.17697">
        <ele>224.7</ele>
        <time>2020-12-29T13:07:34Z</time>
      </trkpt>
      <trkpt lat="47.63596" lon="6.17693">
        <ele>224.8</ele>
        <time>2020-12-29T13:07:36Z</time>
      </trkpt>
      <trkpt lat="47.63591" lon="6.17688">
        <ele>224.8</ele>
        <time>2020-12-29T13:07:39Z</time>
      </trkpt>
      <trkpt lat="47.63587" lon="6.17684">
        <ele>224.9</ele>
        <time>2020-12-29T13:07:40Z</time>
      </trkpt>
      <trkpt lat="47.63582" lon="6.17681">
        <ele>224.9</ele>
        <time>2020-12-29T13:07:43Z</time>
      </trkpt>
      <trkpt lat="47.63578" lon="6.17676">
        <ele>225</ele>
        <time>2020-12-29T13:07:45Z</time>
      </trkpt>
      <trkpt lat="47.63574" lon="6.17672">
        <ele>225.1</ele>
        <time>2020-12-29T13:07:47Z</time>
      </trkpt>
      <trkpt lat="47.63569" lon="6.17669">
        <ele>225.3</ele>
        <time>2020-12-29T13:07:49Z</time>
      </trkpt>
      <trkpt lat="47.63565" lon="6.17666">
        <ele>225.5</ele>
        <time>2020-12-29T13:07:51Z</time>
      </trkpt>
      <trkpt lat="47.6356" lon="6.1766">
        <ele>225.7</ele>
        <time>2020-12-29T13:07:54Z</time>
      </trkpt>
      <trkpt lat="47.63555" lon="6.17656">
        <ele>225.9</ele>
        <time>2020-12-29T13:07:56Z</time>
      </trkpt>
      <trkpt lat="47.63551" lon="6.17651">
        <ele>226</ele>
        <time>2020-12-29T13:07:58Z</time>
      </trkpt>
      <trkpt lat="47.63547" lon="6.17648">
        <ele>226.1</ele>
        <time>2020-12-29T13:08:00Z</time>
      </trkpt>
      <trkpt lat="47.63542" lon="6.17643">
        <ele>226.2</ele>
        <time>2020-12-29T13:08:03Z</time>
      </trkpt>
      <trkpt lat="47.63538" lon="6.17639">
        <ele>226.2</ele>
        <time>2020-12-29T13:08:05Z</time>
      </trkpt>
      <trkpt lat="47.63534" lon="6.17635">
        <ele>226.2</ele>
        <time>2020-12-29T13:08:08Z</time>
      </trkpt>
      <trkpt lat="47.6353" lon="6.17629">
        <ele>226.2</ele>
        <time>2020-12-29T13:08:11Z</time>
      </trkpt>
      <trkpt lat="47.63524" lon="6.17624">
        <ele>226.1</ele>
        <time>2020-12-29T13:08:13Z</time>
      </trkpt>
      <trkpt lat="47.6352" lon="6.17619">
        <ele>226</ele>
        <time>2020-12-29T13:08:16Z</time>
      </trkpt>
      <trkpt lat="47.63515" lon="6.17614">
        <ele>225.9</ele>
        <time>2020-12-29T13:08:19Z</time>
      </trkpt>
      <trkpt lat="47.6351" lon="6.1761">
        <ele>225.8</ele>
        <time>2020-12-29T13:08:22Z</time>
      </trkpt>
      <trkpt lat="47.63506" lon="6.17606">
        <ele>225.6</ele>
        <time>2020-12-29T13:08:24Z</time>
      </trkpt>
      <trkpt lat="47.63503" lon="6.17602">
        <ele>225.5</ele>
        <time>2020-12-29T13:08:26Z</time>
      </trkpt>
      <trkpt lat="47.63498" lon="6.17598">
        <ele>225.4</ele>
        <time>2020-12-29T13:08:28Z</time>
      </trkpt>
      <trkpt lat="47.63494" lon="6.17595">
        <ele>225.4</ele>
        <time>2020-12-29T13:08:30Z</time>
      </trkpt>
      <trkpt lat="47.63489" lon="6.1759">
        <ele>225.4</ele>
        <time>2020-12-29T13:08:33Z</time>
      </trkpt>
      <trkpt lat="47.63485" lon="6.17587">
        <ele>225.4</ele>
        <time>2020-12-29T13:08:35Z</time>
      </trkpt>
      <trkpt lat="47.6348" lon="6.17583">
        <ele>225.4</ele>
        <time>2020-12-29T13:08:37Z</time>
      </trkpt>
      <trkpt lat="47.63474" lon="6.17578">
        <ele>225.5</ele>
        <time>2020-12-29T13:08:39Z</time>
      </trkpt>
      <trkpt lat="47.6347" lon="6.17575">
        <ele>225.6</ele>
        <time>2020-12-29T13:08:41Z</time>
      </trkpt>
      <trkpt lat="47.63465" lon="6.1757">
        <ele>225.6</ele>
        <time>2020-12-29T13:08:45Z</time>
      </trkpt>
      <trkpt lat="47.63459" lon="6.17565">
        <ele>225.7</ele>
        <time>2020-12-29T13:08:47Z</time>
      </trkpt>
      <trkpt lat="47.63453" lon="6.17561">
        <ele>225.7</ele>
        <time>2020-12-29T13:08:50Z</time>
      </trkpt>
      <trkpt lat="47.63448" lon="6.17557">
        <ele>225.7</ele>
        <time>2020-12-29T13:08:53Z</time>
      </trkpt>
      <trkpt lat="47.63444" lon="6.17555">
        <ele>225.7</ele>
        <time>2020-12-29T13:08:55Z</time>
      </trkpt>
      <trkpt lat="47.63438" lon="6.17551">
        <ele>225.7</ele>
        <time>2020-12-29T13:08:57Z</time>
      </trkpt>
      <trkpt lat="47.63434" lon="6.17548">
        <ele>225.7</ele>
        <time>2020-12-29T13:09:00Z</time>
      </trkpt>
      <trkpt lat="47.63428" lon="6.17544">
        <ele>225.6</ele>
        <time>2020-12-29T13:09:02Z</time>
      </trkpt>
      <trkpt lat="47.63424" lon="6.1754">
        <ele>225.5</ele>
        <time>2020-12-29T13:09:04Z</time>
      </trkpt>
      <trkpt lat="47.63418" lon="6.17536">
        <ele>225.4</ele>
        <time>2020-12-29T13:09:06Z</time>
      </trkpt>
      <trkpt lat="47.63413" lon="6.17533">
        <ele>225.4</ele>
        <time>2020-12-29T13:09:08Z</time>
      </trkpt>
      <trkpt lat="47.63407" lon="6.17529">
        <ele>225.3</ele>
        <time>2020-12-29T13:09:10Z</time>
      </trkpt>
      <trkpt lat="47.63402" lon="6.17525">
        <ele>225.2</ele>
        <time>2020-12-29T13:09:13Z</time>
      </trkpt>
      <trkpt lat="47.63397" lon="6.17522">
        <ele>225.2</ele>
        <time>2020-12-29T13:09:14Z</time>
      </trkpt>
      <trkpt lat="47.63391" lon="6.17517">
        <ele>225.1</ele>
        <time>2020-12-29T13:09:16Z</time>
      </trkpt>
      <trkpt lat="47.63386" lon="6.17513">
        <ele>225.1</ele>
        <time>2020-12-29T13:09:18Z</time>
      </trkpt>
      <trkpt lat="47.63379" lon="6.17508">
        <ele>225</ele>
        <time>2020-12-29T13:09:21Z</time>
      </trkpt>
      <trkpt lat="47.63373" lon="6.17505">
        <ele>225</ele>
        <time>2020-12-29T13:09:22Z</time>
      </trkpt>
      <trkpt lat="47.63368" lon="6.17501">
        <ele>225</ele>
        <time>2020-12-29T13:09:23Z</time>
      </trkpt>
      <trkpt lat="47.63364" lon="6.17498">
        <ele>225</ele>
        <time>2020-12-29T13:09:25Z</time>
      </trkpt>
      <trkpt lat="47.63359" lon="6.17495">
        <ele>225.1</ele>
        <time>2020-12-29T13:09:26Z</time>
      </trkpt>
      <trkpt lat="47.63353" lon="6.17491">
        <ele>225.2</ele>
        <time>2020-12-29T13:09:28Z</time>
      </trkpt>
      <trkpt lat="47.63347" lon="6.17487">
        <ele>225.2</ele>
        <time>2020-12-29T13:09:30Z</time>
      </trkpt>
      <trkpt lat="47.63341" lon="6.17484">
        <ele>225.3</ele>
        <time>2020-12-29T13:09:32Z</time>
      </trkpt>
      <trkpt lat="47.63334" lon="6.1748">
        <ele>225.3</ele>
        <time>2020-12-29T13:09:35Z</time>
      </trkpt>
      <trkpt lat="47.63328" lon="6.17476">
        <ele>225</ele>
        <time>2020-12-29T13:09:36Z</time>
      </trkpt>
      <trkpt lat="47.63323" lon="6.17473">
        <ele>224.7</ele>
        <time>2020-12-29T13:09:38Z</time>
      </trkpt>
      <trkpt lat="47.63318" lon="6.1747">
        <ele>224.4</ele>
        <time>2020-12-29T13:09:40Z</time>
      </trkpt>
      <trkpt lat="47.6331" lon="6.17466">
        <ele>223.9</ele>
        <time>2020-12-29T13:09:41Z</time>
      </trkpt>
      <trkpt lat="47.63303" lon="6.17462">
        <ele>223.5</ele>
        <time>2020-12-29T13:09:43Z</time>
      </trkpt>
      <trkpt lat="47.63296" lon="6.17458">
        <ele>223</ele>
        <time>2020-12-29T13:09:46Z</time>
      </trkpt>
      <trkpt lat="47.6329" lon="6.17455">
        <ele>222.6</ele>
        <time>2020-12-29T13:09:47Z</time>
      </trkpt>
      <trkpt lat="47.63285" lon="6.17452">
        <ele>222.3</ele>
        <time>2020-12-29T13:09:49Z</time>
      </trkpt>
      <trkpt lat="47.63279" lon="6.17449">
        <ele>221.9</ele>
        <time>2020-12-29T13:09:50Z</time>
      </trkpt>
      <trkpt lat="47.63275" lon="6.17446">
        <ele>221.6</ele>
        <time>2020-12-29T13:09:51Z</time>
      </trkpt>
      <trkpt lat="47.6327" lon="6.17443">
        <ele>221.2</ele>
        <time>2020-12-29T13:09:52Z</time>
      </trkpt>
      <trkpt lat="47.63262" lon="6.17438">
        <ele>220.6</ele>
        <time>2020-12-29T13:09:55Z</time>
      </trkpt>
      <trkpt lat="47.63255" lon="6.17434">
        <ele>219.9</ele>
        <time>2020-12-29T13:09:57Z</time>
      </trkpt>
      <trkpt lat="47.63247" lon="6.17429">
        <ele>219.4</ele>
        <time>2020-12-29T13:09:59Z</time>
      </trkpt>
      <trkpt lat="47.6324" lon="6.17426">
        <ele>219.1</ele>
        <time>2020-12-29T13:10:00Z</time>
      </trkpt>
      <trkpt lat="47.63235" lon="6.17423">
        <ele>219</ele>
        <time>2020-12-29T13:10:02Z</time>
      </trkpt>
      <trkpt lat="47.63228" lon="6.17419">
        <ele>218.7</ele>
        <time>2020-12-29T13:10:03Z</time>
      </trkpt>
      <trkpt lat="47.63222" lon="6.17415">
        <ele>218.6</ele>
        <time>2020-12-29T13:10:04Z</time>
      </trkpt>
      <trkpt lat="47.63217" lon="6.17412">
        <ele>218.7</ele>
        <time>2020-12-29T13:10:05Z</time>
      </trkpt>
      <trkpt lat="47.63213" lon="6.17409">
        <ele>218.7</ele>
        <time>2020-12-29T13:10:07Z</time>
      </trkpt>
      <trkpt lat="47.63208" lon="6.17406">
        <ele>218.8</ele>
        <time>2020-12-29T13:10:08Z</time>
      </trkpt>
      <trkpt lat="47.63203" lon="6.17403">
        <ele>218.8</ele>
        <time>2020-12-29T13:10:09Z</time>
      </trkpt>
      <trkpt lat="47.63192" lon="6.17396">
        <ele>218.8</ele>
        <time>2020-12-29T13:10:11Z</time>
      </trkpt>
      <trkpt lat="47.63187" lon="6.17393">
        <ele>218.8</ele>
        <time>2020-12-29T13:10:12Z</time>
      </trkpt>
      <trkpt lat="47.63182" lon="6.17391">
        <ele>218.8</ele>
        <time>2020-12-29T13:10:13Z</time>
      </trkpt>
      <trkpt lat="47.63177" lon="6.17389">
        <ele>218.8</ele>
        <time>2020-12-29T13:10:14Z</time>
      </trkpt>
      <trkpt lat="47.63172" lon="6.17386">
        <ele>218.8</ele>
        <time>2020-12-29T13:10:15Z</time>
      </trkpt>
      <trkpt lat="47.63167" lon="6.17384">
        <ele>218.8</ele>
        <time>2020-12-29T13:10:16Z</time>
      </trkpt>
      <trkpt lat="47.63162" lon="6.17381">
        <ele>218.7</ele>
        <time>2020-12-29T13:10:17Z</time>
      </trkpt>
      <trkpt lat="47.63157" lon="6.17379">
        <ele>218.6</ele>
        <time>2020-12-29T13:10:18Z</time>
      </trkpt>
      <trkpt lat="47.63152" lon="6.17377">
        <ele>218.6</ele>
        <time>2020-12-29T13:10:19Z</time>
      </trkpt>
      <trkpt lat="47.63147" lon="6.17375">
        <ele>218.5</ele>
        <time>2020-12-29T13:10:20Z</time>
      </trkpt>
      <trkpt lat="47.63142" lon="6.17373">
        <ele>218.4</ele>
        <time>2020-12-29T13:10:21Z</time>
      </trkpt>
      <trkpt lat="47.63137" lon="6.17372">
        <ele>218.4</ele>
        <time>2020-12-29T13:10:22Z</time>
      </trkpt>
      <trkpt lat="47.63132" lon="6.1737">
        <ele>218.4</ele>
        <time>2020-12-29T13:10:23Z</time>
      </trkpt>
      <trkpt lat="47.63128" lon="6.17369">
        <ele>218.3</ele>
        <time>2020-12-29T13:10:24Z</time>
      </trkpt>
      <trkpt lat="47.63123" lon="6.17367">
        <ele>218.3</ele>
        <time>2020-12-29T13:10:25Z</time>
      </trkpt>
      <trkpt lat="47.63115" lon="6.17364">
        <ele>218.3</ele>
        <time>2020-12-29T13:10:27Z</time>
      </trkpt>
      <trkpt lat="47.63108" lon="6.1736">
        <ele>218.2</ele>
        <time>2020-12-29T13:10:29Z</time>
      </trkpt>
      <trkpt lat="47.63102" lon="6.17357">
        <ele>218.2</ele>
        <time>2020-12-29T13:10:31Z</time>
      </trkpt>
      <trkpt lat="47.63096" lon="6.17355">
        <ele>218.2</ele>
        <time>2020-12-29T13:10:33Z</time>
      </trkpt>
      <trkpt lat="47.6309" lon="6.17354">
        <ele>218.2</ele>
        <time>2020-12-29T13:10:35Z</time>
      </trkpt>
      <trkpt lat="47.63085" lon="6.17348">
        <ele>218.2</ele>
        <time>2020-12-29T13:10:36Z</time>
      </trkpt>
      <trkpt lat="47.63077" lon="6.17342">
        <ele>218.1</ele>
        <time>2020-12-29T13:10:37Z</time>
      </trkpt>
      <trkpt lat="47.63071" lon="6.17344">
        <ele>218.1</ele>
        <time>2020-12-29T13:10:40Z</time>
      </trkpt>
      <trkpt lat="47.63065" lon="6.17342">
        <ele>218.1</ele>
        <time>2020-12-29T13:10:42Z</time>
      </trkpt>
      <trkpt lat="47.63058" lon="6.1734">
        <ele>218.1</ele>
        <time>2020-12-29T13:10:44Z</time>
      </trkpt>
      <trkpt lat="47.63054" lon="6.17338">
        <ele>218</ele>
        <time>2020-12-29T13:10:46Z</time>
      </trkpt>
      <trkpt lat="47.63048" lon="6.17337">
        <ele>218</ele>
        <time>2020-12-29T13:10:47Z</time>
      </trkpt>
      <trkpt lat="47.63042" lon="6.17335">
        <ele>218</ele>
        <time>2020-12-29T13:10:50Z</time>
      </trkpt>
      <trkpt lat="47.63037" lon="6.17333">
        <ele>218</ele>
        <time>2020-12-29T13:10:51Z</time>
      </trkpt>
      <trkpt lat="47.6303" lon="6.1733">
        <ele>218</ele>
        <time>2020-12-29T13:10:53Z</time>
      </trkpt>
      <trkpt lat="47.63024" lon="6.17327">
        <ele>218</ele>
        <time>2020-12-29T13:10:55Z</time>
      </trkpt>
      <trkpt lat="47.63018" lon="6.17325">
        <ele>218</ele>
        <time>2020-12-29T13:10:57Z</time>
      </trkpt>
      <trkpt lat="47.63012" lon="6.17323">
        <ele>218</ele>
        <time>2020-12-29T13:10:59Z</time>
      </trkpt>
      <trkpt lat="47.63006" lon="6.17321">
        <ele>218</ele>
        <time>2020-12-29T13:11:01Z</time>
      </trkpt>
      <trkpt lat="47.63001" lon="6.17318">
        <ele>218</ele>
        <time>2020-12-29T13:11:03Z</time>
      </trkpt>
      <trkpt lat="47.62996" lon="6.17317">
        <ele>218.1</ele>
        <time>2020-12-29T13:11:05Z</time>
      </trkpt>
      <trkpt lat="47.6299" lon="6.17314">
        <ele>218.2</ele>
        <time>2020-12-29T13:11:07Z</time>
      </trkpt>
      <trkpt lat="47.62983" lon="6.17313">
        <ele>218.4</ele>
        <time>2020-12-29T13:11:11Z</time>
      </trkpt>
      <trkpt lat="47.62976" lon="6.17312">
        <ele>218.6</ele>
        <time>2020-12-29T13:11:14Z</time>
      </trkpt>
      <trkpt lat="47.62971" lon="6.1731">
        <ele>218.7</ele>
        <time>2020-12-29T13:11:17Z</time>
      </trkpt>
      <trkpt lat="47.62965" lon="6.17306">
        <ele>218.8</ele>
        <time>2020-12-29T13:11:19Z</time>
      </trkpt>
      <trkpt lat="47.62961" lon="6.17302">
        <ele>218.9</ele>
        <time>2020-12-29T13:11:21Z</time>
      </trkpt>
      <trkpt lat="47.62957" lon="6.17299">
        <ele>219</ele>
        <time>2020-12-29T13:11:23Z</time>
      </trkpt>
      <trkpt lat="47.62953" lon="6.17294">
        <ele>219.1</ele>
        <time>2020-12-29T13:11:25Z</time>
      </trkpt>
      <trkpt lat="47.62949" lon="6.1729">
        <ele>219.2</ele>
        <time>2020-12-29T13:11:27Z</time>
      </trkpt>
      <trkpt lat="47.62945" lon="6.17287">
        <ele>219.3</ele>
        <time>2020-12-29T13:11:29Z</time>
      </trkpt>
      <trkpt lat="47.6294" lon="6.17283">
        <ele>219.4</ele>
        <time>2020-12-29T13:11:31Z</time>
      </trkpt>
      <trkpt lat="47.62936" lon="6.17277">
        <ele>219.5</ele>
        <time>2020-12-29T13:11:34Z</time>
      </trkpt>
      <trkpt lat="47.62932" lon="6.1727">
        <ele>219.6</ele>
        <time>2020-12-29T13:11:36Z</time>
      </trkpt>
      <trkpt lat="47.62926" lon="6.17265">
        <ele>219.8</ele>
        <time>2020-12-29T13:11:39Z</time>
      </trkpt>
      <trkpt lat="47.6292" lon="6.17265">
        <ele>219.9</ele>
        <time>2020-12-29T13:11:41Z</time>
      </trkpt>
      <trkpt lat="47.62912" lon="6.17265">
        <ele>220.1</ele>
        <time>2020-12-29T13:11:42Z</time>
      </trkpt>
      <trkpt lat="47.62903" lon="6.17265">
        <ele>220.2</ele>
        <time>2020-12-29T13:11:45Z</time>
      </trkpt>
      <trkpt lat="47.62894" lon="6.17265">
        <ele>220.3</ele>
        <time>2020-12-29T13:11:47Z</time>
      </trkpt>
      <trkpt lat="47.62888" lon="6.17264">
        <ele>220.3</ele>
        <time>2020-12-29T13:11:48Z</time>
      </trkpt>
      <trkpt lat="47.62882" lon="6.17264">
        <ele>220.4</ele>
        <time>2020-12-29T13:11:49Z</time>
      </trkpt>
      <trkpt lat="47.62876" lon="6.17263">
        <ele>220.5</ele>
        <time>2020-12-29T13:11:51Z</time>
      </trkpt>
      <trkpt lat="47.62868" lon="6.17261">
        <ele>220.6</ele>
        <time>2020-12-29T13:11:53Z</time>
      </trkpt>
      <trkpt lat="47.62863" lon="6.17259">
        <ele>220.6</ele>
        <time>2020-12-29T13:11:53Z</time>
      </trkpt>
      <trkpt lat="47.62854" lon="6.17256">
        <ele>220.8</ele>
        <time>2020-12-29T13:11:56Z</time>
      </trkpt>
      <trkpt lat="47.62849" lon="6.17255">
        <ele>220.8</ele>
        <time>2020-12-29T13:11:57Z</time>
      </trkpt>
      <trkpt lat="47.62843" lon="6.17253">
        <ele>220.9</ele>
        <time>2020-12-29T13:11:58Z</time>
      </trkpt>
      <trkpt lat="47.62839" lon="6.17251">
        <ele>220.9</ele>
        <time>2020-12-29T13:11:58Z</time>
      </trkpt>
      <trkpt lat="47.62828" lon="6.17248">
        <ele>221</ele>
        <time>2020-12-29T13:12:00Z</time>
      </trkpt>
      <trkpt lat="47.62818" lon="6.17245">
        <ele>220.9</ele>
        <time>2020-12-29T13:12:02Z</time>
      </trkpt>
      <trkpt lat="47.6281" lon="6.17242">
        <ele>220.8</ele>
        <time>2020-12-29T13:12:04Z</time>
      </trkpt>
      <trkpt lat="47.62804" lon="6.17241">
        <ele>220.7</ele>
        <time>2020-12-29T13:12:05Z</time>
      </trkpt>
      <trkpt lat="47.62799" lon="6.17239">
        <ele>220.6</ele>
        <time>2020-12-29T13:12:06Z</time>
      </trkpt>
      <trkpt lat="47.62795" lon="6.17238">
        <ele>220.5</ele>
        <time>2020-12-29T13:12:07Z</time>
      </trkpt>
      <trkpt lat="47.6279" lon="6.17236">
        <ele>220.5</ele>
        <time>2020-12-29T13:12:08Z</time>
      </trkpt>
      <trkpt lat="47.62782" lon="6.17234">
        <ele>220.3</ele>
        <time>2020-12-29T13:12:10Z</time>
      </trkpt>
      <trkpt lat="47.62775" lon="6.17233">
        <ele>220.2</ele>
        <time>2020-12-29T13:12:12Z</time>
      </trkpt>
      <trkpt lat="47.62767" lon="6.1723">
        <ele>220.1</ele>
        <time>2020-12-29T13:12:14Z</time>
      </trkpt>
      <trkpt lat="47.62759" lon="6.17226">
        <ele>219.9</ele>
        <time>2020-12-29T13:12:16Z</time>
      </trkpt>
      <trkpt lat="47.62752" lon="6.17224">
        <ele>219.7</ele>
        <time>2020-12-29T13:12:17Z</time>
      </trkpt>
      <trkpt lat="47.62748" lon="6.17222">
        <ele>219.6</ele>
        <time>2020-12-29T13:12:18Z</time>
      </trkpt>
      <trkpt lat="47.62742" lon="6.1722">
        <ele>219.5</ele>
        <time>2020-12-29T13:12:20Z</time>
      </trkpt>
      <trkpt lat="47.62737" lon="6.17218">
        <ele>219.4</ele>
        <time>2020-12-29T13:12:21Z</time>
      </trkpt>
      <trkpt lat="47.62729" lon="6.17215">
        <ele>219.3</ele>
        <time>2020-12-29T13:12:24Z</time>
      </trkpt>
      <trkpt lat="47.62721" lon="6.17212">
        <ele>219.2</ele>
        <time>2020-12-29T13:12:25Z</time>
      </trkpt>
      <trkpt lat="47.62714" lon="6.17209">
        <ele>219.1</ele>
        <time>2020-12-29T13:12:28Z</time>
      </trkpt>
      <trkpt lat="47.62708" lon="6.17207">
        <ele>219</ele>
        <time>2020-12-29T13:12:29Z</time>
      </trkpt>
      <trkpt lat="47.62703" lon="6.17206">
        <ele>218.9</ele>
        <time>2020-12-29T13:12:30Z</time>
      </trkpt>
      <trkpt lat="47.62695" lon="6.17203">
        <ele>218.9</ele>
        <time>2020-12-29T13:12:33Z</time>
      </trkpt>
      <trkpt lat="47.62689" lon="6.17201">
        <ele>218.8</ele>
        <time>2020-12-29T13:12:34Z</time>
      </trkpt>
      <trkpt lat="47.62684" lon="6.172">
        <ele>218.8</ele>
        <time>2020-12-29T13:12:35Z</time>
      </trkpt>
      <trkpt lat="47.62676" lon="6.17198">
        <ele>218.7</ele>
        <time>2020-12-29T13:12:38Z</time>
      </trkpt>
      <trkpt lat="47.62668" lon="6.17196">
        <ele>218.7</ele>
        <time>2020-12-29T13:12:40Z</time>
      </trkpt>
      <trkpt lat="47.6266" lon="6.17193">
        <ele>218.7</ele>
        <time>2020-12-29T13:12:42Z</time>
      </trkpt>
      <trkpt lat="47.62652" lon="6.1719">
        <ele>218.7</ele>
        <time>2020-12-29T13:12:44Z</time>
      </trkpt>
      <trkpt lat="47.62644" lon="6.17187">
        <ele>218.8</ele>
        <time>2020-12-29T13:12:46Z</time>
      </trkpt>
      <trkpt lat="47.62638" lon="6.17184">
        <ele>218.8</ele>
        <time>2020-12-29T13:12:47Z</time>
      </trkpt>
      <trkpt lat="47.62632" lon="6.17183">
        <ele>218.8</ele>
        <time>2020-12-29T13:12:49Z</time>
      </trkpt>
      <trkpt lat="47.62625" lon="6.17181">
        <ele>218.8</ele>
        <time>2020-12-29T13:12:50Z</time>
      </trkpt>
      <trkpt lat="47.62619" lon="6.17178">
        <ele>218.9</ele>
        <time>2020-12-29T13:12:52Z</time>
      </trkpt>
      <trkpt lat="47.62613" lon="6.17176">
        <ele>218.9</ele>
        <time>2020-12-29T13:12:54Z</time>
      </trkpt>
      <trkpt lat="47.62607" lon="6.17173">
        <ele>218.9</ele>
        <time>2020-12-29T13:12:55Z</time>
      </trkpt>
      <trkpt lat="47.62602" lon="6.17172">
        <ele>218.9</ele>
        <time>2020-12-29T13:12:56Z</time>
      </trkpt>
      <trkpt lat="47.62597" lon="6.1717">
        <ele>219</ele>
        <time>2020-12-29T13:12:58Z</time>
      </trkpt>
      <trkpt lat="47.62591" lon="6.17168">
        <ele>219</ele>
        <time>2020-12-29T13:12:59Z</time>
      </trkpt>
      <trkpt lat="47.62585" lon="6.17167">
        <ele>219</ele>
        <time>2020-12-29T13:13:01Z</time>
      </trkpt>
      <trkpt lat="47.62577" lon="6.17164">
        <ele>219.1</ele>
        <time>2020-12-29T13:13:03Z</time>
      </trkpt>
      <trkpt lat="47.62569" lon="6.17162">
        <ele>219.3</ele>
        <time>2020-12-29T13:13:05Z</time>
      </trkpt>
      <trkpt lat="47.62562" lon="6.1716">
        <ele>219.5</ele>
        <time>2020-12-29T13:13:06Z</time>
      </trkpt>
      <trkpt lat="47.62554" lon="6.17158">
        <ele>219.7</ele>
        <time>2020-12-29T13:13:08Z</time>
      </trkpt>
      <trkpt lat="47.6255" lon="6.17157">
        <ele>219.9</ele>
        <time>2020-12-29T13:13:09Z</time>
      </trkpt>
      <trkpt lat="47.62545" lon="6.17155">
        <ele>220</ele>
        <time>2020-12-29T13:13:11Z</time>
      </trkpt>
      <trkpt lat="47.62537" lon="6.17152">
        <ele>220.2</ele>
        <time>2020-12-29T13:13:12Z</time>
      </trkpt>
      <trkpt lat="47.62529" lon="6.17148">
        <ele>220.4</ele>
        <time>2020-12-29T13:13:15Z</time>
      </trkpt>
      <trkpt lat="47.62522" lon="6.17146">
        <ele>220.7</ele>
        <time>2020-12-29T13:13:16Z</time>
      </trkpt>
      <trkpt lat="47.62513" lon="6.17143">
        <ele>220.9</ele>
        <time>2020-12-29T13:13:19Z</time>
      </trkpt>
      <trkpt lat="47.62505" lon="6.1714">
        <ele>221.2</ele>
        <time>2020-12-29T13:13:20Z</time>
      </trkpt>
      <trkpt lat="47.62498" lon="6.17138">
        <ele>221.3</ele>
        <time>2020-12-29T13:13:22Z</time>
      </trkpt>
      <trkpt lat="47.62491" lon="6.17136">
        <ele>221.2</ele>
        <time>2020-12-29T13:13:24Z</time>
      </trkpt>
      <trkpt lat="47.62484" lon="6.17134">
        <ele>221</ele>
        <time>2020-12-29T13:13:25Z</time>
      </trkpt>
      <trkpt lat="47.62479" lon="6.17132">
        <ele>220.9</ele>
        <time>2020-12-29T13:13:26Z</time>
      </trkpt>
      <trkpt lat="47.62472" lon="6.1713">
        <ele>220.8</ele>
        <time>2020-12-29T13:13:28Z</time>
      </trkpt>
      <trkpt lat="47.62466" lon="6.17129">
        <ele>220.6</ele>
        <time>2020-12-29T13:13:29Z</time>
      </trkpt>
      <trkpt lat="47.6246" lon="6.17127">
        <ele>220.5</ele>
        <time>2020-12-29T13:13:31Z</time>
      </trkpt>
      <trkpt lat="47.62455" lon="6.17125">
        <ele>220.4</ele>
        <time>2020-12-29T13:13:32Z</time>
      </trkpt>
      <trkpt lat="47.62448" lon="6.17123">
        <ele>220.3</ele>
        <time>2020-12-29T13:13:33Z</time>
      </trkpt>
      <trkpt lat="47.62443" lon="6.17122">
        <ele>220.2</ele>
        <time>2020-12-29T13:13:34Z</time>
      </trkpt>
      <trkpt lat="47.62436" lon="6.1712">
        <ele>220</ele>
        <time>2020-12-29T13:13:36Z</time>
      </trkpt>
      <trkpt lat="47.62432" lon="6.17118">
        <ele>219.9</ele>
        <time>2020-12-29T13:13:37Z</time>
      </trkpt>
      <trkpt lat="47.62427" lon="6.17116">
        <ele>219.8</ele>
        <time>2020-12-29T13:13:38Z</time>
      </trkpt>
      <trkpt lat="47.62421" lon="6.17114">
        <ele>219.7</ele>
        <time>2020-12-29T13:13:40Z</time>
      </trkpt>
      <trkpt lat="47.62413" lon="6.17111">
        <ele>219.6</ele>
        <time>2020-12-29T13:13:42Z</time>
      </trkpt>
      <trkpt lat="47.62405" lon="6.17108">
        <ele>219.5</ele>
        <time>2020-12-29T13:13:44Z</time>
      </trkpt>
      <trkpt lat="47.62397" lon="6.17106">
        <ele>219.4</ele>
        <time>2020-12-29T13:13:46Z</time>
      </trkpt>
      <trkpt lat="47.62389" lon="6.17104">
        <ele>219.3</ele>
        <time>2020-12-29T13:13:48Z</time>
      </trkpt>
      <trkpt lat="47.62381" lon="6.17102">
        <ele>219.2</ele>
        <time>2020-12-29T13:13:49Z</time>
      </trkpt>
      <trkpt lat="47.62373" lon="6.171">
        <ele>219.2</ele>
        <time>2020-12-29T13:13:52Z</time>
      </trkpt>
      <trkpt lat="47.62365" lon="6.17098">
        <ele>219.1</ele>
        <time>2020-12-29T13:13:54Z</time>
      </trkpt>
      <trkpt lat="47.62357" lon="6.17095">
        <ele>219</ele>
        <time>2020-12-29T13:13:56Z</time>
      </trkpt>
      <trkpt lat="47.6235" lon="6.17093">
        <ele>219</ele>
        <time>2020-12-29T13:13:57Z</time>
      </trkpt>
      <trkpt lat="47.62343" lon="6.1709">
        <ele>219</ele>
        <time>2020-12-29T13:14:00Z</time>
      </trkpt>
      <trkpt lat="47.62338" lon="6.17088">
        <ele>218.9</ele>
        <time>2020-12-29T13:14:01Z</time>
      </trkpt>
      <trkpt lat="47.62332" lon="6.17086">
        <ele>218.9</ele>
        <time>2020-12-29T13:14:03Z</time>
      </trkpt>
      <trkpt lat="47.62326" lon="6.17083">
        <ele>218.8</ele>
        <time>2020-12-29T13:14:04Z</time>
      </trkpt>
      <trkpt lat="47.62318" lon="6.17079">
        <ele>218.7</ele>
        <time>2020-12-29T13:14:07Z</time>
      </trkpt>
      <trkpt lat="47.62312" lon="6.17076">
        <ele>218.6</ele>
        <time>2020-12-29T13:14:08Z</time>
      </trkpt>
      <trkpt lat="47.62306" lon="6.17074">
        <ele>218.5</ele>
        <time>2020-12-29T13:14:09Z</time>
      </trkpt>
      <trkpt lat="47.62301" lon="6.17071">
        <ele>218.5</ele>
        <time>2020-12-29T13:14:11Z</time>
      </trkpt>
      <trkpt lat="47.62297" lon="6.17069">
        <ele>218.4</ele>
        <time>2020-12-29T13:14:12Z</time>
      </trkpt>
      <trkpt lat="47.62288" lon="6.17065">
        <ele>218.2</ele>
        <time>2020-12-29T13:14:14Z</time>
      </trkpt>
      <trkpt lat="47.62284" lon="6.17063">
        <ele>218.1</ele>
        <time>2020-12-29T13:14:15Z</time>
      </trkpt>
      <trkpt lat="47.62277" lon="6.1706">
        <ele>218</ele>
        <time>2020-12-29T13:14:16Z</time>
      </trkpt>
      <trkpt lat="47.62271" lon="6.17058">
        <ele>217.9</ele>
        <time>2020-12-29T13:14:18Z</time>
      </trkpt>
      <trkpt lat="47.62265" lon="6.17055">
        <ele>217.8</ele>
        <time>2020-12-29T13:14:19Z</time>
      </trkpt>
      <trkpt lat="47.6226" lon="6.17053">
        <ele>217.6</ele>
        <time>2020-12-29T13:14:21Z</time>
      </trkpt>
      <trkpt lat="47.62253" lon="6.17049">
        <ele>217.5</ele>
        <time>2020-12-29T13:14:23Z</time>
      </trkpt>
      <trkpt lat="47.62248" lon="6.17045">
        <ele>217.5</ele>
        <time>2020-12-29T13:14:24Z</time>
      </trkpt>
      <trkpt lat="47.62241" lon="6.17041">
        <ele>217.5</ele>
        <time>2020-12-29T13:14:27Z</time>
      </trkpt>
      <trkpt lat="47.62236" lon="6.17037">
        <ele>217.6</ele>
        <time>2020-12-29T13:14:29Z</time>
      </trkpt>
      <trkpt lat="47.62231" lon="6.17034">
        <ele>217.6</ele>
        <time>2020-12-29T13:14:31Z</time>
      </trkpt>
      <trkpt lat="47.62224" lon="6.17029">
        <ele>217.7</ele>
        <time>2020-12-29T13:14:34Z</time>
      </trkpt>
      <trkpt lat="47.62219" lon="6.17026">
        <ele>217.7</ele>
        <time>2020-12-29T13:14:36Z</time>
      </trkpt>
      <trkpt lat="47.62214" lon="6.17022">
        <ele>217.7</ele>
        <time>2020-12-29T13:14:38Z</time>
      </trkpt>
      <trkpt lat="47.62209" lon="6.17017">
        <ele>217.8</ele>
        <time>2020-12-29T13:14:39Z</time>
      </trkpt>
      <trkpt lat="47.62204" lon="6.17012">
        <ele>217.9</ele>
        <time>2020-12-29T13:14:42Z</time>
      </trkpt>
      <trkpt lat="47.62199" lon="6.17008">
        <ele>217.9</ele>
        <time>2020-12-29T13:14:43Z</time>
      </trkpt>
      <trkpt lat="47.62193" lon="6.17004">
        <ele>218</ele>
        <time>2020-12-29T13:14:45Z</time>
      </trkpt>
      <trkpt lat="47.62187" lon="6.17">
        <ele>218</ele>
        <time>2020-12-29T13:14:48Z</time>
      </trkpt>
      <trkpt lat="47.62183" lon="6.16995">
        <ele>218</ele>
        <time>2020-12-29T13:14:49Z</time>
      </trkpt>
      <trkpt lat="47.62178" lon="6.16995">
        <ele>218.1</ele>
        <time>2020-12-29T13:14:52Z</time>
      </trkpt>
      <trkpt lat="47.62172" lon="6.16995">
        <ele>218.1</ele>
        <time>2020-12-29T13:14:55Z</time>
      </trkpt>
      <trkpt lat="47.62177" lon="6.16993">
        <ele>218.1</ele>
        <time>2020-12-29T13:15:01Z</time>
      </trkpt>
      <trkpt lat="47.62172" lon="6.16998">
        <ele>218</ele>
        <time>2020-12-29T13:15:12Z</time>
      </trkpt>
      <trkpt lat="47.62169" lon="6.17008">
        <ele>217.9</ele>
        <time>2020-12-29T13:15:13Z</time>
      </trkpt>
      <trkpt lat="47.62167" lon="6.17017">
        <ele>217.8</ele>
        <time>2020-12-29T13:15:15Z</time>
      </trkpt>
      <trkpt lat="47.62165" lon="6.17023">
        <ele>217.7</ele>
        <time>2020-12-29T13:15:16Z</time>
      </trkpt>
      <trkpt lat="47.62164" lon="6.1703">
        <ele>217.7</ele>
        <time>2020-12-29T13:15:18Z</time>
      </trkpt>
      <trkpt lat="47.62163" lon="6.17039">
        <ele>217.6</ele>
        <time>2020-12-29T13:15:19Z</time>
      </trkpt>
      <trkpt lat="47.62162" lon="6.17046">
        <ele>217.5</ele>
        <time>2020-12-29T13:15:20Z</time>
      </trkpt>
      <trkpt lat="47.6216" lon="6.17057">
        <ele>217.4</ele>
        <time>2020-12-29T13:15:22Z</time>
      </trkpt>
      <trkpt lat="47.62158" lon="6.17064">
        <ele>217.3</ele>
        <time>2020-12-29T13:15:24Z</time>
      </trkpt>
      <trkpt lat="47.62157" lon="6.17076">
        <ele>217.1</ele>
        <time>2020-12-29T13:15:25Z</time>
      </trkpt>
      <trkpt lat="47.62154" lon="6.17086">
        <ele>217</ele>
        <time>2020-12-29T13:15:27Z</time>
      </trkpt>
      <trkpt lat="47.62153" lon="6.17093">
        <ele>216.9</ele>
        <time>2020-12-29T13:15:27Z</time>
      </trkpt>
      <trkpt lat="47.62152" lon="6.171">
        <ele>216.8</ele>
        <time>2020-12-29T13:15:28Z</time>
      </trkpt>
      <trkpt lat="47.62151" lon="6.17107">
        <ele>216.7</ele>
        <time>2020-12-29T13:15:29Z</time>
      </trkpt>
      <trkpt lat="47.62148" lon="6.1712">
        <ele>216.5</ele>
        <time>2020-12-29T13:15:31Z</time>
      </trkpt>
      <trkpt lat="47.62144" lon="6.17143">
        <ele>216.1</ele>
        <time>2020-12-29T13:15:33Z</time>
      </trkpt>
      <trkpt lat="47.62143" lon="6.1715">
        <ele>216</ele>
        <time>2020-12-29T13:15:34Z</time>
      </trkpt>
      <trkpt lat="47.62141" lon="6.17158">
        <ele>215.8</ele>
        <time>2020-12-29T13:15:35Z</time>
      </trkpt>
      <trkpt lat="47.6214" lon="6.17164">
        <ele>215.7</ele>
        <time>2020-12-29T13:15:36Z</time>
      </trkpt>
      <trkpt lat="47.62138" lon="6.17176">
        <ele>215.8</ele>
        <time>2020-12-29T13:15:38Z</time>
      </trkpt>
      <trkpt lat="47.62136" lon="6.17187">
        <ele>215.9</ele>
        <time>2020-12-29T13:15:40Z</time>
      </trkpt>
      <trkpt lat="47.62134" lon="6.17195">
        <ele>216</ele>
        <time>2020-12-29T13:15:41Z</time>
      </trkpt>
      <trkpt lat="47.62133" lon="6.17203">
        <ele>216</ele>
        <time>2020-12-29T13:15:42Z</time>
      </trkpt>
      <trkpt lat="47.6213" lon="6.17215">
        <ele>216.1</ele>
        <time>2020-12-29T13:15:44Z</time>
      </trkpt>
      <trkpt lat="47.62128" lon="6.17225">
        <ele>216.2</ele>
        <time>2020-12-29T13:15:46Z</time>
      </trkpt>
      <trkpt lat="47.62128" lon="6.17233">
        <ele>216.3</ele>
        <time>2020-12-29T13:15:48Z</time>
      </trkpt>
      <trkpt lat="47.62126" lon="6.17244">
        <ele>216.4</ele>
        <time>2020-12-29T13:15:50Z</time>
      </trkpt>
      <trkpt lat="47.62122" lon="6.17256">
        <ele>216.5</ele>
        <time>2020-12-29T13:15:52Z</time>
      </trkpt>
      <trkpt lat="47.6212" lon="6.17268">
        <ele>216.5</ele>
        <time>2020-12-29T13:15:54Z</time>
      </trkpt>
      <trkpt lat="47.62118" lon="6.17278">
        <ele>216.6</ele>
        <time>2020-12-29T13:15:55Z</time>
      </trkpt>
      <trkpt lat="47.62116" lon="6.17287">
        <ele>216.6</ele>
        <time>2020-12-29T13:15:57Z</time>
      </trkpt>
      <trkpt lat="47.62114" lon="6.17297">
        <ele>216.6</ele>
        <time>2020-12-29T13:15:59Z</time>
      </trkpt>
      <trkpt lat="47.62112" lon="6.17309">
        <ele>216.6</ele>
        <time>2020-12-29T13:16:01Z</time>
      </trkpt>
      <trkpt lat="47.62111" lon="6.17317">
        <ele>216.6</ele>
        <time>2020-12-29T13:16:02Z</time>
      </trkpt>
      <trkpt lat="47.6211" lon="6.17325">
        <ele>216.6</ele>
        <time>2020-12-29T13:16:03Z</time>
      </trkpt>
      <trkpt lat="47.62109" lon="6.17332">
        <ele>216.6</ele>
        <time>2020-12-29T13:16:04Z</time>
      </trkpt>
      <trkpt lat="47.62108" lon="6.17339">
        <ele>216.6</ele>
        <time>2020-12-29T13:16:05Z</time>
      </trkpt>
      <trkpt lat="47.62108" lon="6.17346">
        <ele>216.6</ele>
        <time>2020-12-29T13:16:07Z</time>
      </trkpt>
      <trkpt lat="47.62107" lon="6.17357">
        <ele>216.6</ele>
        <time>2020-12-29T13:16:08Z</time>
      </trkpt>
      <trkpt lat="47.62107" lon="6.17366">
        <ele>216.6</ele>
        <time>2020-12-29T13:16:09Z</time>
      </trkpt>
      <trkpt lat="47.62106" lon="6.17375">
        <ele>216.6</ele>
        <time>2020-12-29T13:16:11Z</time>
      </trkpt>
      <trkpt lat="47.62106" lon="6.17384">
        <ele>216.5</ele>
        <time>2020-12-29T13:16:12Z</time>
      </trkpt>
      <trkpt lat="47.62106" lon="6.17392">
        <ele>216.5</ele>
        <time>2020-12-29T13:16:13Z</time>
      </trkpt>
      <trkpt lat="47.62105" lon="6.17403">
        <ele>216.5</ele>
        <time>2020-12-29T13:16:15Z</time>
      </trkpt>
      <trkpt lat="47.62105" lon="6.1741">
        <ele>216.5</ele>
        <time>2020-12-29T13:16:16Z</time>
      </trkpt>
      <trkpt lat="47.62104" lon="6.17417">
        <ele>216.5</ele>
        <time>2020-12-29T13:16:18Z</time>
      </trkpt>
      <trkpt lat="47.62104" lon="6.17428">
        <ele>216.7</ele>
        <time>2020-12-29T13:16:20Z</time>
      </trkpt>
      <trkpt lat="47.62104" lon="6.17437">
        <ele>216.8</ele>
        <time>2020-12-29T13:16:21Z</time>
      </trkpt>
      <trkpt lat="47.62104" lon="6.17445">
        <ele>216.9</ele>
        <time>2020-12-29T13:16:22Z</time>
      </trkpt>
      <trkpt lat="47.62104" lon="6.17456">
        <ele>217.1</ele>
        <time>2020-12-29T13:16:24Z</time>
      </trkpt>
      <trkpt lat="47.62103" lon="6.17466">
        <ele>217.2</ele>
        <time>2020-12-29T13:16:26Z</time>
      </trkpt>
      <trkpt lat="47.62103" lon="6.17479">
        <ele>217.4</ele>
        <time>2020-12-29T13:16:28Z</time>
      </trkpt>
      <trkpt lat="47.62103" lon="6.17489">
        <ele>217.6</ele>
        <time>2020-12-29T13:16:30Z</time>
      </trkpt>
      <trkpt lat="47.62102" lon="6.17498">
        <ele>217.7</ele>
        <time>2020-12-29T13:16:31Z</time>
      </trkpt>
      <trkpt lat="47.62101" lon="6.1751">
        <ele>217.5</ele>
        <time>2020-12-29T13:16:33Z</time>
      </trkpt>
      <trkpt lat="47.62101" lon="6.17522">
        <ele>217.3</ele>
        <time>2020-12-29T13:16:35Z</time>
      </trkpt>
      <trkpt lat="47.621" lon="6.17535">
        <ele>217</ele>
        <time>2020-12-29T13:16:37Z</time>
      </trkpt>
      <trkpt lat="47.621" lon="6.17545">
        <ele>216.7</ele>
        <time>2020-12-29T13:16:38Z</time>
      </trkpt>
      <trkpt lat="47.621" lon="6.17555">
        <ele>216.5</ele>
        <time>2020-12-29T13:16:39Z</time>
      </trkpt>
      <trkpt lat="47.62099" lon="6.17562">
        <ele>216.3</ele>
        <time>2020-12-29T13:16:40Z</time>
      </trkpt>
      <trkpt lat="47.62099" lon="6.1757">
        <ele>216.1</ele>
        <time>2020-12-29T13:16:41Z</time>
      </trkpt>
      <trkpt lat="47.62099" lon="6.17577">
        <ele>216</ele>
        <time>2020-12-29T13:16:42Z</time>
      </trkpt>
      <trkpt lat="47.62099" lon="6.17584">
        <ele>215.8</ele>
        <time>2020-12-29T13:16:43Z</time>
      </trkpt>
      <trkpt lat="47.62098" lon="6.17591">
        <ele>215.7</ele>
        <time>2020-12-29T13:16:44Z</time>
      </trkpt>
      <trkpt lat="47.62098" lon="6.17599">
        <ele>215.5</ele>
        <time>2020-12-29T13:16:45Z</time>
      </trkpt>
      <trkpt lat="47.62098" lon="6.17606">
        <ele>215.4</ele>
        <time>2020-12-29T13:16:46Z</time>
      </trkpt>
      <trkpt lat="47.62097" lon="6.17613">
        <ele>215.2</ele>
        <time>2020-12-29T13:16:47Z</time>
      </trkpt>
      <trkpt lat="47.62097" lon="6.1762">
        <ele>215.1</ele>
        <time>2020-12-29T13:16:48Z</time>
      </trkpt>
      <trkpt lat="47.62096" lon="6.17627">
        <ele>215</ele>
        <time>2020-12-29T13:16:49Z</time>
      </trkpt>
      <trkpt lat="47.62095" lon="6.17634">
        <ele>214.8</ele>
        <time>2020-12-29T13:16:50Z</time>
      </trkpt>
      <trkpt lat="47.62095" lon="6.17641">
        <ele>214.7</ele>
        <time>2020-12-29T13:16:51Z</time>
      </trkpt>
      <trkpt lat="47.62094" lon="6.17648">
        <ele>214.5</ele>
        <time>2020-12-29T13:16:52Z</time>
      </trkpt>
      <trkpt lat="47.62093" lon="6.17655">
        <ele>214.4</ele>
        <time>2020-12-29T13:16:53Z</time>
      </trkpt>
      <trkpt lat="47.62093" lon="6.17662">
        <ele>214.2</ele>
        <time>2020-12-29T13:16:54Z</time>
      </trkpt>
      <trkpt lat="47.62092" lon="6.17668">
        <ele>214.1</ele>
        <time>2020-12-29T13:16:55Z</time>
      </trkpt>
      <trkpt lat="47.62091" lon="6.17675">
        <ele>214.3</ele>
        <time>2020-12-29T13:16:56Z</time>
      </trkpt>
      <trkpt lat="47.62091" lon="6.17682">
        <ele>214.4</ele>
        <time>2020-12-29T13:16:57Z</time>
      </trkpt>
      <trkpt lat="47.6209" lon="6.17689">
        <ele>214.6</ele>
        <time>2020-12-29T13:16:58Z</time>
      </trkpt>
      <trkpt lat="47.6209" lon="6.17696">
        <ele>214.7</ele>
        <time>2020-12-29T13:16:59Z</time>
      </trkpt>
      <trkpt lat="47.62089" lon="6.17703">
        <ele>214.9</ele>
        <time>2020-12-29T13:17:00Z</time>
      </trkpt>
      <trkpt lat="47.62089" lon="6.1771">
        <ele>215</ele>
        <time>2020-12-29T13:17:01Z</time>
      </trkpt>
      <trkpt lat="47.62088" lon="6.17723">
        <ele>215.3</ele>
        <time>2020-12-29T13:17:03Z</time>
      </trkpt>
      <trkpt lat="47.62087" lon="6.17735">
        <ele>215.6</ele>
        <time>2020-12-29T13:17:05Z</time>
      </trkpt>
      <trkpt lat="47.62085" lon="6.17748">
        <ele>215.9</ele>
        <time>2020-12-29T13:17:07Z</time>
      </trkpt>
      <trkpt lat="47.62084" lon="6.17761">
        <ele>216</ele>
        <time>2020-12-29T13:17:09Z</time>
      </trkpt>
      <trkpt lat="47.62083" lon="6.17774">
        <ele>216</ele>
        <time>2020-12-29T13:17:11Z</time>
      </trkpt>
      <trkpt lat="47.62082" lon="6.17787">
        <ele>216</ele>
        <time>2020-12-29T13:17:13Z</time>
      </trkpt>
      <trkpt lat="47.62081" lon="6.178">
        <ele>216</ele>
        <time>2020-12-29T13:17:15Z</time>
      </trkpt>
      <trkpt lat="47.6208" lon="6.17813">
        <ele>216</ele>
        <time>2020-12-29T13:17:17Z</time>
      </trkpt>
      <trkpt lat="47.62079" lon="6.17826">
        <ele>216</ele>
        <time>2020-12-29T13:17:19Z</time>
      </trkpt>
      <trkpt lat="47.62077" lon="6.17837">
        <ele>216</ele>
        <time>2020-12-29T13:17:21Z</time>
      </trkpt>
      <trkpt lat="47.62076" lon="6.17843">
        <ele>216</ele>
        <time>2020-12-29T13:17:22Z</time>
      </trkpt>
      <trkpt lat="47.62074" lon="6.17853">
        <ele>216.1</ele>
        <time>2020-12-29T13:17:24Z</time>
      </trkpt>
      <trkpt lat="47.6207" lon="6.17848">
        <ele>216.1</ele>
        <time>2020-12-29T13:17:25Z</time>
      </trkpt>
      <trkpt lat="47.62068" lon="6.17867">
        <ele>216.1</ele>
        <time>2020-12-29T13:17:28Z</time>
      </trkpt>
      <trkpt lat="47.62067" lon="6.17874">
        <ele>216.2</ele>
        <time>2020-12-29T13:17:29Z</time>
      </trkpt>
      <trkpt lat="47.62066" lon="6.17881">
        <ele>216.2</ele>
        <time>2020-12-29T13:17:30Z</time>
      </trkpt>
      <trkpt lat="47.62063" lon="6.17891">
        <ele>216.3</ele>
        <time>2020-12-29T13:17:32Z</time>
      </trkpt>
      <trkpt lat="47.62062" lon="6.17899">
        <ele>216.4</ele>
        <time>2020-12-29T13:17:33Z</time>
      </trkpt>
      <trkpt lat="47.62061" lon="6.17911">
        <ele>216.5</ele>
        <time>2020-12-29T13:17:35Z</time>
      </trkpt>
      <trkpt lat="47.62061" lon="6.17922">
        <ele>216.6</ele>
        <time>2020-12-29T13:17:37Z</time>
      </trkpt>
      <trkpt lat="47.6206" lon="6.1793">
        <ele>216.6</ele>
        <time>2020-12-29T13:17:38Z</time>
      </trkpt>
      <trkpt lat="47.62059" lon="6.17939">
        <ele>216.7</ele>
        <time>2020-12-29T13:17:40Z</time>
      </trkpt>
      <trkpt lat="47.62058" lon="6.17949">
        <ele>216.8</ele>
        <time>2020-12-29T13:17:41Z</time>
      </trkpt>
      <trkpt lat="47.62058" lon="6.17961">
        <ele>216.9</ele>
        <time>2020-12-29T13:17:43Z</time>
      </trkpt>
      <trkpt lat="47.62057" lon="6.17973">
        <ele>217.1</ele>
        <time>2020-12-29T13:17:45Z</time>
      </trkpt>
      <trkpt lat="47.62057" lon="6.1798">
        <ele>217.1</ele>
        <time>2020-12-29T13:17:46Z</time>
      </trkpt>
      <trkpt lat="47.62056" lon="6.1799">
        <ele>217.2</ele>
        <time>2020-12-29T13:17:48Z</time>
      </trkpt>
      <trkpt lat="47.62055" lon="6.17997">
        <ele>217.3</ele>
        <time>2020-12-29T13:17:49Z</time>
      </trkpt>
      <trkpt lat="47.62054" lon="6.18005">
        <ele>217.4</ele>
        <time>2020-12-29T13:17:50Z</time>
      </trkpt>
      <trkpt lat="47.62054" lon="6.18013">
        <ele>217.4</ele>
        <time>2020-12-29T13:17:51Z</time>
      </trkpt>
      <trkpt lat="47.62054" lon="6.18019">
        <ele>217.5</ele>
        <time>2020-12-29T13:17:52Z</time>
      </trkpt>
      <trkpt lat="47.62053" lon="6.18028">
        <ele>217.5</ele>
        <time>2020-12-29T13:17:54Z</time>
      </trkpt>
      <trkpt lat="47.62052" lon="6.18038">
        <ele>217.6</ele>
        <time>2020-12-29T13:17:55Z</time>
      </trkpt>
      <trkpt lat="47.62051" lon="6.18052">
        <ele>217.7</ele>
        <time>2020-12-29T13:17:57Z</time>
      </trkpt>
      <trkpt lat="47.6205" lon="6.18064">
        <ele>217.8</ele>
        <time>2020-12-29T13:17:59Z</time>
      </trkpt>
      <trkpt lat="47.62049" lon="6.18072">
        <ele>217.8</ele>
        <time>2020-12-29T13:18:00Z</time>
      </trkpt>
      <trkpt lat="47.62048" lon="6.18085">
        <ele>217.9</ele>
        <time>2020-12-29T13:18:02Z</time>
      </trkpt>
      <trkpt lat="47.62047" lon="6.18097">
        <ele>218.4</ele>
        <time>2020-12-29T13:18:04Z</time>
      </trkpt>
      <trkpt lat="47.62047" lon="6.18109">
        <ele>218.8</ele>
        <time>2020-12-29T13:18:06Z</time>
      </trkpt>
      <trkpt lat="47.62047" lon="6.18117">
        <ele>219.1</ele>
        <time>2020-12-29T13:18:07Z</time>
      </trkpt>
      <trkpt lat="47.62048" lon="6.1813">
        <ele>219.5</ele>
        <time>2020-12-29T13:18:09Z</time>
      </trkpt>
      <trkpt lat="47.62049" lon="6.1814">
        <ele>219.8</ele>
        <time>2020-12-29T13:18:11Z</time>
      </trkpt>
      <trkpt lat="47.62051" lon="6.18148">
        <ele>220.1</ele>
        <time>2020-12-29T13:18:12Z</time>
      </trkpt>
      <trkpt lat="47.62053" lon="6.18159">
        <ele>220.5</ele>
        <time>2020-12-29T13:18:14Z</time>
      </trkpt>
      <trkpt lat="47.62055" lon="6.18166">
        <ele>220.7</ele>
        <time>2020-12-29T13:18:15Z</time>
      </trkpt>
      <trkpt lat="47.62058" lon="6.18178">
        <ele>220.8</ele>
        <time>2020-12-29T13:18:17Z</time>
      </trkpt>
      <trkpt lat="47.6206" lon="6.18187">
        <ele>221</ele>
        <time>2020-12-29T13:18:19Z</time>
      </trkpt>
      <trkpt lat="47.62062" lon="6.18195">
        <ele>221.1</ele>
        <time>2020-12-29T13:18:20Z</time>
      </trkpt>
      <trkpt lat="47.62063" lon="6.18203">
        <ele>221.3</ele>
        <time>2020-12-29T13:18:21Z</time>
      </trkpt>
      <trkpt lat="47.62064" lon="6.18213">
        <ele>221.4</ele>
        <time>2020-12-29T13:18:23Z</time>
      </trkpt>
      <trkpt lat="47.62066" lon="6.18221">
        <ele>221.6</ele>
        <time>2020-12-29T13:18:24Z</time>
      </trkpt>
      <trkpt lat="47.62067" lon="6.1823">
        <ele>221.8</ele>
        <time>2020-12-29T13:18:25Z</time>
      </trkpt>
      <trkpt lat="47.62069" lon="6.18237">
        <ele>221.9</ele>
        <time>2020-12-29T13:18:26Z</time>
      </trkpt>
      <trkpt lat="47.62072" lon="6.18248">
        <ele>222.1</ele>
        <time>2020-12-29T13:18:28Z</time>
      </trkpt>
      <trkpt lat="47.62074" lon="6.18258">
        <ele>222.2</ele>
        <time>2020-12-29T13:18:30Z</time>
      </trkpt>
      <trkpt lat="47.62077" lon="6.1827">
        <ele>222.3</ele>
        <time>2020-12-29T13:18:32Z</time>
      </trkpt>
      <trkpt lat="47.62079" lon="6.18277">
        <ele>222.4</ele>
        <time>2020-12-29T13:18:34Z</time>
      </trkpt>
      <trkpt lat="47.6208" lon="6.18283">
        <ele>222.4</ele>
        <time>2020-12-29T13:18:35Z</time>
      </trkpt>
      <trkpt lat="47.62082" lon="6.18292">
        <ele>222.5</ele>
        <time>2020-12-29T13:18:37Z</time>
      </trkpt>
      <trkpt lat="47.62084" lon="6.183">
        <ele>222.6</ele>
        <time>2020-12-29T13:18:39Z</time>
      </trkpt>
      <trkpt lat="47.62085" lon="6.18307">
        <ele>222.6</ele>
        <time>2020-12-29T13:18:41Z</time>
      </trkpt>
      <trkpt lat="47.62087" lon="6.18316">
        <ele>222.7</ele>
        <time>2020-12-29T13:18:44Z</time>
      </trkpt>
      <trkpt lat="47.62088" lon="6.18322">
        <ele>222.8</ele>
        <time>2020-12-29T13:18:47Z</time>
      </trkpt>
      <trkpt lat="47.62087" lon="6.18316">
        <ele>222.7</ele>
        <time>2020-12-29T13:18:54Z</time>
      </trkpt>
      <trkpt lat="47.62083" lon="6.18318">
        <ele>222.8</ele>
        <time>2020-12-29T13:19:36Z</time>
      </trkpt>
      <trkpt lat="47.62081" lon="6.18312">
        <ele>222.8</ele>
        <time>2020-12-29T13:20:45Z</time>
      </trkpt>
      <trkpt lat="47.62082" lon="6.1832">
        <ele>222.9</ele>
        <time>2020-12-29T13:21:17Z</time>
      </trkpt>
      <trkpt lat="47.62083" lon="6.18329">
        <ele>223</ele>
        <time>2020-12-29T13:21:19Z</time>
      </trkpt>
      <trkpt lat="47.62083" lon="6.18339">
        <ele>223.1</ele>
        <time>2020-12-29T13:21:22Z</time>
      </trkpt>
      <trkpt lat="47.62086" lon="6.18348">
        <ele>223.2</ele>
        <time>2020-12-29T13:21:24Z</time>
      </trkpt>
      <trkpt lat="47.62088" lon="6.18357">
        <ele>223.2</ele>
        <time>2020-12-29T13:21:26Z</time>
      </trkpt>
      <trkpt lat="47.62091" lon="6.18367">
        <ele>223.3</ele>
        <time>2020-12-29T13:21:28Z</time>
      </trkpt>
      <trkpt lat="47.62093" lon="6.18375">
        <ele>223.4</ele>
        <time>2020-12-29T13:21:30Z</time>
      </trkpt>
      <trkpt lat="47.62095" lon="6.18382">
        <ele>223.5</ele>
        <time>2020-12-29T13:21:32Z</time>
      </trkpt>
      <trkpt lat="47.62096" lon="6.1839">
        <ele>223.6</ele>
        <time>2020-12-29T13:21:34Z</time>
      </trkpt>
      <trkpt lat="47.62098" lon="6.18397">
        <ele>223.7</ele>
        <time>2020-12-29T13:21:36Z</time>
      </trkpt>
      <trkpt lat="47.62102" lon="6.18408">
        <ele>223.9</ele>
        <time>2020-12-29T13:21:39Z</time>
      </trkpt>
      <trkpt lat="47.62105" lon="6.18415">
        <ele>224</ele>
        <time>2020-12-29T13:21:41Z</time>
      </trkpt>
      <trkpt lat="47.62107" lon="6.18422">
        <ele>224.2</ele>
        <time>2020-12-29T13:21:43Z</time>
      </trkpt>
      <trkpt lat="47.62111" lon="6.18426">
        <ele>224.4</ele>
        <time>2020-12-29T13:21:45Z</time>
      </trkpt>
      <trkpt lat="47.62117" lon="6.18427">
        <ele>224.5</ele>
        <time>2020-12-29T13:21:47Z</time>
      </trkpt>
      <trkpt lat="47.62122" lon="6.18427">
        <ele>224.5</ele>
        <time>2020-12-29T13:21:49Z</time>
      </trkpt>
      <trkpt lat="47.62128" lon="6.18428">
        <ele>224.6</ele>
        <time>2020-12-29T13:21:51Z</time>
      </trkpt>
      <trkpt lat="47.62133" lon="6.1843">
        <ele>224.7</ele>
        <time>2020-12-29T13:21:53Z</time>
      </trkpt>
      <trkpt lat="47.62138" lon="6.18435">
        <ele>224.9</ele>
        <time>2020-12-29T13:21:55Z</time>
      </trkpt>
      <trkpt lat="47.62141" lon="6.18442">
        <ele>225.3</ele>
        <time>2020-12-29T13:21:57Z</time>
      </trkpt>
      <trkpt lat="47.62142" lon="6.1845">
        <ele>225.8</ele>
        <time>2020-12-29T13:21:59Z</time>
      </trkpt>
      <trkpt lat="47.62143" lon="6.18459">
        <ele>226.2</ele>
        <time>2020-12-29T13:22:01Z</time>
      </trkpt>
      <trkpt lat="47.62144" lon="6.18466">
        <ele>226.7</ele>
        <time>2020-12-29T13:22:03Z</time>
      </trkpt>
      <trkpt lat="47.62143" lon="6.18473">
        <ele>227</ele>
        <time>2020-12-29T13:22:05Z</time>
      </trkpt>
      <trkpt lat="47.62142" lon="6.1848">
        <ele>227.3</ele>
        <time>2020-12-29T13:22:07Z</time>
      </trkpt>
      <trkpt lat="47.62139" lon="6.18487">
        <ele>227.7</ele>
        <time>2020-12-29T13:22:10Z</time>
      </trkpt>
      <trkpt lat="47.62137" lon="6.18495">
        <ele>228</ele>
        <time>2020-12-29T13:22:13Z</time>
      </trkpt>
      <trkpt lat="47.62136" lon="6.18502">
        <ele>228.4</ele>
        <time>2020-12-29T13:22:16Z</time>
      </trkpt>
      <trkpt lat="47.62136" lon="6.1851">
        <ele>229</ele>
        <time>2020-12-29T13:22:19Z</time>
      </trkpt>
      <trkpt lat="47.62136" lon="6.18518">
        <ele>229.6</ele>
        <time>2020-12-29T13:22:22Z</time>
      </trkpt>
      <trkpt lat="47.62138" lon="6.18524">
        <ele>230.1</ele>
        <time>2020-12-29T13:22:25Z</time>
      </trkpt>
      <trkpt lat="47.62142" lon="6.1853">
        <ele>230.6</ele>
        <time>2020-12-29T13:22:28Z</time>
      </trkpt>
      <trkpt lat="47.62145" lon="6.18536">
        <ele>231.1</ele>
        <time>2020-12-29T13:22:31Z</time>
      </trkpt>
      <trkpt lat="47.62149" lon="6.18542">
        <ele>231.5</ele>
        <time>2020-12-29T13:22:34Z</time>
      </trkpt>
      <trkpt lat="47.62152" lon="6.18547">
        <ele>231.9</ele>
        <time>2020-12-29T13:22:37Z</time>
      </trkpt>
      <trkpt lat="47.62155" lon="6.18553">
        <ele>232.3</ele>
        <time>2020-12-29T13:22:40Z</time>
      </trkpt>
      <trkpt lat="47.62159" lon="6.18559">
        <ele>232.6</ele>
        <time>2020-12-29T13:22:43Z</time>
      </trkpt>
      <trkpt lat="47.62163" lon="6.18565">
        <ele>232.9</ele>
        <time>2020-12-29T13:22:47Z</time>
      </trkpt>
      <trkpt lat="47.62166" lon="6.18572">
        <ele>233.3</ele>
        <time>2020-12-29T13:22:51Z</time>
      </trkpt>
      <trkpt lat="47.62171" lon="6.18577">
        <ele>234</ele>
        <time>2020-12-29T13:22:55Z</time>
      </trkpt>
      <trkpt lat="47.62175" lon="6.18581">
        <ele>234.5</ele>
        <time>2020-12-29T13:22:58Z</time>
      </trkpt>
      <trkpt lat="47.6218" lon="6.18585">
        <ele>235.3</ele>
        <time>2020-12-29T13:23:02Z</time>
      </trkpt>
      <trkpt lat="47.62185" lon="6.18589">
        <ele>236.1</ele>
        <time>2020-12-29T13:23:05Z</time>
      </trkpt>
      <trkpt lat="47.62188" lon="6.18593">
        <ele>236.8</ele>
        <time>2020-12-29T13:23:08Z</time>
      </trkpt>
      <trkpt lat="47.62193" lon="6.18597">
        <ele>237.6</ele>
        <time>2020-12-29T13:23:12Z</time>
      </trkpt>
      <trkpt lat="47.62197" lon="6.18601">
        <ele>238.1</ele>
        <time>2020-12-29T13:23:15Z</time>
      </trkpt>
      <trkpt lat="47.62201" lon="6.18605">
        <ele>238.7</ele>
        <time>2020-12-29T13:23:18Z</time>
      </trkpt>
      <trkpt lat="47.62206" lon="6.1861">
        <ele>239.3</ele>
        <time>2020-12-29T13:23:22Z</time>
      </trkpt>
      <trkpt lat="47.6221" lon="6.18613">
        <ele>239.7</ele>
        <time>2020-12-29T13:23:25Z</time>
      </trkpt>
      <trkpt lat="47.62214" lon="6.18615">
        <ele>240</ele>
        <time>2020-12-29T13:23:28Z</time>
      </trkpt>
      <trkpt lat="47.62219" lon="6.1862">
        <ele>240.4</ele>
        <time>2020-12-29T13:23:32Z</time>
      </trkpt>
      <trkpt lat="47.62223" lon="6.18624">
        <ele>240.6</ele>
        <time>2020-12-29T13:23:37Z</time>
      </trkpt>
      <trkpt lat="47.62228" lon="6.18629">
        <ele>240.9</ele>
        <time>2020-12-29T13:23:42Z</time>
      </trkpt>
      <trkpt lat="47.62232" lon="6.18633">
        <ele>241</ele>
        <time>2020-12-29T13:23:46Z</time>
      </trkpt>
      <trkpt lat="47.62235" lon="6.18638">
        <ele>241.2</ele>
        <time>2020-12-29T13:23:50Z</time>
      </trkpt>
      <trkpt lat="47.6224" lon="6.18641">
        <ele>241.2</ele>
        <time>2020-12-29T13:23:54Z</time>
      </trkpt>
      <trkpt lat="47.62244" lon="6.18645">
        <ele>241.1</ele>
        <time>2020-12-29T13:23:58Z</time>
      </trkpt>
      <trkpt lat="47.62249" lon="6.18649">
        <ele>241</ele>
        <time>2020-12-29T13:24:02Z</time>
      </trkpt>
      <trkpt lat="47.62253" lon="6.18652">
        <ele>241.3</ele>
        <time>2020-12-29T13:24:06Z</time>
      </trkpt>
      <trkpt lat="47.62258" lon="6.18656">
        <ele>241.6</ele>
        <time>2020-12-29T13:24:10Z</time>
      </trkpt>
      <trkpt lat="47.62262" lon="6.1866">
        <ele>241.9</ele>
        <time>2020-12-29T13:24:13Z</time>
      </trkpt>
      <trkpt lat="47.62265" lon="6.18667">
        <ele>242.1</ele>
        <time>2020-12-29T13:24:17Z</time>
      </trkpt>
      <trkpt lat="47.62267" lon="6.18674">
        <ele>242.5</ele>
        <time>2020-12-29T13:24:21Z</time>
      </trkpt>
      <trkpt lat="47.6227" lon="6.18682">
        <ele>243</ele>
        <time>2020-12-29T13:24:25Z</time>
      </trkpt>
      <trkpt lat="47.62273" lon="6.18688">
        <ele>243.4</ele>
        <time>2020-12-29T13:24:29Z</time>
      </trkpt>
      <trkpt lat="47.62275" lon="6.18696">
        <ele>243.8</ele>
        <time>2020-12-29T13:24:33Z</time>
      </trkpt>
      <trkpt lat="47.62277" lon="6.18704">
        <ele>244.2</ele>
        <time>2020-12-29T13:24:38Z</time>
      </trkpt>
      <trkpt lat="47.6228" lon="6.1871">
        <ele>244.5</ele>
        <time>2020-12-29T13:24:42Z</time>
      </trkpt>
      <trkpt lat="47.62281" lon="6.18718">
        <ele>244.8</ele>
        <time>2020-12-29T13:24:46Z</time>
      </trkpt>
      <trkpt lat="47.62285" lon="6.18723">
        <ele>245.1</ele>
        <time>2020-12-29T13:24:50Z</time>
      </trkpt>
      <trkpt lat="47.62289" lon="6.18728">
        <ele>245.4</ele>
        <time>2020-12-29T13:24:54Z</time>
      </trkpt>
      <trkpt lat="47.62291" lon="6.18734">
        <ele>245.6</ele>
        <time>2020-12-29T13:24:58Z</time>
      </trkpt>
      <trkpt lat="47.62296" lon="6.18739">
        <ele>245.9</ele>
        <time>2020-12-29T13:25:03Z</time>
      </trkpt>
      <trkpt lat="47.623" lon="6.18746">
        <ele>246.1</ele>
        <time>2020-12-29T13:25:07Z</time>
      </trkpt>
      <trkpt lat="47.62305" lon="6.18752">
        <ele>246.4</ele>
        <time>2020-12-29T13:25:10Z</time>
      </trkpt>
      <trkpt lat="47.62308" lon="6.18757">
        <ele>246.7</ele>
        <time>2020-12-29T13:25:12Z</time>
      </trkpt>
      <trkpt lat="47.62312" lon="6.18765">
        <ele>247.1</ele>
        <time>2020-12-29T13:25:15Z</time>
      </trkpt>
      <trkpt lat="47.62316" lon="6.18771">
        <ele>247.5</ele>
        <time>2020-12-29T13:25:18Z</time>
      </trkpt>
      <trkpt lat="47.6232" lon="6.18778">
        <ele>247.8</ele>
        <time>2020-12-29T13:25:21Z</time>
      </trkpt>
      <trkpt lat="47.62322" lon="6.18785">
        <ele>248.1</ele>
        <time>2020-12-29T13:25:24Z</time>
      </trkpt>
      <trkpt lat="47.62325" lon="6.18791">
        <ele>248.4</ele>
        <time>2020-12-29T13:25:27Z</time>
      </trkpt>
      <trkpt lat="47.62327" lon="6.18797">
        <ele>248.6</ele>
        <time>2020-12-29T13:25:30Z</time>
      </trkpt>
      <trkpt lat="47.6233" lon="6.18803">
        <ele>248.9</ele>
        <time>2020-12-29T13:25:33Z</time>
      </trkpt>
      <trkpt lat="47.62332" lon="6.1881">
        <ele>249.2</ele>
        <time>2020-12-29T13:25:37Z</time>
      </trkpt>
      <trkpt lat="47.62336" lon="6.18817">
        <ele>249.6</ele>
        <time>2020-12-29T13:25:40Z</time>
      </trkpt>
      <trkpt lat="47.62338" lon="6.18825">
        <ele>250</ele>
        <time>2020-12-29T13:25:44Z</time>
      </trkpt>
      <trkpt lat="47.62341" lon="6.18832">
        <ele>250.4</ele>
        <time>2020-12-29T13:25:48Z</time>
      </trkpt>
      <trkpt lat="47.62343" lon="6.18841">
        <ele>250.9</ele>
        <time>2020-12-29T13:25:52Z</time>
      </trkpt>
      <trkpt lat="47.62347" lon="6.18849">
        <ele>251.4</ele>
        <time>2020-12-29T13:25:56Z</time>
      </trkpt>
      <trkpt lat="47.62349" lon="6.18854">
        <ele>251.8</ele>
        <time>2020-12-29T13:25:59Z</time>
      </trkpt>
      <trkpt lat="47.62351" lon="6.1886">
        <ele>252.1</ele>
        <time>2020-12-29T13:26:02Z</time>
      </trkpt>
      <trkpt lat="47.62353" lon="6.18868">
        <ele>252.4</ele>
        <time>2020-12-29T13:26:06Z</time>
      </trkpt>
      <trkpt lat="47.62355" lon="6.18874">
        <ele>252.8</ele>
        <time>2020-12-29T13:26:10Z</time>
      </trkpt>
      <trkpt lat="47.62359" lon="6.1888">
        <ele>253.1</ele>
        <time>2020-12-29T13:26:14Z</time>
      </trkpt>
      <trkpt lat="47.6236" lon="6.18886">
        <ele>253.3</ele>
        <time>2020-12-29T13:26:18Z</time>
      </trkpt>
      <trkpt lat="47.62363" lon="6.18893">
        <ele>253.6</ele>
        <time>2020-12-29T13:26:23Z</time>
      </trkpt>
      <trkpt lat="47.62365" lon="6.189">
        <ele>253.9</ele>
        <time>2020-12-29T13:26:27Z</time>
      </trkpt>
      <trkpt lat="47.62369" lon="6.18906">
        <ele>254.2</ele>
        <time>2020-12-29T13:26:32Z</time>
      </trkpt>
      <trkpt lat="47.62373" lon="6.18912">
        <ele>254.4</ele>
        <time>2020-12-29T13:26:36Z</time>
      </trkpt>
      <trkpt lat="47.62376" lon="6.18917">
        <ele>254.5</ele>
        <time>2020-12-29T13:26:39Z</time>
      </trkpt>
      <trkpt lat="47.62379" lon="6.18923">
        <ele>254.6</ele>
        <time>2020-12-29T13:26:44Z</time>
      </trkpt>
      <trkpt lat="47.62383" lon="6.18927">
        <ele>254.7</ele>
        <time>2020-12-29T13:26:48Z</time>
      </trkpt>
      <trkpt lat="47.62388" lon="6.18929">
        <ele>254.8</ele>
        <time>2020-12-29T13:26:51Z</time>
      </trkpt>
      <trkpt lat="47.62393" lon="6.18933">
        <ele>254.9</ele>
        <time>2020-12-29T13:26:54Z</time>
      </trkpt>
      <trkpt lat="47.62397" lon="6.18938">
        <ele>254.9</ele>
        <time>2020-12-29T13:26:58Z</time>
      </trkpt>
      <trkpt lat="47.624" lon="6.18943">
        <ele>255</ele>
        <time>2020-12-29T13:27:01Z</time>
      </trkpt>
      <trkpt lat="47.62404" lon="6.18949">
        <ele>255</ele>
        <time>2020-12-29T13:27:05Z</time>
      </trkpt>
      <trkpt lat="47.62407" lon="6.18956">
        <ele>255</ele>
        <time>2020-12-29T13:27:09Z</time>
      </trkpt>
      <trkpt lat="47.6241" lon="6.18961">
        <ele>255</ele>
        <time>2020-12-29T13:27:13Z</time>
      </trkpt>
      <trkpt lat="47.62415" lon="6.18964">
        <ele>255</ele>
        <time>2020-12-29T13:27:17Z</time>
      </trkpt>
      <trkpt lat="47.62421" lon="6.18964">
        <ele>255.1</ele>
        <time>2020-12-29T13:27:21Z</time>
      </trkpt>
      <trkpt lat="47.62426" lon="6.18964">
        <ele>255.1</ele>
        <time>2020-12-29T13:27:25Z</time>
      </trkpt>
      <trkpt lat="47.6243" lon="6.18959">
        <ele>255.2</ele>
        <time>2020-12-29T13:27:29Z</time>
      </trkpt>
      <trkpt lat="47.62435" lon="6.18953">
        <ele>255.4</ele>
        <time>2020-12-29T13:27:34Z</time>
      </trkpt>
      <trkpt lat="47.6244" lon="6.18946">
        <ele>255.5</ele>
        <time>2020-12-29T13:27:38Z</time>
      </trkpt>
      <trkpt lat="47.62443" lon="6.1894">
        <ele>255.7</ele>
        <time>2020-12-29T13:27:41Z</time>
      </trkpt>
      <trkpt lat="47.62447" lon="6.18934">
        <ele>255.9</ele>
        <time>2020-12-29T13:27:45Z</time>
      </trkpt>
      <trkpt lat="47.62452" lon="6.18928">
        <ele>256.1</ele>
        <time>2020-12-29T13:27:49Z</time>
      </trkpt>
      <trkpt lat="47.62456" lon="6.18923">
        <ele>256.3</ele>
        <time>2020-12-29T13:27:53Z</time>
      </trkpt>
      <trkpt lat="47.6246" lon="6.18919">
        <ele>256.5</ele>
        <time>2020-12-29T13:27:57Z</time>
      </trkpt>
      <trkpt lat="47.62463" lon="6.18914">
        <ele>256.7</ele>
        <time>2020-12-29T13:28:01Z</time>
      </trkpt>
      <trkpt lat="47.62467" lon="6.1891">
        <ele>256.9</ele>
        <time>2020-12-29T13:28:05Z</time>
      </trkpt>
      <trkpt lat="47.62471" lon="6.18905">
        <ele>257.1</ele>
        <time>2020-12-29T13:28:09Z</time>
      </trkpt>
      <trkpt lat="47.62474" lon="6.18899">
        <ele>257.3</ele>
        <time>2020-12-29T13:28:13Z</time>
      </trkpt>
      <trkpt lat="47.62478" lon="6.18895">
        <ele>257.6</ele>
        <time>2020-12-29T13:28:17Z</time>
      </trkpt>
      <trkpt lat="47.62484" lon="6.18893">
        <ele>257.9</ele>
        <time>2020-12-29T13:28:22Z</time>
      </trkpt>
      <trkpt lat="47.62488" lon="6.18891">
        <ele>258.1</ele>
        <time>2020-12-29T13:28:25Z</time>
      </trkpt>
      <trkpt lat="47.62493" lon="6.18892">
        <ele>258.3</ele>
        <time>2020-12-29T13:28:29Z</time>
      </trkpt>
      <trkpt lat="47.62499" lon="6.18893">
        <ele>258.5</ele>
        <time>2020-12-29T13:28:32Z</time>
      </trkpt>
      <trkpt lat="47.62504" lon="6.18895">
        <ele>258.8</ele>
        <time>2020-12-29T13:28:36Z</time>
      </trkpt>
      <trkpt lat="47.62508" lon="6.18895">
        <ele>259</ele>
        <time>2020-12-29T13:28:39Z</time>
      </trkpt>
      <trkpt lat="47.62514" lon="6.18897">
        <ele>259.3</ele>
        <time>2020-12-29T13:28:43Z</time>
      </trkpt>
      <trkpt lat="47.62519" lon="6.18898">
        <ele>259.6</ele>
        <time>2020-12-29T13:28:47Z</time>
      </trkpt>
      <trkpt lat="47.62525" lon="6.18898">
        <ele>260</ele>
        <time>2020-12-29T13:28:52Z</time>
      </trkpt>
      <trkpt lat="47.62532" lon="6.18898">
        <ele>260.4</ele>
        <time>2020-12-29T13:28:56Z</time>
      </trkpt>
      <trkpt lat="47.62537" lon="6.18898">
        <ele>260.7</ele>
        <time>2020-12-29T13:29:01Z</time>
      </trkpt>
      <trkpt lat="47.62542" lon="6.189">
        <ele>260.9</ele>
        <time>2020-12-29T13:29:05Z</time>
      </trkpt>
      <trkpt lat="47.62548" lon="6.18901">
        <ele>261.2</ele>
        <time>2020-12-29T13:29:09Z</time>
      </trkpt>
      <trkpt lat="47.62553" lon="6.18902">
        <ele>261.5</ele>
        <time>2020-12-29T13:29:14Z</time>
      </trkpt>
      <trkpt lat="47.62557" lon="6.18902">
        <ele>261.8</ele>
        <time>2020-12-29T13:29:16Z</time>
      </trkpt>
      <trkpt lat="47.62562" lon="6.18904">
        <ele>262</ele>
        <time>2020-12-29T13:29:20Z</time>
      </trkpt>
      <trkpt lat="47.62567" lon="6.18903">
        <ele>262.3</ele>
        <time>2020-12-29T13:29:24Z</time>
      </trkpt>
      <trkpt lat="47.62572" lon="6.18905">
        <ele>262.6</ele>
        <time>2020-12-29T13:29:29Z</time>
      </trkpt>
      <trkpt lat="47.62577" lon="6.18905">
        <ele>262.9</ele>
        <time>2020-12-29T13:29:33Z</time>
      </trkpt>
      <trkpt lat="47.62583" lon="6.18907">
        <ele>263.2</ele>
        <time>2020-12-29T13:29:37Z</time>
      </trkpt>
      <trkpt lat="47.62587" lon="6.1891">
        <ele>263.5</ele>
        <time>2020-12-29T13:29:42Z</time>
      </trkpt>
      <trkpt lat="47.62592" lon="6.18914">
        <ele>263.8</ele>
        <time>2020-12-29T13:29:45Z</time>
      </trkpt>
      <trkpt lat="47.62596" lon="6.18917">
        <ele>264.1</ele>
        <time>2020-12-29T13:29:49Z</time>
      </trkpt>
      <trkpt lat="47.62602" lon="6.18921">
        <ele>264.4</ele>
        <time>2020-12-29T13:29:53Z</time>
      </trkpt>
      <trkpt lat="47.62607" lon="6.18924">
        <ele>264.7</ele>
        <time>2020-12-29T13:29:57Z</time>
      </trkpt>
      <trkpt lat="47.62612" lon="6.18924">
        <ele>265.2</ele>
        <time>2020-12-29T13:30:00Z</time>
      </trkpt>
      <trkpt lat="47.62618" lon="6.18926">
        <ele>265.5</ele>
        <time>2020-12-29T13:30:05Z</time>
      </trkpt>
      <trkpt lat="47.62622" lon="6.18927">
        <ele>265.9</ele>
        <time>2020-12-29T13:30:09Z</time>
      </trkpt>
      <trkpt lat="47.62628" lon="6.18928">
        <ele>266.3</ele>
        <time>2020-12-29T13:30:13Z</time>
      </trkpt>
      <trkpt lat="47.62633" lon="6.18931">
        <ele>266.7</ele>
        <time>2020-12-29T13:30:17Z</time>
      </trkpt>
      <trkpt lat="47.62638" lon="6.18931">
        <ele>267.1</ele>
        <time>2020-12-29T13:30:21Z</time>
      </trkpt>
      <trkpt lat="47.62644" lon="6.18932">
        <ele>267.5</ele>
        <time>2020-12-29T13:30:25Z</time>
      </trkpt>
      <trkpt lat="47.62648" lon="6.18933">
        <ele>267.9</ele>
        <time>2020-12-29T13:30:27Z</time>
      </trkpt>
      <trkpt lat="47.62654" lon="6.18933">
        <ele>268.3</ele>
        <time>2020-12-29T13:30:31Z</time>
      </trkpt>
      <trkpt lat="47.62658" lon="6.18933">
        <ele>268.7</ele>
        <time>2020-12-29T13:30:34Z</time>
      </trkpt>
      <trkpt lat="47.62664" lon="6.18934">
        <ele>269.1</ele>
        <time>2020-12-29T13:30:38Z</time>
      </trkpt>
      <trkpt lat="47.62669" lon="6.18935">
        <ele>269.5</ele>
        <time>2020-12-29T13:30:41Z</time>
      </trkpt>
      <trkpt lat="47.62675" lon="6.18935">
        <ele>269.9</ele>
        <time>2020-12-29T13:30:44Z</time>
      </trkpt>
      <trkpt lat="47.62681" lon="6.18936">
        <ele>270.3</ele>
        <time>2020-12-29T13:30:47Z</time>
      </trkpt>
      <trkpt lat="47.62686" lon="6.18938">
        <ele>270.6</ele>
        <time>2020-12-29T13:30:50Z</time>
      </trkpt>
      <trkpt lat="47.62691" lon="6.18938">
        <ele>270.9</ele>
        <time>2020-12-29T13:30:53Z</time>
      </trkpt>
      <trkpt lat="47.62695" lon="6.18939">
        <ele>271.2</ele>
        <time>2020-12-29T13:30:55Z</time>
      </trkpt>
      <trkpt lat="47.627" lon="6.18941">
        <ele>271.4</ele>
        <time>2020-12-29T13:30:58Z</time>
      </trkpt>
      <trkpt lat="47.62705" lon="6.18942">
        <ele>271.7</ele>
        <time>2020-12-29T13:31:01Z</time>
      </trkpt>
      <trkpt lat="47.6271" lon="6.18944">
        <ele>271.9</ele>
        <time>2020-12-29T13:31:05Z</time>
      </trkpt>
      <trkpt lat="47.62715" lon="6.18945">
        <ele>272.3</ele>
        <time>2020-12-29T13:31:08Z</time>
      </trkpt>
      <trkpt lat="47.62721" lon="6.18947">
        <ele>272.6</ele>
        <time>2020-12-29T13:31:11Z</time>
      </trkpt>
      <trkpt lat="47.62726" lon="6.18949">
        <ele>272.8</ele>
        <time>2020-12-29T13:31:14Z</time>
      </trkpt>
      <trkpt lat="47.62732" lon="6.18951">
        <ele>273.1</ele>
        <time>2020-12-29T13:31:17Z</time>
      </trkpt>
      <trkpt lat="47.62736" lon="6.18953">
        <ele>273.4</ele>
        <time>2020-12-29T13:31:20Z</time>
      </trkpt>
      <trkpt lat="47.62742" lon="6.18954">
        <ele>273.6</ele>
        <time>2020-12-29T13:31:23Z</time>
      </trkpt>
      <trkpt lat="47.62747" lon="6.18956">
        <ele>273.9</ele>
        <time>2020-12-29T13:31:26Z</time>
      </trkpt>
      <trkpt lat="47.62753" lon="6.18958">
        <ele>274.3</ele>
        <time>2020-12-29T13:31:29Z</time>
      </trkpt>
      <trkpt lat="47.62758" lon="6.18959">
        <ele>274.6</ele>
        <time>2020-12-29T13:31:32Z</time>
      </trkpt>
      <trkpt lat="47.62763" lon="6.1896">
        <ele>275</ele>
        <time>2020-12-29T13:31:35Z</time>
      </trkpt>
      <trkpt lat="47.62769" lon="6.18961">
        <ele>275.3</ele>
        <time>2020-12-29T13:31:38Z</time>
      </trkpt>
      <trkpt lat="47.62775" lon="6.18964">
        <ele>275.7</ele>
        <time>2020-12-29T13:31:41Z</time>
      </trkpt>
      <trkpt lat="47.6278" lon="6.18964">
        <ele>276</ele>
        <time>2020-12-29T13:31:43Z</time>
      </trkpt>
      <trkpt lat="47.62784" lon="6.18962">
        <ele>276.5</ele>
        <time>2020-12-29T13:31:47Z</time>
      </trkpt>
      <trkpt lat="47.62788" lon="6.18968">
        <ele>276.4</ele>
        <time>2020-12-29T13:31:50Z</time>
      </trkpt>
      <trkpt lat="47.62791" lon="6.18972">
        <ele>276.5</ele>
        <time>2020-12-29T13:31:54Z</time>
      </trkpt>
      <trkpt lat="47.62797" lon="6.18975">
        <ele>276.7</ele>
        <time>2020-12-29T13:31:58Z</time>
      </trkpt>
      <trkpt lat="47.62802" lon="6.18977">
        <ele>277</ele>
        <time>2020-12-29T13:32:01Z</time>
      </trkpt>
      <trkpt lat="47.62807" lon="6.18978">
        <ele>277.3</ele>
        <time>2020-12-29T13:32:05Z</time>
      </trkpt>
      <trkpt lat="47.62812" lon="6.18979">
        <ele>277.7</ele>
        <time>2020-12-29T13:32:10Z</time>
      </trkpt>
      <trkpt lat="47.62815" lon="6.18984">
        <ele>277.6</ele>
        <time>2020-12-29T13:32:14Z</time>
      </trkpt>
      <trkpt lat="47.6282" lon="6.18987">
        <ele>277.8</ele>
        <time>2020-12-29T13:32:19Z</time>
      </trkpt>
      <trkpt lat="47.62825" lon="6.18989">
        <ele>278</ele>
        <time>2020-12-29T13:32:22Z</time>
      </trkpt>
      <trkpt lat="47.62828" lon="6.18993">
        <ele>278</ele>
        <time>2020-12-29T13:32:25Z</time>
      </trkpt>
      <trkpt lat="47.62833" lon="6.18997">
        <ele>278.2</ele>
        <time>2020-12-29T13:32:28Z</time>
      </trkpt>
      <trkpt lat="47.62838" lon="6.18997">
        <ele>278.8</ele>
        <time>2020-12-29T13:32:32Z</time>
      </trkpt>
      <trkpt lat="47.62841" lon="6.19007">
        <ele>278.7</ele>
        <time>2020-12-29T13:32:37Z</time>
      </trkpt>
      <trkpt lat="47.62846" lon="6.19011">
        <ele>279.1</ele>
        <time>2020-12-29T13:32:42Z</time>
      </trkpt>
      <trkpt lat="47.62851" lon="6.19011">
        <ele>279.7</ele>
        <time>2020-12-29T13:32:45Z</time>
      </trkpt>
      <trkpt lat="47.62855" lon="6.19016">
        <ele>280</ele>
        <time>2020-12-29T13:32:49Z</time>
      </trkpt>
      <trkpt lat="47.62858" lon="6.1902">
        <ele>280.2</ele>
        <time>2020-12-29T13:32:53Z</time>
      </trkpt>
      <trkpt lat="47.62864" lon="6.19024">
        <ele>280.9</ele>
        <time>2020-12-29T13:32:57Z</time>
      </trkpt>
      <trkpt lat="47.6287" lon="6.19027">
        <ele>281.4</ele>
        <time>2020-12-29T13:33:01Z</time>
      </trkpt>
      <trkpt lat="47.62874" lon="6.19031">
        <ele>281.8</ele>
        <time>2020-12-29T13:33:05Z</time>
      </trkpt>
      <trkpt lat="47.62879" lon="6.19036">
        <ele>282.2</ele>
        <time>2020-12-29T13:33:08Z</time>
      </trkpt>
      <trkpt lat="47.62883" lon="6.19039">
        <ele>282.5</ele>
        <time>2020-12-29T13:33:10Z</time>
      </trkpt>
      <trkpt lat="47.62887" lon="6.19043">
        <ele>282.9</ele>
        <time>2020-12-29T13:33:13Z</time>
      </trkpt>
      <trkpt lat="47.62891" lon="6.19047">
        <ele>283.3</ele>
        <time>2020-12-29T13:33:16Z</time>
      </trkpt>
      <trkpt lat="47.62895" lon="6.19052">
        <ele>283.5</ele>
        <time>2020-12-29T13:33:19Z</time>
      </trkpt>
      <trkpt lat="47.629" lon="6.19058">
        <ele>283.9</ele>
        <time>2020-12-29T13:33:24Z</time>
      </trkpt>
      <trkpt lat="47.62904" lon="6.19062">
        <ele>284.3</ele>
        <time>2020-12-29T13:33:28Z</time>
      </trkpt>
      <trkpt lat="47.62908" lon="6.19069">
        <ele>284.5</ele>
        <time>2020-12-29T13:33:32Z</time>
      </trkpt>
      <trkpt lat="47.6291" lon="6.19076">
        <ele>284.4</ele>
        <time>2020-12-29T13:33:36Z</time>
      </trkpt>
      <trkpt lat="47.62912" lon="6.19083">
        <ele>284.5</ele>
        <time>2020-12-29T13:33:40Z</time>
      </trkpt>
      <trkpt lat="47.62917" lon="6.19087">
        <ele>284.9</ele>
        <time>2020-12-29T13:33:42Z</time>
      </trkpt>
      <trkpt lat="47.6292" lon="6.19093">
        <ele>284.8</ele>
        <time>2020-12-29T13:33:46Z</time>
      </trkpt>
      <trkpt lat="47.62921" lon="6.191">
        <ele>284.7</ele>
        <time>2020-12-29T13:33:50Z</time>
      </trkpt>
      <trkpt lat="47.62924" lon="6.19105">
        <ele>284.7</ele>
        <time>2020-12-29T13:33:53Z</time>
      </trkpt>
      <trkpt lat="47.62928" lon="6.1911">
        <ele>284.7</ele>
        <time>2020-12-29T13:33:56Z</time>
      </trkpt>
      <trkpt lat="47.62932" lon="6.19114">
        <ele>284.8</ele>
        <time>2020-12-29T13:33:58Z</time>
      </trkpt>
      <trkpt lat="47.62937" lon="6.19121">
        <ele>284.8</ele>
        <time>2020-12-29T13:34:02Z</time>
      </trkpt>
      <trkpt lat="47.62943" lon="6.19127">
        <ele>285</ele>
        <time>2020-12-29T13:34:05Z</time>
      </trkpt>
      <trkpt lat="47.62947" lon="6.1913">
        <ele>285.1</ele>
        <time>2020-12-29T13:34:08Z</time>
      </trkpt>
      <trkpt lat="47.6295" lon="6.19137">
        <ele>285</ele>
        <time>2020-12-29T13:34:11Z</time>
      </trkpt>
      <trkpt lat="47.62954" lon="6.1914">
        <ele>285.2</ele>
        <time>2020-12-29T13:34:13Z</time>
      </trkpt>
      <trkpt lat="47.62958" lon="6.19143">
        <ele>285.3</ele>
        <time>2020-12-29T13:34:15Z</time>
      </trkpt>
      <trkpt lat="47.62962" lon="6.19148">
        <ele>285.4</ele>
        <time>2020-12-29T13:34:18Z</time>
      </trkpt>
      <trkpt lat="47.62966" lon="6.19152">
        <ele>285.4</ele>
        <time>2020-12-29T13:34:21Z</time>
      </trkpt>
      <trkpt lat="47.62969" lon="6.19158">
        <ele>285.5</ele>
        <time>2020-12-29T13:34:23Z</time>
      </trkpt>
      <trkpt lat="47.62973" lon="6.19163">
        <ele>285.5</ele>
        <time>2020-12-29T13:34:26Z</time>
      </trkpt>
      <trkpt lat="47.62977" lon="6.19168">
        <ele>285.6</ele>
        <time>2020-12-29T13:34:29Z</time>
      </trkpt>
      <trkpt lat="47.62981" lon="6.19172">
        <ele>285.8</ele>
        <time>2020-12-29T13:34:31Z</time>
      </trkpt>
      <trkpt lat="47.62986" lon="6.19176">
        <ele>286.1</ele>
        <time>2020-12-29T13:34:34Z</time>
      </trkpt>
      <trkpt lat="47.62991" lon="6.1918">
        <ele>286.4</ele>
        <time>2020-12-29T13:34:37Z</time>
      </trkpt>
      <trkpt lat="47.62995" lon="6.19183">
        <ele>286.7</ele>
        <time>2020-12-29T13:34:39Z</time>
      </trkpt>
      <trkpt lat="47.63001" lon="6.19186">
        <ele>287</ele>
        <time>2020-12-29T13:34:42Z</time>
      </trkpt>
      <trkpt lat="47.63005" lon="6.1919">
        <ele>287.4</ele>
        <time>2020-12-29T13:34:45Z</time>
      </trkpt>
      <trkpt lat="47.6301" lon="6.19194">
        <ele>287.7</ele>
        <time>2020-12-29T13:34:47Z</time>
      </trkpt>
      <trkpt lat="47.63015" lon="6.19198">
        <ele>288</ele>
        <time>2020-12-29T13:34:49Z</time>
      </trkpt>
      <trkpt lat="47.63021" lon="6.19201">
        <ele>288.4</ele>
        <time>2020-12-29T13:34:52Z</time>
      </trkpt>
      <trkpt lat="47.63026" lon="6.19204">
        <ele>288.7</ele>
        <time>2020-12-29T13:34:55Z</time>
      </trkpt>
      <trkpt lat="47.6303" lon="6.19207">
        <ele>289</ele>
        <time>2020-12-29T13:34:57Z</time>
      </trkpt>
      <trkpt lat="47.63036" lon="6.19209">
        <ele>289.3</ele>
        <time>2020-12-29T13:35:01Z</time>
      </trkpt>
      <trkpt lat="47.63041" lon="6.19211">
        <ele>289.7</ele>
        <time>2020-12-29T13:35:04Z</time>
      </trkpt>
      <trkpt lat="47.63046" lon="6.19214">
        <ele>290</ele>
        <time>2020-12-29T13:35:08Z</time>
      </trkpt>
      <trkpt lat="47.63051" lon="6.19215">
        <ele>290.3</ele>
        <time>2020-12-29T13:35:11Z</time>
      </trkpt>
      <trkpt lat="47.63057" lon="6.19216">
        <ele>290.7</ele>
        <time>2020-12-29T13:35:15Z</time>
      </trkpt>
      <trkpt lat="47.63062" lon="6.19219">
        <ele>291</ele>
        <time>2020-12-29T13:35:18Z</time>
      </trkpt>
      <trkpt lat="47.63066" lon="6.19222">
        <ele>291.3</ele>
        <time>2020-12-29T13:35:21Z</time>
      </trkpt>
      <trkpt lat="47.63071" lon="6.19224">
        <ele>291.5</ele>
        <time>2020-12-29T13:35:24Z</time>
      </trkpt>
      <trkpt lat="47.63077" lon="6.19227">
        <ele>291.9</ele>
        <time>2020-12-29T13:35:28Z</time>
      </trkpt>
      <trkpt lat="47.63082" lon="6.19229">
        <ele>292.2</ele>
        <time>2020-12-29T13:35:31Z</time>
      </trkpt>
      <trkpt lat="47.63086" lon="6.19232">
        <ele>292.5</ele>
        <time>2020-12-29T13:35:35Z</time>
      </trkpt>
      <trkpt lat="47.63091" lon="6.19234">
        <ele>292.8</ele>
        <time>2020-12-29T13:35:39Z</time>
      </trkpt>
      <trkpt lat="47.63097" lon="6.19236">
        <ele>293.3</ele>
        <time>2020-12-29T13:35:45Z</time>
      </trkpt>
      <trkpt lat="47.63102" lon="6.19238">
        <ele>293.7</ele>
        <time>2020-12-29T13:35:50Z</time>
      </trkpt>
      <trkpt lat="47.63107" lon="6.19239">
        <ele>294.1</ele>
        <time>2020-12-29T13:35:54Z</time>
      </trkpt>
      <trkpt lat="47.63113" lon="6.19239">
        <ele>294.6</ele>
        <time>2020-12-29T13:35:58Z</time>
      </trkpt>
      <trkpt lat="47.63117" lon="6.1924">
        <ele>294.9</ele>
        <time>2020-12-29T13:36:01Z</time>
      </trkpt>
      <trkpt lat="47.63124" lon="6.19242">
        <ele>295.5</ele>
        <time>2020-12-29T13:36:05Z</time>
      </trkpt>
      <trkpt lat="47.6313" lon="6.19243">
        <ele>296</ele>
        <time>2020-12-29T13:36:11Z</time>
      </trkpt>
      <trkpt lat="47.63137" lon="6.19244">
        <ele>296.5</ele>
        <time>2020-12-29T13:36:15Z</time>
      </trkpt>
      <trkpt lat="47.63142" lon="6.19246">
        <ele>297</ele>
        <time>2020-12-29T13:36:21Z</time>
      </trkpt>
      <trkpt lat="47.63148" lon="6.19248">
        <ele>297.4</ele>
        <time>2020-12-29T13:36:25Z</time>
      </trkpt>
      <trkpt lat="47.63152" lon="6.19249">
        <ele>297.8</ele>
        <time>2020-12-29T13:36:30Z</time>
      </trkpt>
      <trkpt lat="47.63157" lon="6.1925">
        <ele>298.2</ele>
        <time>2020-12-29T13:36:34Z</time>
      </trkpt>
      <trkpt lat="47.63162" lon="6.19252">
        <ele>298.6</ele>
        <time>2020-12-29T13:36:38Z</time>
      </trkpt>
      <trkpt lat="47.63166" lon="6.19254">
        <ele>299</ele>
        <time>2020-12-29T13:36:43Z</time>
      </trkpt>
      <trkpt lat="47.63171" lon="6.19257">
        <ele>299.7</ele>
        <time>2020-12-29T13:36:47Z</time>
      </trkpt>
      <trkpt lat="47.63175" lon="6.1926">
        <ele>300.3</ele>
        <time>2020-12-29T13:36:51Z</time>
      </trkpt>
      <trkpt lat="47.63181" lon="6.19264">
        <ele>301.2</ele>
        <time>2020-12-29T13:36:55Z</time>
      </trkpt>
      <trkpt lat="47.63185" lon="6.19269">
        <ele>301.7</ele>
        <time>2020-12-29T13:37:00Z</time>
      </trkpt>
      <trkpt lat="47.63192" lon="6.19273">
        <ele>302.6</ele>
        <time>2020-12-29T13:37:05Z</time>
      </trkpt>
      <trkpt lat="47.63193" lon="6.1928">
        <ele>302.8</ele>
        <time>2020-12-29T13:37:10Z</time>
      </trkpt>
      <trkpt lat="47.63194" lon="6.19288">
        <ele>302.9</ele>
        <time>2020-12-29T13:37:14Z</time>
      </trkpt>
      <trkpt lat="47.63194" lon="6.19295">
        <ele>302.9</ele>
        <time>2020-12-29T13:37:18Z</time>
      </trkpt>
      <trkpt lat="47.63196" lon="6.19302">
        <ele>303.2</ele>
        <time>2020-12-29T13:37:22Z</time>
      </trkpt>
      <trkpt lat="47.632" lon="6.19307">
        <ele>303.7</ele>
        <time>2020-12-29T13:37:26Z</time>
      </trkpt>
      <trkpt lat="47.63204" lon="6.19312">
        <ele>304.1</ele>
        <time>2020-12-29T13:37:30Z</time>
      </trkpt>
      <trkpt lat="47.63207" lon="6.19318">
        <ele>304.4</ele>
        <time>2020-12-29T13:37:34Z</time>
      </trkpt>
      <trkpt lat="47.63211" lon="6.19322">
        <ele>304.8</ele>
        <time>2020-12-29T13:37:37Z</time>
      </trkpt>
      <trkpt lat="47.63214" lon="6.19327">
        <ele>305.1</ele>
        <time>2020-12-29T13:37:41Z</time>
      </trkpt>
      <trkpt lat="47.63218" lon="6.19333">
        <ele>305.6</ele>
        <time>2020-12-29T13:37:46Z</time>
      </trkpt>
      <trkpt lat="47.6322" lon="6.19342">
        <ele>305.8</ele>
        <time>2020-12-29T13:37:50Z</time>
      </trkpt>
      <trkpt lat="47.63222" lon="6.19349">
        <ele>306</ele>
        <time>2020-12-29T13:37:54Z</time>
      </trkpt>
      <trkpt lat="47.63225" lon="6.19354">
        <ele>306.4</ele>
        <time>2020-12-29T13:37:58Z</time>
      </trkpt>
      <trkpt lat="47.63226" lon="6.19362">
        <ele>306.6</ele>
        <time>2020-12-29T13:38:04Z</time>
      </trkpt>
      <trkpt lat="47.63229" lon="6.19368">
        <ele>306.9</ele>
        <time>2020-12-29T13:38:08Z</time>
      </trkpt>
      <trkpt lat="47.63232" lon="6.19375">
        <ele>307.1</ele>
        <time>2020-12-29T13:38:13Z</time>
      </trkpt>
      <trkpt lat="47.63235" lon="6.19381">
        <ele>307.4</ele>
        <time>2020-12-29T13:38:17Z</time>
      </trkpt>
      <trkpt lat="47.63237" lon="6.19387">
        <ele>307.7</ele>
        <time>2020-12-29T13:38:21Z</time>
      </trkpt>
      <trkpt lat="47.63241" lon="6.19394">
        <ele>308.1</ele>
        <time>2020-12-29T13:38:26Z</time>
      </trkpt>
      <trkpt lat="47.63241" lon="6.19402">
        <ele>308.1</ele>
        <time>2020-12-29T13:38:31Z</time>
      </trkpt>
      <trkpt lat="47.63244" lon="6.1941">
        <ele>308.4</ele>
        <time>2020-12-29T13:38:35Z</time>
      </trkpt>
      <trkpt lat="47.63245" lon="6.19417">
        <ele>308.6</ele>
        <time>2020-12-29T13:38:39Z</time>
      </trkpt>
      <trkpt lat="47.63249" lon="6.19424">
        <ele>308.9</ele>
        <time>2020-12-29T13:38:42Z</time>
      </trkpt>
      <trkpt lat="47.63251" lon="6.19431">
        <ele>309.3</ele>
        <time>2020-12-29T13:38:45Z</time>
      </trkpt>
      <trkpt lat="47.63256" lon="6.19433">
        <ele>309.9</ele>
        <time>2020-12-29T13:38:50Z</time>
      </trkpt>
      <trkpt lat="47.63259" lon="6.19439">
        <ele>310.3</ele>
        <time>2020-12-29T13:38:54Z</time>
      </trkpt>
      <trkpt lat="47.63261" lon="6.19447">
        <ele>310.6</ele>
        <time>2020-12-29T13:38:59Z</time>
      </trkpt>
      <trkpt lat="47.63264" lon="6.19454">
        <ele>311.1</ele>
        <time>2020-12-29T13:39:03Z</time>
      </trkpt>
      <trkpt lat="47.63266" lon="6.19461">
        <ele>311.4</ele>
        <time>2020-12-29T13:39:08Z</time>
      </trkpt>
      <trkpt lat="47.63269" lon="6.19468">
        <ele>311.7</ele>
        <time>2020-12-29T13:39:12Z</time>
      </trkpt>
      <trkpt lat="47.63272" lon="6.19474">
        <ele>312.1</ele>
        <time>2020-12-29T13:39:16Z</time>
      </trkpt>
      <trkpt lat="47.63275" lon="6.19481">
        <ele>312.6</ele>
        <time>2020-12-29T13:39:21Z</time>
      </trkpt>
      <trkpt lat="47.6328" lon="6.19489">
        <ele>313.1</ele>
        <time>2020-12-29T13:39:26Z</time>
      </trkpt>
      <trkpt lat="47.63282" lon="6.19495">
        <ele>313.5</ele>
        <time>2020-12-29T13:39:31Z</time>
      </trkpt>
      <trkpt lat="47.63285" lon="6.19501">
        <ele>313.8</ele>
        <time>2020-12-29T13:39:35Z</time>
      </trkpt>
      <trkpt lat="47.63287" lon="6.19507">
        <ele>314.2</ele>
        <time>2020-12-29T13:39:39Z</time>
      </trkpt>
      <trkpt lat="47.63291" lon="6.19513">
        <ele>314.6</ele>
        <time>2020-12-29T13:39:43Z</time>
      </trkpt>
      <trkpt lat="47.63292" lon="6.1952">
        <ele>314.9</ele>
        <time>2020-12-29T13:39:47Z</time>
      </trkpt>
      <trkpt lat="47.63296" lon="6.19524">
        <ele>315.4</ele>
        <time>2020-12-29T13:40:18Z</time>
      </trkpt>
      <trkpt lat="47.63301" lon="6.19524">
        <ele>315.9</ele>
        <time>2020-12-29T13:40:37Z</time>
      </trkpt>
      <trkpt lat="47.63305" lon="6.19523">
        <ele>316.4</ele>
        <time>2020-12-29T13:41:04Z</time>
      </trkpt>
      <trkpt lat="47.63308" lon="6.19518">
        <ele>316.7</ele>
        <time>2020-12-29T13:41:12Z</time>
      </trkpt>
      <trkpt lat="47.63313" lon="6.19519">
        <ele>317.2</ele>
        <time>2020-12-29T13:41:36Z</time>
      </trkpt>
      <trkpt lat="47.63319" lon="6.19523">
        <ele>317.9</ele>
        <time>2020-12-29T13:41:41Z</time>
      </trkpt>
      <trkpt lat="47.63322" lon="6.19517">
        <ele>318.1</ele>
        <time>2020-12-29T13:41:45Z</time>
      </trkpt>
      <trkpt lat="47.63323" lon="6.1951">
        <ele>318.2</ele>
        <time>2020-12-29T13:41:49Z</time>
      </trkpt>
      <trkpt lat="47.63325" lon="6.19501">
        <ele>318.1</ele>
        <time>2020-12-29T13:41:52Z</time>
      </trkpt>
      <trkpt lat="47.6333" lon="6.19494">
        <ele>318.6</ele>
        <time>2020-12-29T13:41:56Z</time>
      </trkpt>
      <trkpt lat="47.63335" lon="6.19494">
        <ele>319.2</ele>
        <time>2020-12-29T13:42:01Z</time>
      </trkpt>
      <trkpt lat="47.6334" lon="6.19494">
        <ele>319.7</ele>
        <time>2020-12-29T13:42:08Z</time>
      </trkpt>
      <trkpt lat="47.63344" lon="6.19497">
        <ele>320.2</ele>
        <time>2020-12-29T13:42:14Z</time>
      </trkpt>
      <trkpt lat="47.63349" lon="6.19496">
        <ele>320.7</ele>
        <time>2020-12-29T13:42:19Z</time>
      </trkpt>
      <trkpt lat="47.63355" lon="6.19496">
        <ele>321.3</ele>
        <time>2020-12-29T13:42:26Z</time>
      </trkpt>
      <trkpt lat="47.6336" lon="6.19495">
        <ele>321.9</ele>
        <time>2020-12-29T13:42:32Z</time>
      </trkpt>
      <trkpt lat="47.63365" lon="6.19495">
        <ele>322.5</ele>
        <time>2020-12-29T13:42:38Z</time>
      </trkpt>
      <trkpt lat="47.63371" lon="6.19495">
        <ele>323</ele>
        <time>2020-12-29T13:42:44Z</time>
      </trkpt>
      <trkpt lat="47.63376" lon="6.19495">
        <ele>323.6</ele>
        <time>2020-12-29T13:42:50Z</time>
      </trkpt>
      <trkpt lat="47.63381" lon="6.19494">
        <ele>324.1</ele>
        <time>2020-12-29T13:42:55Z</time>
      </trkpt>
      <trkpt lat="47.63386" lon="6.19494">
        <ele>324.7</ele>
        <time>2020-12-29T13:43:00Z</time>
      </trkpt>
      <trkpt lat="47.6339" lon="6.19497">
        <ele>325.2</ele>
        <time>2020-12-29T13:43:04Z</time>
      </trkpt>
      <trkpt lat="47.63395" lon="6.195">
        <ele>325.7</ele>
        <time>2020-12-29T13:43:08Z</time>
      </trkpt>
      <trkpt lat="47.634" lon="6.19501">
        <ele>326.2</ele>
        <time>2020-12-29T13:43:14Z</time>
      </trkpt>
      <trkpt lat="47.63403" lon="6.19506">
        <ele>326.6</ele>
        <time>2020-12-29T13:44:10Z</time>
      </trkpt>
      <trkpt lat="47.63408" lon="6.19508">
        <ele>327.2</ele>
        <time>2020-12-29T13:44:14Z</time>
      </trkpt>
      <trkpt lat="47.63415" lon="6.19509">
        <ele>328</ele>
        <time>2020-12-29T13:44:18Z</time>
      </trkpt>
      <trkpt lat="47.6342" lon="6.1951">
        <ele>328.5</ele>
        <time>2020-12-29T13:44:22Z</time>
      </trkpt>
      <trkpt lat="47.63425" lon="6.19511">
        <ele>328.9</ele>
        <time>2020-12-29T13:44:25Z</time>
      </trkpt>
      <trkpt lat="47.6343" lon="6.19511">
        <ele>329.4</ele>
        <time>2020-12-29T13:44:29Z</time>
      </trkpt>
      <trkpt lat="47.63435" lon="6.19513">
        <ele>329.9</ele>
        <time>2020-12-29T13:44:33Z</time>
      </trkpt>
      <trkpt lat="47.63439" lon="6.19514">
        <ele>330.4</ele>
        <time>2020-12-29T13:44:37Z</time>
      </trkpt>
      <trkpt lat="47.63444" lon="6.19517">
        <ele>330.9</ele>
        <time>2020-12-29T13:44:42Z</time>
      </trkpt>
      <trkpt lat="47.63449" lon="6.19519">
        <ele>331.4</ele>
        <time>2020-12-29T13:44:46Z</time>
      </trkpt>
      <trkpt lat="47.63453" lon="6.19521">
        <ele>331.9</ele>
        <time>2020-12-29T13:44:50Z</time>
      </trkpt>
      <trkpt lat="47.63458" lon="6.19524">
        <ele>332.4</ele>
        <time>2020-12-29T13:44:54Z</time>
      </trkpt>
      <trkpt lat="47.63462" lon="6.19529">
        <ele>332.8</ele>
        <time>2020-12-29T13:44:58Z</time>
      </trkpt>
      <trkpt lat="47.63466" lon="6.19533">
        <ele>333.3</ele>
        <time>2020-12-29T13:45:03Z</time>
      </trkpt>
      <trkpt lat="47.63469" lon="6.19538">
        <ele>333.8</ele>
        <time>2020-12-29T13:45:07Z</time>
      </trkpt>
      <trkpt lat="47.63473" lon="6.19543">
        <ele>334.2</ele>
        <time>2020-12-29T13:45:11Z</time>
      </trkpt>
      <trkpt lat="47.63476" lon="6.19548">
        <ele>334.7</ele>
        <time>2020-12-29T13:45:16Z</time>
      </trkpt>
      <trkpt lat="47.6348" lon="6.19554">
        <ele>335.2</ele>
        <time>2020-12-29T13:45:21Z</time>
      </trkpt>
      <trkpt lat="47.63485" lon="6.19558">
        <ele>335.8</ele>
        <time>2020-12-29T13:45:27Z</time>
      </trkpt>
      <trkpt lat="47.63487" lon="6.19564">
        <ele>336.2</ele>
        <time>2020-12-29T13:45:31Z</time>
      </trkpt>
      <trkpt lat="47.6349" lon="6.1957">
        <ele>336.6</ele>
        <time>2020-12-29T13:45:36Z</time>
      </trkpt>
      <trkpt lat="47.63494" lon="6.19574">
        <ele>337.1</ele>
        <time>2020-12-29T13:45:39Z</time>
      </trkpt>
      <trkpt lat="47.63498" lon="6.1958">
        <ele>337.7</ele>
        <time>2020-12-29T13:45:44Z</time>
      </trkpt>
      <trkpt lat="47.63502" lon="6.19584">
        <ele>338.2</ele>
        <time>2020-12-29T13:45:49Z</time>
      </trkpt>
      <trkpt lat="47.63507" lon="6.19585">
        <ele>338.5</ele>
        <time>2020-12-29T13:45:53Z</time>
      </trkpt>
      <trkpt lat="47.63512" lon="6.19589">
        <ele>338.8</ele>
        <time>2020-12-29T13:45:58Z</time>
      </trkpt>
      <trkpt lat="47.63515" lon="6.19595">
        <ele>339</ele>
        <time>2020-12-29T13:46:02Z</time>
      </trkpt>
      <trkpt lat="47.63518" lon="6.19599">
        <ele>339.2</ele>
        <time>2020-12-29T13:46:07Z</time>
      </trkpt>
      <trkpt lat="47.63522" lon="6.19602">
        <ele>339.5</ele>
        <time>2020-12-29T13:46:11Z</time>
      </trkpt>
      <trkpt lat="47.63527" lon="6.19605">
        <ele>339.9</ele>
        <time>2020-12-29T13:46:15Z</time>
      </trkpt>
      <trkpt lat="47.63531" lon="6.19608">
        <ele>340.2</ele>
        <time>2020-12-29T13:46:19Z</time>
      </trkpt>
      <trkpt lat="47.63536" lon="6.19612">
        <ele>340.6</ele>
        <time>2020-12-29T13:46:23Z</time>
      </trkpt>
      <trkpt lat="47.63541" lon="6.19615">
        <ele>341</ele>
        <time>2020-12-29T13:46:27Z</time>
      </trkpt>
      <trkpt lat="47.63545" lon="6.19619">
        <ele>341.3</ele>
        <time>2020-12-29T13:46:30Z</time>
      </trkpt>
      <trkpt lat="47.6355" lon="6.19623">
        <ele>341.7</ele>
        <time>2020-12-29T13:46:35Z</time>
      </trkpt>
      <trkpt lat="47.63554" lon="6.19626">
        <ele>342.1</ele>
        <time>2020-12-29T13:46:38Z</time>
      </trkpt>
      <trkpt lat="47.63559" lon="6.1963">
        <ele>342.5</ele>
        <time>2020-12-29T13:46:42Z</time>
      </trkpt>
      <trkpt lat="47.63563" lon="6.19633">
        <ele>342.9</ele>
        <time>2020-12-29T13:46:46Z</time>
      </trkpt>
      <trkpt lat="47.63569" lon="6.19638">
        <ele>343.4</ele>
        <time>2020-12-29T13:46:50Z</time>
      </trkpt>
      <trkpt lat="47.63573" lon="6.19643">
        <ele>343.8</ele>
        <time>2020-12-29T13:46:55Z</time>
      </trkpt>
      <trkpt lat="47.63577" lon="6.19647">
        <ele>344.2</ele>
        <time>2020-12-29T13:46:59Z</time>
      </trkpt>
      <trkpt lat="47.63581" lon="6.19652">
        <ele>344.6</ele>
        <time>2020-12-29T13:47:03Z</time>
      </trkpt>
      <trkpt lat="47.63585" lon="6.19655">
        <ele>344.9</ele>
        <time>2020-12-29T13:47:07Z</time>
      </trkpt>
      <trkpt lat="47.63589" lon="6.19661">
        <ele>345.1</ele>
        <time>2020-12-29T13:47:11Z</time>
      </trkpt>
      <trkpt lat="47.63593" lon="6.19665">
        <ele>345.3</ele>
        <time>2020-12-29T13:47:15Z</time>
      </trkpt>
      <trkpt lat="47.63597" lon="6.19669">
        <ele>345.4</ele>
        <time>2020-12-29T13:47:18Z</time>
      </trkpt>
      <trkpt lat="47.636" lon="6.19674">
        <ele>345.5</ele>
        <time>2020-12-29T13:47:21Z</time>
      </trkpt>
      <trkpt lat="47.63604" lon="6.19679">
        <ele>345.6</ele>
        <time>2020-12-29T13:47:26Z</time>
      </trkpt>
      <trkpt lat="47.63607" lon="6.19684">
        <ele>345.7</ele>
        <time>2020-12-29T13:47:30Z</time>
      </trkpt>
      <trkpt lat="47.63611" lon="6.19688">
        <ele>345.8</ele>
        <time>2020-12-29T13:47:34Z</time>
      </trkpt>
      <trkpt lat="47.63617" lon="6.19691">
        <ele>346.1</ele>
        <time>2020-12-29T13:47:38Z</time>
      </trkpt>
      <trkpt lat="47.63622" lon="6.19692">
        <ele>346.3</ele>
        <time>2020-12-29T13:47:41Z</time>
      </trkpt>
      <trkpt lat="47.63626" lon="6.19693">
        <ele>346.6</ele>
        <time>2020-12-29T13:47:45Z</time>
      </trkpt>
      <trkpt lat="47.63631" lon="6.19692">
        <ele>346.8</ele>
        <time>2020-12-29T13:47:49Z</time>
      </trkpt>
      <trkpt lat="47.63635" lon="6.19691">
        <ele>347</ele>
        <time>2020-12-29T13:47:53Z</time>
      </trkpt>
      <trkpt lat="47.63641" lon="6.19688">
        <ele>347.3</ele>
        <time>2020-12-29T13:47:58Z</time>
      </trkpt>
      <trkpt lat="47.63644" lon="6.19683">
        <ele>347.4</ele>
        <time>2020-12-29T13:48:02Z</time>
      </trkpt>
      <trkpt lat="47.63648" lon="6.19679">
        <ele>347.5</ele>
        <time>2020-12-29T13:48:06Z</time>
      </trkpt>
      <trkpt lat="47.63652" lon="6.19676">
        <ele>347.6</ele>
        <time>2020-12-29T13:48:09Z</time>
      </trkpt>
      <trkpt lat="47.63656" lon="6.19669">
        <ele>347.7</ele>
        <time>2020-12-29T13:48:14Z</time>
      </trkpt>
      <trkpt lat="47.63659" lon="6.19664">
        <ele>347.7</ele>
        <time>2020-12-29T13:48:18Z</time>
      </trkpt>
      <trkpt lat="47.63663" lon="6.19657">
        <ele>347.8</ele>
        <time>2020-12-29T13:48:21Z</time>
      </trkpt>
      <trkpt lat="47.63667" lon="6.19651">
        <ele>348</ele>
        <time>2020-12-29T13:48:26Z</time>
      </trkpt>
      <trkpt lat="47.6367" lon="6.19645">
        <ele>348.2</ele>
        <time>2020-12-29T13:48:30Z</time>
      </trkpt>
      <trkpt lat="47.63675" lon="6.19642">
        <ele>348.6</ele>
        <time>2020-12-29T13:48:33Z</time>
      </trkpt>
      <trkpt lat="47.6368" lon="6.1964">
        <ele>348.9</ele>
        <time>2020-12-29T13:48:36Z</time>
      </trkpt>
      <trkpt lat="47.63684" lon="6.19634">
        <ele>349.2</ele>
        <time>2020-12-29T13:48:39Z</time>
      </trkpt>
      <trkpt lat="47.63687" lon="6.19627">
        <ele>349.3</ele>
        <time>2020-12-29T13:48:42Z</time>
      </trkpt>
      <trkpt lat="47.63688" lon="6.1962">
        <ele>349.4</ele>
        <time>2020-12-29T13:48:45Z</time>
      </trkpt>
      <trkpt lat="47.63691" lon="6.19612">
        <ele>349.5</ele>
        <time>2020-12-29T13:48:49Z</time>
      </trkpt>
      <trkpt lat="47.63694" lon="6.19607">
        <ele>349.7</ele>
        <time>2020-12-29T13:50:07Z</time>
      </trkpt>
      <trkpt lat="47.63699" lon="6.19604">
        <ele>350</ele>
        <time>2020-12-29T13:50:30Z</time>
      </trkpt>
      <trkpt lat="47.63701" lon="6.19597">
        <ele>350.1</ele>
        <time>2020-12-29T13:50:54Z</time>
      </trkpt>
      <trkpt lat="47.63701" lon="6.19589">
        <ele>350.1</ele>
        <time>2020-12-29T13:50:58Z</time>
      </trkpt>
      <trkpt lat="47.63701" lon="6.19581">
        <ele>350</ele>
        <time>2020-12-29T13:51:00Z</time>
      </trkpt>
      <trkpt lat="47.637" lon="6.19572">
        <ele>350</ele>
        <time>2020-12-29T13:51:02Z</time>
      </trkpt>
      <trkpt lat="47.63699" lon="6.19561">
        <ele>350</ele>
        <time>2020-12-29T13:51:04Z</time>
      </trkpt>
      <trkpt lat="47.63698" lon="6.1955">
        <ele>349.9</ele>
        <time>2020-12-29T13:51:06Z</time>
      </trkpt>
      <trkpt lat="47.63697" lon="6.19544">
        <ele>349.9</ele>
        <time>2020-12-29T13:51:07Z</time>
      </trkpt>
      <trkpt lat="47.63696" lon="6.19537">
        <ele>349.8</ele>
        <time>2020-12-29T13:51:08Z</time>
      </trkpt>
      <trkpt lat="47.63695" lon="6.1953">
        <ele>349.7</ele>
        <time>2020-12-29T13:51:09Z</time>
      </trkpt>
      <trkpt lat="47.63694" lon="6.19517">
        <ele>349.6</ele>
        <time>2020-12-29T13:51:11Z</time>
      </trkpt>
      <trkpt lat="47.63693" lon="6.19511">
        <ele>349.5</ele>
        <time>2020-12-29T13:51:12Z</time>
      </trkpt>
      <trkpt lat="47.63692" lon="6.19504">
        <ele>349.4</ele>
        <time>2020-12-29T13:51:13Z</time>
      </trkpt>
      <trkpt lat="47.63689" lon="6.19489">
        <ele>348.8</ele>
        <time>2020-12-29T13:51:15Z</time>
      </trkpt>
      <trkpt lat="47.63687" lon="6.19475">
        <ele>348.1</ele>
        <time>2020-12-29T13:51:17Z</time>
      </trkpt>
      <trkpt lat="47.63686" lon="6.19467">
        <ele>347.7</ele>
        <time>2020-12-29T13:51:18Z</time>
      </trkpt>
      <trkpt lat="47.63686" lon="6.19459">
        <ele>347.3</ele>
        <time>2020-12-29T13:51:19Z</time>
      </trkpt>
      <trkpt lat="47.63685" lon="6.19446">
        <ele>346.8</ele>
        <time>2020-12-29T13:51:20Z</time>
      </trkpt>
      <trkpt lat="47.63684" lon="6.19436">
        <ele>346.3</ele>
        <time>2020-12-29T13:51:21Z</time>
      </trkpt>
      <trkpt lat="47.63683" lon="6.19427">
        <ele>345.9</ele>
        <time>2020-12-29T13:51:22Z</time>
      </trkpt>
      <trkpt lat="47.63681" lon="6.19419">
        <ele>345.5</ele>
        <time>2020-12-29T13:51:23Z</time>
      </trkpt>
      <trkpt lat="47.6368" lon="6.1941">
        <ele>344.9</ele>
        <time>2020-12-29T13:51:24Z</time>
      </trkpt>
      <trkpt lat="47.63679" lon="6.19401">
        <ele>344.2</ele>
        <time>2020-12-29T13:51:25Z</time>
      </trkpt>
      <trkpt lat="47.63677" lon="6.19392">
        <ele>343.5</ele>
        <time>2020-12-29T13:51:26Z</time>
      </trkpt>
      <trkpt lat="47.63676" lon="6.19384">
        <ele>342.9</ele>
        <time>2020-12-29T13:51:27Z</time>
      </trkpt>
      <trkpt lat="47.63676" lon="6.19375">
        <ele>342.2</ele>
        <time>2020-12-29T13:51:28Z</time>
      </trkpt>
      <trkpt lat="47.63675" lon="6.19366">
        <ele>341.6</ele>
        <time>2020-12-29T13:51:29Z</time>
      </trkpt>
      <trkpt lat="47.63675" lon="6.19357">
        <ele>341.1</ele>
        <time>2020-12-29T13:51:30Z</time>
      </trkpt>
      <trkpt lat="47.63675" lon="6.19348">
        <ele>340.6</ele>
        <time>2020-12-29T13:51:31Z</time>
      </trkpt>
      <trkpt lat="47.63677" lon="6.19339">
        <ele>340.1</ele>
        <time>2020-12-29T13:51:32Z</time>
      </trkpt>
      <trkpt lat="47.63679" lon="6.1933">
        <ele>339.7</ele>
        <time>2020-12-29T13:51:33Z</time>
      </trkpt>
      <trkpt lat="47.63681" lon="6.19321">
        <ele>339.5</ele>
        <time>2020-12-29T13:51:34Z</time>
      </trkpt>
      <trkpt lat="47.63684" lon="6.19313">
        <ele>339.4</ele>
        <time>2020-12-29T13:51:35Z</time>
      </trkpt>
      <trkpt lat="47.63688" lon="6.19306">
        <ele>339.4</ele>
        <time>2020-12-29T13:51:36Z</time>
      </trkpt>
      <trkpt lat="47.63692" lon="6.193">
        <ele>339.4</ele>
        <time>2020-12-29T13:51:37Z</time>
      </trkpt>
      <trkpt lat="47.63697" lon="6.19296">
        <ele>339.5</ele>
        <time>2020-12-29T13:51:38Z</time>
      </trkpt>
      <trkpt lat="47.63702" lon="6.19292">
        <ele>339.7</ele>
        <time>2020-12-29T13:51:39Z</time>
      </trkpt>
      <trkpt lat="47.63707" lon="6.19289">
        <ele>339.8</ele>
        <time>2020-12-29T13:51:40Z</time>
      </trkpt>
      <trkpt lat="47.63712" lon="6.19286">
        <ele>339.9</ele>
        <time>2020-12-29T13:51:41Z</time>
      </trkpt>
      <trkpt lat="47.63716" lon="6.19284">
        <ele>340.1</ele>
        <time>2020-12-29T13:51:42Z</time>
      </trkpt>
      <trkpt lat="47.63721" lon="6.19283">
        <ele>340.3</ele>
        <time>2020-12-29T13:51:43Z</time>
      </trkpt>
      <trkpt lat="47.63729" lon="6.19281">
        <ele>340.7</ele>
        <time>2020-12-29T13:51:45Z</time>
      </trkpt>
      <trkpt lat="47.63737" lon="6.19279">
        <ele>341</ele>
        <time>2020-12-29T13:51:47Z</time>
      </trkpt>
      <trkpt lat="47.63744" lon="6.19278">
        <ele>341.4</ele>
        <time>2020-12-29T13:51:49Z</time>
      </trkpt>
      <trkpt lat="47.63751" lon="6.19278">
        <ele>341.7</ele>
        <time>2020-12-29T13:51:51Z</time>
      </trkpt>
      <trkpt lat="47.63757" lon="6.19277">
        <ele>341.7</ele>
        <time>2020-12-29T13:51:53Z</time>
      </trkpt>
      <trkpt lat="47.63763" lon="6.19275">
        <ele>341.6</ele>
        <time>2020-12-29T13:51:55Z</time>
      </trkpt>
      <trkpt lat="47.6377" lon="6.19274">
        <ele>341.6</ele>
        <time>2020-12-29T13:51:57Z</time>
      </trkpt>
      <trkpt lat="47.63776" lon="6.19273">
        <ele>341.6</ele>
        <time>2020-12-29T13:51:58Z</time>
      </trkpt>
      <trkpt lat="47.63779" lon="6.1928">
        <ele>342</ele>
        <time>2020-12-29T13:51:59Z</time>
      </trkpt>
      <trkpt lat="47.63786" lon="6.19275">
        <ele>341.8</ele>
        <time>2020-12-29T13:52:01Z</time>
      </trkpt>
      <trkpt lat="47.63792" lon="6.19272">
        <ele>341.7</ele>
        <time>2020-12-29T13:52:03Z</time>
      </trkpt>
      <trkpt lat="47.63799" lon="6.19269">
        <ele>341.6</ele>
        <time>2020-12-29T13:52:05Z</time>
      </trkpt>
      <trkpt lat="47.63806" lon="6.19266">
        <ele>341.5</ele>
        <time>2020-12-29T13:52:07Z</time>
      </trkpt>
      <trkpt lat="47.63813" lon="6.19265">
        <ele>341.5</ele>
        <time>2020-12-29T13:52:09Z</time>
      </trkpt>
      <trkpt lat="47.63819" lon="6.19264">
        <ele>341.5</ele>
        <time>2020-12-29T13:52:11Z</time>
      </trkpt>
      <trkpt lat="47.63825" lon="6.19264">
        <ele>341.6</ele>
        <time>2020-12-29T13:52:13Z</time>
      </trkpt>
      <trkpt lat="47.63831" lon="6.19265">
        <ele>341.7</ele>
        <time>2020-12-29T13:52:15Z</time>
      </trkpt>
      <trkpt lat="47.63838" lon="6.19267">
        <ele>341.8</ele>
        <time>2020-12-29T13:52:17Z</time>
      </trkpt>
      <trkpt lat="47.63844" lon="6.19269">
        <ele>341.8</ele>
        <time>2020-12-29T13:52:19Z</time>
      </trkpt>
      <trkpt lat="47.63849" lon="6.19273">
        <ele>342</ele>
        <time>2020-12-29T13:52:21Z</time>
      </trkpt>
      <trkpt lat="47.63852" lon="6.19277">
        <ele>342.2</ele>
        <time>2020-12-29T13:52:22Z</time>
      </trkpt>
      <trkpt lat="47.63857" lon="6.19283">
        <ele>342.5</ele>
        <time>2020-12-29T13:52:24Z</time>
      </trkpt>
      <trkpt lat="47.63861" lon="6.19289">
        <ele>342.8</ele>
        <time>2020-12-29T13:52:27Z</time>
      </trkpt>
      <trkpt lat="47.63866" lon="6.19295">
        <ele>343.2</ele>
        <time>2020-12-29T13:52:28Z</time>
      </trkpt>
      <trkpt lat="47.6387" lon="6.19303">
        <ele>343.7</ele>
        <time>2020-12-29T13:52:31Z</time>
      </trkpt>
      <trkpt lat="47.63874" lon="6.19312">
        <ele>344.2</ele>
        <time>2020-12-29T13:52:34Z</time>
      </trkpt>
      <trkpt lat="47.63875" lon="6.19321">
        <ele>344.8</ele>
        <time>2020-12-29T13:52:37Z</time>
      </trkpt>
      <trkpt lat="47.63876" lon="6.1933">
        <ele>345.3</ele>
        <time>2020-12-29T13:52:40Z</time>
      </trkpt>
      <trkpt lat="47.63877" lon="6.19337">
        <ele>345.7</ele>
        <time>2020-12-29T13:52:42Z</time>
      </trkpt>
      <trkpt lat="47.63879" lon="6.19345">
        <ele>346.1</ele>
        <time>2020-12-29T13:52:45Z</time>
      </trkpt>
      <trkpt lat="47.63882" lon="6.19352">
        <ele>346.6</ele>
        <time>2020-12-29T13:52:48Z</time>
      </trkpt>
      <trkpt lat="47.63884" lon="6.19359">
        <ele>346.9</ele>
        <time>2020-12-29T13:52:50Z</time>
      </trkpt>
      <trkpt lat="47.63886" lon="6.19366">
        <ele>347.2</ele>
        <time>2020-12-29T13:52:53Z</time>
      </trkpt>
      <trkpt lat="47.63888" lon="6.19373">
        <ele>347.6</ele>
        <time>2020-12-29T13:52:56Z</time>
      </trkpt>
      <trkpt lat="47.6389" lon="6.1938">
        <ele>347.9</ele>
        <time>2020-12-29T13:53:00Z</time>
      </trkpt>
      <trkpt lat="47.63892" lon="6.19387">
        <ele>348.2</ele>
        <time>2020-12-29T13:53:03Z</time>
      </trkpt>
      <trkpt lat="47.63894" lon="6.19394">
        <ele>348.5</ele>
        <time>2020-12-29T13:53:07Z</time>
      </trkpt>
      <trkpt lat="47.63896" lon="6.19401">
        <ele>348.8</ele>
        <time>2020-12-29T13:53:09Z</time>
      </trkpt>
      <trkpt lat="47.63898" lon="6.19407">
        <ele>349</ele>
        <time>2020-12-29T13:53:12Z</time>
      </trkpt>
      <trkpt lat="47.639" lon="6.19414">
        <ele>349.3</ele>
        <time>2020-12-29T13:53:15Z</time>
      </trkpt>
      <trkpt lat="47.63903" lon="6.19422">
        <ele>349.5</ele>
        <time>2020-12-29T13:53:18Z</time>
      </trkpt>
      <trkpt lat="47.63905" lon="6.19429">
        <ele>349.7</ele>
        <time>2020-12-29T13:53:21Z</time>
      </trkpt>
      <trkpt lat="47.63908" lon="6.19435">
        <ele>349.9</ele>
        <time>2020-12-29T13:53:24Z</time>
      </trkpt>
      <trkpt lat="47.6391" lon="6.19444">
        <ele>350.2</ele>
        <time>2020-12-29T13:53:28Z</time>
      </trkpt>
      <trkpt lat="47.63911" lon="6.19452">
        <ele>350.4</ele>
        <time>2020-12-29T13:53:31Z</time>
      </trkpt>
      <trkpt lat="47.63913" lon="6.19459">
        <ele>350.6</ele>
        <time>2020-12-29T13:53:34Z</time>
      </trkpt>
      <trkpt lat="47.63915" lon="6.19466">
        <ele>350.8</ele>
        <time>2020-12-29T13:53:37Z</time>
      </trkpt>
      <trkpt lat="47.63917" lon="6.19475">
        <ele>351.1</ele>
        <time>2020-12-29T13:53:40Z</time>
      </trkpt>
      <trkpt lat="47.6392" lon="6.19483">
        <ele>351.4</ele>
        <time>2020-12-29T13:53:43Z</time>
      </trkpt>
      <trkpt lat="47.63923" lon="6.19491">
        <ele>351.7</ele>
        <time>2020-12-29T13:53:46Z</time>
      </trkpt>
      <trkpt lat="47.63925" lon="6.19498">
        <ele>351.9</ele>
        <time>2020-12-29T13:53:49Z</time>
      </trkpt>
      <trkpt lat="47.63927" lon="6.19505">
        <ele>352.2</ele>
        <time>2020-12-29T13:53:51Z</time>
      </trkpt>
      <trkpt lat="47.63929" lon="6.19513">
        <ele>352.4</ele>
        <time>2020-12-29T13:53:54Z</time>
      </trkpt>
      <trkpt lat="47.63932" lon="6.1952">
        <ele>352.6</ele>
        <time>2020-12-29T13:53:57Z</time>
      </trkpt>
      <trkpt lat="47.63934" lon="6.19526">
        <ele>352.8</ele>
        <time>2020-12-29T13:53:59Z</time>
      </trkpt>
      <trkpt lat="47.63936" lon="6.19534">
        <ele>353</ele>
        <time>2020-12-29T13:54:02Z</time>
      </trkpt>
      <trkpt lat="47.63938" lon="6.19541">
        <ele>353.2</ele>
        <time>2020-12-29T13:54:04Z</time>
      </trkpt>
      <trkpt lat="47.6394" lon="6.19547">
        <ele>353.4</ele>
        <time>2020-12-29T13:54:07Z</time>
      </trkpt>
      <trkpt lat="47.63942" lon="6.19554">
        <ele>353.5</ele>
        <time>2020-12-29T13:54:10Z</time>
      </trkpt>
      <trkpt lat="47.63945" lon="6.19563">
        <ele>353.7</ele>
        <time>2020-12-29T13:54:13Z</time>
      </trkpt>
      <trkpt lat="47.63947" lon="6.19571">
        <ele>353.9</ele>
        <time>2020-12-29T13:54:16Z</time>
      </trkpt>
      <trkpt lat="47.6395" lon="6.19579">
        <ele>354.1</ele>
        <time>2020-12-29T13:54:19Z</time>
      </trkpt>
      <trkpt lat="47.63952" lon="6.19586">
        <ele>354.2</ele>
        <time>2020-12-29T13:54:22Z</time>
      </trkpt>
      <trkpt lat="47.63954" lon="6.19593">
        <ele>354.4</ele>
        <time>2020-12-29T13:54:24Z</time>
      </trkpt>
      <trkpt lat="47.63956" lon="6.196">
        <ele>354.6</ele>
        <time>2020-12-29T13:54:27Z</time>
      </trkpt>
      <trkpt lat="47.63958" lon="6.19608">
        <ele>354.8</ele>
        <time>2020-12-29T13:54:30Z</time>
      </trkpt>
      <trkpt lat="47.63961" lon="6.19616">
        <ele>354.9</ele>
        <time>2020-12-29T13:54:33Z</time>
      </trkpt>
      <trkpt lat="47.63963" lon="6.19624">
        <ele>355.1</ele>
        <time>2020-12-29T13:54:36Z</time>
      </trkpt>
      <trkpt lat="47.63964" lon="6.1963">
        <ele>355.2</ele>
        <time>2020-12-29T13:54:39Z</time>
      </trkpt>
      <trkpt lat="47.63966" lon="6.19638">
        <ele>355.4</ele>
        <time>2020-12-29T13:54:42Z</time>
      </trkpt>
      <trkpt lat="47.63967" lon="6.19645">
        <ele>355.6</ele>
        <time>2020-12-29T13:54:45Z</time>
      </trkpt>
      <trkpt lat="47.63968" lon="6.19653">
        <ele>355.8</ele>
        <time>2020-12-29T13:54:47Z</time>
      </trkpt>
      <trkpt lat="47.6397" lon="6.19661">
        <ele>355.9</ele>
        <time>2020-12-29T13:54:50Z</time>
      </trkpt>
      <trkpt lat="47.63971" lon="6.19668">
        <ele>356</ele>
        <time>2020-12-29T13:54:53Z</time>
      </trkpt>
      <trkpt lat="47.63973" lon="6.19677">
        <ele>355.9</ele>
        <time>2020-12-29T13:54:55Z</time>
      </trkpt>
      <trkpt lat="47.63974" lon="6.19684">
        <ele>355.9</ele>
        <time>2020-12-29T13:54:57Z</time>
      </trkpt>
      <trkpt lat="47.63975" lon="6.19691">
        <ele>355.8</ele>
        <time>2020-12-29T13:54:59Z</time>
      </trkpt>
      <trkpt lat="47.63976" lon="6.19701">
        <ele>355.7</ele>
        <time>2020-12-29T13:55:02Z</time>
      </trkpt>
      <trkpt lat="47.63976" lon="6.1971">
        <ele>355.6</ele>
        <time>2020-12-29T13:55:04Z</time>
      </trkpt>
      <trkpt lat="47.63977" lon="6.1972">
        <ele>355.5</ele>
        <time>2020-12-29T13:55:07Z</time>
      </trkpt>
      <trkpt lat="47.63978" lon="6.1973">
        <ele>355.4</ele>
        <time>2020-12-29T13:55:09Z</time>
      </trkpt>
      <trkpt lat="47.63979" lon="6.19738">
        <ele>355.4</ele>
        <time>2020-12-29T13:55:11Z</time>
      </trkpt>
      <trkpt lat="47.63979" lon="6.19745">
        <ele>355.3</ele>
        <time>2020-12-29T13:55:13Z</time>
      </trkpt>
      <trkpt lat="47.6398" lon="6.19753">
        <ele>355.2</ele>
        <time>2020-12-29T13:55:15Z</time>
      </trkpt>
      <trkpt lat="47.63981" lon="6.19761">
        <ele>355.2</ele>
        <time>2020-12-29T13:55:18Z</time>
      </trkpt>
      <trkpt lat="47.63982" lon="6.19768">
        <ele>355.3</ele>
        <time>2020-12-29T13:55:19Z</time>
      </trkpt>
      <trkpt lat="47.63983" lon="6.19775">
        <ele>355.3</ele>
        <time>2020-12-29T13:55:21Z</time>
      </trkpt>
      <trkpt lat="47.63983" lon="6.19782">
        <ele>355.3</ele>
        <time>2020-12-29T13:55:23Z</time>
      </trkpt>
      <trkpt lat="47.63984" lon="6.19789">
        <ele>355.3</ele>
        <time>2020-12-29T13:55:25Z</time>
      </trkpt>
      <trkpt lat="47.63985" lon="6.19797">
        <ele>355.4</ele>
        <time>2020-12-29T13:55:27Z</time>
      </trkpt>
      <trkpt lat="47.63986" lon="6.19808">
        <ele>355.4</ele>
        <time>2020-12-29T13:55:29Z</time>
      </trkpt>
      <trkpt lat="47.63987" lon="6.19817">
        <ele>355.5</ele>
        <time>2020-12-29T13:55:31Z</time>
      </trkpt>
      <trkpt lat="47.63988" lon="6.19825">
        <ele>355.5</ele>
        <time>2020-12-29T13:55:33Z</time>
      </trkpt>
      <trkpt lat="47.63989" lon="6.19834">
        <ele>355.6</ele>
        <time>2020-12-29T13:55:35Z</time>
      </trkpt>
      <trkpt lat="47.63989" lon="6.19842">
        <ele>355.9</ele>
        <time>2020-12-29T13:55:37Z</time>
      </trkpt>
      <trkpt lat="47.6399" lon="6.19853">
        <ele>356.3</ele>
        <time>2020-12-29T13:55:39Z</time>
      </trkpt>
      <trkpt lat="47.63991" lon="6.1986">
        <ele>356.6</ele>
        <time>2020-12-29T13:55:41Z</time>
      </trkpt>
      <trkpt lat="47.63992" lon="6.19869">
        <ele>356.9</ele>
        <time>2020-12-29T13:55:43Z</time>
      </trkpt>
      <trkpt lat="47.63993" lon="6.19879">
        <ele>357.3</ele>
        <time>2020-12-29T13:55:45Z</time>
      </trkpt>
      <trkpt lat="47.63993" lon="6.19886">
        <ele>357.6</ele>
        <time>2020-12-29T13:55:47Z</time>
      </trkpt>
      <trkpt lat="47.63994" lon="6.19894">
        <ele>358</ele>
        <time>2020-12-29T13:55:49Z</time>
      </trkpt>
      <trkpt lat="47.63995" lon="6.19904">
        <ele>358.4</ele>
        <time>2020-12-29T13:55:52Z</time>
      </trkpt>
      <trkpt lat="47.63996" lon="6.19911">
        <ele>358.8</ele>
        <time>2020-12-29T13:55:54Z</time>
      </trkpt>
      <trkpt lat="47.63998" lon="6.1992">
        <ele>358.9</ele>
        <time>2020-12-29T13:55:57Z</time>
      </trkpt>
      <trkpt lat="47.63998" lon="6.19927">
        <ele>358.8</ele>
        <time>2020-12-29T13:56:00Z</time>
      </trkpt>
      <trkpt lat="47.63997" lon="6.19934">
        <ele>358.6</ele>
        <time>2020-12-29T13:56:03Z</time>
      </trkpt>
      <trkpt lat="47.63996" lon="6.19942">
        <ele>358.4</ele>
        <time>2020-12-29T13:56:06Z</time>
      </trkpt>
      <trkpt lat="47.63994" lon="6.1995">
        <ele>358.3</ele>
        <time>2020-12-29T13:56:09Z</time>
      </trkpt>
      <trkpt lat="47.63992" lon="6.19962">
        <ele>358</ele>
        <time>2020-12-29T13:56:12Z</time>
      </trkpt>
      <trkpt lat="47.6399" lon="6.19969">
        <ele>357.9</ele>
        <time>2020-12-29T13:56:13Z</time>
      </trkpt>
      <trkpt lat="47.63989" lon="6.19976">
        <ele>357.8</ele>
        <time>2020-12-29T13:56:15Z</time>
      </trkpt>
      <trkpt lat="47.63988" lon="6.19983">
        <ele>357.6</ele>
        <time>2020-12-29T13:56:17Z</time>
      </trkpt>
      <trkpt lat="47.63987" lon="6.19992">
        <ele>357.5</ele>
        <time>2020-12-29T13:56:19Z</time>
      </trkpt>
      <trkpt lat="47.63986" lon="6.19999">
        <ele>357.4</ele>
        <time>2020-12-29T13:56:21Z</time>
      </trkpt>
      <trkpt lat="47.63985" lon="6.20008">
        <ele>357.4</ele>
        <time>2020-12-29T13:56:23Z</time>
      </trkpt>
      <trkpt lat="47.63983" lon="6.20014">
        <ele>357.4</ele>
        <time>2020-12-29T13:56:25Z</time>
      </trkpt>
      <trkpt lat="47.63982" lon="6.20023">
        <ele>357.4</ele>
        <time>2020-12-29T13:56:27Z</time>
      </trkpt>
      <trkpt lat="47.6398" lon="6.20031">
        <ele>357.5</ele>
        <time>2020-12-29T13:56:29Z</time>
      </trkpt>
      <trkpt lat="47.63978" lon="6.20039">
        <ele>357.5</ele>
        <time>2020-12-29T13:56:31Z</time>
      </trkpt>
      <trkpt lat="47.63976" lon="6.20047">
        <ele>357.6</ele>
        <time>2020-12-29T13:56:33Z</time>
      </trkpt>
      <trkpt lat="47.63974" lon="6.20054">
        <ele>357.6</ele>
        <time>2020-12-29T13:56:35Z</time>
      </trkpt>
      <trkpt lat="47.63972" lon="6.20062">
        <ele>357.7</ele>
        <time>2020-12-29T13:56:37Z</time>
      </trkpt>
      <trkpt lat="47.6397" lon="6.20069">
        <ele>357.7</ele>
        <time>2020-12-29T13:56:39Z</time>
      </trkpt>
      <trkpt lat="47.63968" lon="6.20078">
        <ele>357.8</ele>
        <time>2020-12-29T13:56:41Z</time>
      </trkpt>
      <trkpt lat="47.63966" lon="6.20087">
        <ele>357.9</ele>
        <time>2020-12-29T13:56:43Z</time>
      </trkpt>
      <trkpt lat="47.63965" lon="6.20094">
        <ele>358.1</ele>
        <time>2020-12-29T13:56:46Z</time>
      </trkpt>
      <trkpt lat="47.63963" lon="6.20103">
        <ele>358.4</ele>
        <time>2020-12-29T13:56:47Z</time>
      </trkpt>
      <trkpt lat="47.63961" lon="6.20111">
        <ele>358.6</ele>
        <time>2020-12-29T13:56:49Z</time>
      </trkpt>
      <trkpt lat="47.63959" lon="6.2012">
        <ele>358.9</ele>
        <time>2020-12-29T13:56:51Z</time>
      </trkpt>
      <trkpt lat="47.63957" lon="6.20127">
        <ele>359.1</ele>
        <time>2020-12-29T13:56:53Z</time>
      </trkpt>
      <trkpt lat="47.63956" lon="6.20137">
        <ele>359.3</ele>
        <time>2020-12-29T13:56:55Z</time>
      </trkpt>
      <trkpt lat="47.63954" lon="6.20146">
        <ele>359.6</ele>
        <time>2020-12-29T13:56:58Z</time>
      </trkpt>
      <trkpt lat="47.63952" lon="6.20156">
        <ele>359.9</ele>
        <time>2020-12-29T13:57:00Z</time>
      </trkpt>
      <trkpt lat="47.63951" lon="6.20163">
        <ele>360.1</ele>
        <time>2020-12-29T13:57:02Z</time>
      </trkpt>
      <trkpt lat="47.63949" lon="6.2017">
        <ele>360.3</ele>
        <time>2020-12-29T13:57:05Z</time>
      </trkpt>
      <trkpt lat="47.63948" lon="6.20177">
        <ele>360.4</ele>
        <time>2020-12-29T13:57:07Z</time>
      </trkpt>
      <trkpt lat="47.63948" lon="6.20186">
        <ele>360.5</ele>
        <time>2020-12-29T13:57:10Z</time>
      </trkpt>
      <trkpt lat="47.63951" lon="6.20192">
        <ele>360.5</ele>
        <time>2020-12-29T13:57:13Z</time>
      </trkpt>
      <trkpt lat="47.63957" lon="6.2019">
        <ele>360.3</ele>
        <time>2020-12-29T13:57:16Z</time>
      </trkpt>
      <trkpt lat="47.63964" lon="6.20187">
        <ele>360.1</ele>
        <time>2020-12-29T13:57:19Z</time>
      </trkpt>
      <trkpt lat="47.63969" lon="6.20186">
        <ele>359.9</ele>
        <time>2020-12-29T13:57:22Z</time>
      </trkpt>
      <trkpt lat="47.63974" lon="6.20186">
        <ele>359.8</ele>
        <time>2020-12-29T13:57:23Z</time>
      </trkpt>
      <trkpt lat="47.63979" lon="6.20186">
        <ele>359.6</ele>
        <time>2020-12-29T13:57:25Z</time>
      </trkpt>
      <trkpt lat="47.63985" lon="6.20186">
        <ele>359.4</ele>
        <time>2020-12-29T13:57:27Z</time>
      </trkpt>
      <trkpt lat="47.63992" lon="6.20186">
        <ele>359.2</ele>
        <time>2020-12-29T13:57:29Z</time>
      </trkpt>
      <trkpt lat="47.63998" lon="6.20185">
        <ele>359.1</ele>
        <time>2020-12-29T13:57:31Z</time>
      </trkpt>
      <trkpt lat="47.64003" lon="6.20184">
        <ele>358.8</ele>
        <time>2020-12-29T13:57:33Z</time>
      </trkpt>
      <trkpt lat="47.64008" lon="6.20183">
        <ele>358.4</ele>
        <time>2020-12-29T13:57:36Z</time>
      </trkpt>
      <trkpt lat="47.64014" lon="6.20182">
        <ele>358</ele>
        <time>2020-12-29T13:57:39Z</time>
      </trkpt>
      <trkpt lat="47.6402" lon="6.2018">
        <ele>357.6</ele>
        <time>2020-12-29T13:57:42Z</time>
      </trkpt>
      <trkpt lat="47.64025" lon="6.20179">
        <ele>357.2</ele>
        <time>2020-12-29T13:57:44Z</time>
      </trkpt>
      <trkpt lat="47.64031" lon="6.20176">
        <ele>356.8</ele>
        <time>2020-12-29T13:57:46Z</time>
      </trkpt>
      <trkpt lat="47.64038" lon="6.20174">
        <ele>356.3</ele>
        <time>2020-12-29T13:57:49Z</time>
      </trkpt>
      <trkpt lat="47.64043" lon="6.20172">
        <ele>356</ele>
        <time>2020-12-29T13:57:51Z</time>
      </trkpt>
      <trkpt lat="47.64047" lon="6.20169">
        <ele>355.6</ele>
        <time>2020-12-29T13:57:53Z</time>
      </trkpt>
      <trkpt lat="47.64052" lon="6.20166">
        <ele>355.2</ele>
        <time>2020-12-29T13:57:55Z</time>
      </trkpt>
      <trkpt lat="47.64057" lon="6.20162">
        <ele>354.9</ele>
        <time>2020-12-29T13:57:57Z</time>
      </trkpt>
      <trkpt lat="47.64062" lon="6.20157">
        <ele>354.6</ele>
        <time>2020-12-29T13:57:59Z</time>
      </trkpt>
      <trkpt lat="47.64066" lon="6.20153">
        <ele>354.4</ele>
        <time>2020-12-29T13:58:01Z</time>
      </trkpt>
      <trkpt lat="47.6407" lon="6.20148">
        <ele>354.2</ele>
        <time>2020-12-29T13:58:03Z</time>
      </trkpt>
      <trkpt lat="47.64074" lon="6.20141">
        <ele>354.1</ele>
        <time>2020-12-29T13:58:06Z</time>
      </trkpt>
      <trkpt lat="47.64078" lon="6.20131">
        <ele>354.1</ele>
        <time>2020-12-29T13:58:08Z</time>
      </trkpt>
      <trkpt lat="47.64081" lon="6.20121">
        <ele>354.2</ele>
        <time>2020-12-29T13:58:11Z</time>
      </trkpt>
      <trkpt lat="47.64084" lon="6.20112">
        <ele>354.3</ele>
        <time>2020-12-29T13:58:13Z</time>
      </trkpt>
      <trkpt lat="47.64086" lon="6.20102">
        <ele>354.4</ele>
        <time>2020-12-29T13:58:15Z</time>
      </trkpt>
      <trkpt lat="47.64088" lon="6.20093">
        <ele>354.5</ele>
        <time>2020-12-29T13:58:17Z</time>
      </trkpt>
      <trkpt lat="47.6409" lon="6.20086">
        <ele>354.6</ele>
        <time>2020-12-29T13:58:19Z</time>
      </trkpt>
      <trkpt lat="47.64091" lon="6.20077">
        <ele>354.7</ele>
        <time>2020-12-29T13:58:22Z</time>
      </trkpt>
      <trkpt lat="47.64092" lon="6.20069">
        <ele>354.7</ele>
        <time>2020-12-29T13:58:24Z</time>
      </trkpt>
      <trkpt lat="47.64091" lon="6.20062">
        <ele>354.9</ele>
        <time>2020-12-29T13:58:27Z</time>
      </trkpt>
      <trkpt lat="47.64089" lon="6.20054">
        <ele>355</ele>
        <time>2020-12-29T13:58:30Z</time>
      </trkpt>
      <trkpt lat="47.64087" lon="6.20049">
        <ele>355.2</ele>
        <time>2020-12-29T13:58:32Z</time>
      </trkpt>
      <trkpt lat="47.64084" lon="6.20043">
        <ele>355.5</ele>
        <time>2020-12-29T13:58:36Z</time>
      </trkpt>
      <trkpt lat="47.64082" lon="6.20036">
        <ele>355.6</ele>
        <time>2020-12-29T13:58:39Z</time>
      </trkpt>
      <trkpt lat="47.6408" lon="6.20029">
        <ele>355.7</ele>
        <time>2020-12-29T13:58:41Z</time>
      </trkpt>
      <trkpt lat="47.64078" lon="6.2002">
        <ele>355.8</ele>
        <time>2020-12-29T13:58:44Z</time>
      </trkpt>
      <trkpt lat="47.64077" lon="6.20012">
        <ele>355.9</ele>
        <time>2020-12-29T13:58:47Z</time>
      </trkpt>
      <trkpt lat="47.64079" lon="6.20003">
        <ele>356</ele>
        <time>2020-12-29T13:58:49Z</time>
      </trkpt>
      <trkpt lat="47.64081" lon="6.19995">
        <ele>356</ele>
        <time>2020-12-29T13:58:52Z</time>
      </trkpt>
      <trkpt lat="47.64084" lon="6.19988">
        <ele>355.8</ele>
        <time>2020-12-29T13:58:54Z</time>
      </trkpt>
      <trkpt lat="47.64087" lon="6.19978">
        <ele>355.5</ele>
        <time>2020-12-29T13:58:57Z</time>
      </trkpt>
      <trkpt lat="47.64091" lon="6.19971">
        <ele>355.2</ele>
        <time>2020-12-29T13:59:00Z</time>
      </trkpt>
      <trkpt lat="47.64097" lon="6.19964">
        <ele>354.9</ele>
        <time>2020-12-29T13:59:03Z</time>
      </trkpt>
      <trkpt lat="47.641" lon="6.19959">
        <ele>354.7</ele>
        <time>2020-12-29T13:59:04Z</time>
      </trkpt>
      <trkpt lat="47.64105" lon="6.19954">
        <ele>354.5</ele>
        <time>2020-12-29T13:59:06Z</time>
      </trkpt>
      <trkpt lat="47.6411" lon="6.19948">
        <ele>354.2</ele>
        <time>2020-12-29T13:59:08Z</time>
      </trkpt>
      <trkpt lat="47.64115" lon="6.19942">
        <ele>354</ele>
        <time>2020-12-29T13:59:10Z</time>
      </trkpt>
      <trkpt lat="47.64119" lon="6.19936">
        <ele>353.8</ele>
        <time>2020-12-29T13:59:12Z</time>
      </trkpt>
      <trkpt lat="47.64124" lon="6.19928">
        <ele>353.5</ele>
        <time>2020-12-29T13:59:15Z</time>
      </trkpt>
      <trkpt lat="47.64127" lon="6.19922">
        <ele>353.4</ele>
        <time>2020-12-29T13:59:16Z</time>
      </trkpt>
      <trkpt lat="47.64131" lon="6.19915">
        <ele>353.3</ele>
        <time>2020-12-29T13:59:18Z</time>
      </trkpt>
      <trkpt lat="47.64135" lon="6.19908">
        <ele>353.1</ele>
        <time>2020-12-29T13:59:20Z</time>
      </trkpt>
      <trkpt lat="47.64138" lon="6.199">
        <ele>352.9</ele>
        <time>2020-12-29T13:59:22Z</time>
      </trkpt>
      <trkpt lat="47.64141" lon="6.19894">
        <ele>352.7</ele>
        <time>2020-12-29T13:59:24Z</time>
      </trkpt>
      <trkpt lat="47.64144" lon="6.19887">
        <ele>352.5</ele>
        <time>2020-12-29T13:59:26Z</time>
      </trkpt>
      <trkpt lat="47.64149" lon="6.19881">
        <ele>352.3</ele>
        <time>2020-12-29T13:59:28Z</time>
      </trkpt>
      <trkpt lat="47.64154" lon="6.19875">
        <ele>352</ele>
        <time>2020-12-29T13:59:31Z</time>
      </trkpt>
      <trkpt lat="47.6416" lon="6.19871">
        <ele>351.7</ele>
        <time>2020-12-29T13:59:33Z</time>
      </trkpt>
      <trkpt lat="47.64165" lon="6.19868">
        <ele>351.5</ele>
        <time>2020-12-29T13:59:35Z</time>
      </trkpt>
      <trkpt lat="47.6417" lon="6.19865">
        <ele>351.2</ele>
        <time>2020-12-29T13:59:37Z</time>
      </trkpt>
      <trkpt lat="47.64177" lon="6.19861">
        <ele>350.8</ele>
        <time>2020-12-29T13:59:39Z</time>
      </trkpt>
      <trkpt lat="47.64182" lon="6.19858">
        <ele>350.5</ele>
        <time>2020-12-29T13:59:42Z</time>
      </trkpt>
      <trkpt lat="47.64188" lon="6.19854">
        <ele>350.2</ele>
        <time>2020-12-29T13:59:44Z</time>
      </trkpt>
      <trkpt lat="47.64193" lon="6.19852">
        <ele>350</ele>
        <time>2020-12-29T13:59:47Z</time>
      </trkpt>
      <trkpt lat="47.64198" lon="6.19853">
        <ele>349.7</ele>
        <time>2020-12-29T13:59:50Z</time>
      </trkpt>
      <trkpt lat="47.64205" lon="6.19852">
        <ele>349.4</ele>
        <time>2020-12-29T13:59:52Z</time>
      </trkpt>
      <trkpt lat="47.64212" lon="6.19853">
        <ele>349.1</ele>
        <time>2020-12-29T13:59:54Z</time>
      </trkpt>
      <trkpt lat="47.64219" lon="6.19853">
        <ele>348.7</ele>
        <time>2020-12-29T13:59:56Z</time>
      </trkpt>
      <trkpt lat="47.64226" lon="6.19854">
        <ele>348.4</ele>
        <time>2020-12-29T13:59:59Z</time>
      </trkpt>
      <trkpt lat="47.64233" lon="6.19854">
        <ele>348.1</ele>
        <time>2020-12-29T14:00:00Z</time>
      </trkpt>
      <trkpt lat="47.64238" lon="6.19856">
        <ele>347.8</ele>
        <time>2020-12-29T14:00:02Z</time>
      </trkpt>
      <trkpt lat="47.64242" lon="6.19858">
        <ele>347.7</ele>
        <time>2020-12-29T14:00:05Z</time>
      </trkpt>
      <trkpt lat="47.64248" lon="6.1986">
        <ele>347.4</ele>
        <time>2020-12-29T14:00:08Z</time>
      </trkpt>
      <trkpt lat="47.64254" lon="6.19861">
        <ele>347</ele>
        <time>2020-12-29T14:00:10Z</time>
      </trkpt>
      <trkpt lat="47.64259" lon="6.19862">
        <ele>346.6</ele>
        <time>2020-12-29T14:00:12Z</time>
      </trkpt>
      <trkpt lat="47.64264" lon="6.19865">
        <ele>346.1</ele>
        <time>2020-12-29T14:00:15Z</time>
      </trkpt>
      <trkpt lat="47.64269" lon="6.19868">
        <ele>345.7</ele>
        <time>2020-12-29T14:00:17Z</time>
      </trkpt>
      <trkpt lat="47.64274" lon="6.19872">
        <ele>345.3</ele>
        <time>2020-12-29T14:00:19Z</time>
      </trkpt>
      <trkpt lat="47.64278" lon="6.19875">
        <ele>345</ele>
        <time>2020-12-29T14:00:21Z</time>
      </trkpt>
      <trkpt lat="47.64285" lon="6.19877">
        <ele>344.4</ele>
        <time>2020-12-29T14:00:24Z</time>
      </trkpt>
      <trkpt lat="47.6429" lon="6.19875">
        <ele>343.9</ele>
        <time>2020-12-29T14:00:27Z</time>
      </trkpt>
      <trkpt lat="47.64296" lon="6.19873">
        <ele>343.3</ele>
        <time>2020-12-29T14:00:32Z</time>
      </trkpt>
      <trkpt lat="47.64303" lon="6.19871">
        <ele>342.8</ele>
        <time>2020-12-29T14:00:36Z</time>
      </trkpt>
      <trkpt lat="47.64307" lon="6.1987">
        <ele>342.3</ele>
        <time>2020-12-29T14:00:40Z</time>
      </trkpt>
      <trkpt lat="47.64312" lon="6.19867">
        <ele>341.9</ele>
        <time>2020-12-29T14:00:43Z</time>
      </trkpt>
      <trkpt lat="47.64317" lon="6.19863">
        <ele>341.4</ele>
        <time>2020-12-29T14:00:47Z</time>
      </trkpt>
      <trkpt lat="47.64322" lon="6.19863">
        <ele>341</ele>
        <time>2020-12-29T14:00:49Z</time>
      </trkpt>
      <trkpt lat="47.64328" lon="6.19861">
        <ele>340.5</ele>
        <time>2020-12-29T14:00:54Z</time>
      </trkpt>
      <trkpt lat="47.64333" lon="6.19861">
        <ele>340</ele>
        <time>2020-12-29T14:00:56Z</time>
      </trkpt>
      <trkpt lat="47.64338" lon="6.19862">
        <ele>339.5</ele>
        <time>2020-12-29T14:00:59Z</time>
      </trkpt>
      <trkpt lat="47.64345" lon="6.19863">
        <ele>338.9</ele>
        <time>2020-12-29T14:01:03Z</time>
      </trkpt>
      <trkpt lat="47.6435" lon="6.19864">
        <ele>338.4</ele>
        <time>2020-12-29T14:01:06Z</time>
      </trkpt>
      <trkpt lat="47.64356" lon="6.19865">
        <ele>337.8</ele>
        <time>2020-12-29T14:01:09Z</time>
      </trkpt>
      <trkpt lat="47.6436" lon="6.19867">
        <ele>337.3</ele>
        <time>2020-12-29T14:01:13Z</time>
      </trkpt>
      <trkpt lat="47.64365" lon="6.1987">
        <ele>336.7</ele>
        <time>2020-12-29T14:01:17Z</time>
      </trkpt>
      <trkpt lat="47.64368" lon="6.19876">
        <ele>336.3</ele>
        <time>2020-12-29T14:01:20Z</time>
      </trkpt>
      <trkpt lat="47.64369" lon="6.19882">
        <ele>335.9</ele>
        <time>2020-12-29T14:01:25Z</time>
      </trkpt>
      <trkpt lat="47.64373" lon="6.19886">
        <ele>335.3</ele>
        <time>2020-12-29T14:01:28Z</time>
      </trkpt>
      <trkpt lat="47.64379" lon="6.19889">
        <ele>334.5</ele>
        <time>2020-12-29T14:01:30Z</time>
      </trkpt>
      <trkpt lat="47.64384" lon="6.19891">
        <ele>333.9</ele>
        <time>2020-12-29T14:01:33Z</time>
      </trkpt>
      <trkpt lat="47.64389" lon="6.19892">
        <ele>333.2</ele>
        <time>2020-12-29T14:01:37Z</time>
      </trkpt>
      <trkpt lat="47.64395" lon="6.19891">
        <ele>332.5</ele>
        <time>2020-12-29T14:01:40Z</time>
      </trkpt>
      <trkpt lat="47.644" lon="6.1989">
        <ele>331.9</ele>
        <time>2020-12-29T14:01:42Z</time>
      </trkpt>
      <trkpt lat="47.64405" lon="6.19891">
        <ele>331.3</ele>
        <time>2020-12-29T14:01:45Z</time>
      </trkpt>
      <trkpt lat="47.64411" lon="6.19892">
        <ele>330.5</ele>
        <time>2020-12-29T14:01:48Z</time>
      </trkpt>
      <trkpt lat="47.64417" lon="6.19893">
        <ele>329.6</ele>
        <time>2020-12-29T14:01:51Z</time>
      </trkpt>
      <trkpt lat="47.64423" lon="6.19894">
        <ele>328.6</ele>
        <time>2020-12-29T14:01:55Z</time>
      </trkpt>
      <trkpt lat="47.64427" lon="6.19896">
        <ele>327.7</ele>
        <time>2020-12-29T14:01:59Z</time>
      </trkpt>
      <trkpt lat="47.64431" lon="6.199">
        <ele>326.8</ele>
        <time>2020-12-29T14:02:04Z</time>
      </trkpt>
      <trkpt lat="47.64434" lon="6.19907">
        <ele>325.9</ele>
        <time>2020-12-29T14:02:12Z</time>
      </trkpt>
      <trkpt lat="47.64436" lon="6.19914">
        <ele>325.1</ele>
        <time>2020-12-29T14:02:16Z</time>
      </trkpt>
      <trkpt lat="47.64438" lon="6.1992">
        <ele>324.4</ele>
        <time>2020-12-29T14:02:23Z</time>
      </trkpt>
      <trkpt lat="47.6444" lon="6.19927">
        <ele>323.7</ele>
        <time>2020-12-29T14:02:39Z</time>
      </trkpt>
      <trkpt lat="47.64445" lon="6.19926">
        <ele>322.9</ele>
        <time>2020-12-29T14:03:10Z</time>
      </trkpt>
      <trkpt lat="47.64451" lon="6.1993">
        <ele>321.6</ele>
        <time>2020-12-29T14:03:15Z</time>
      </trkpt>
      <trkpt lat="47.64455" lon="6.19932">
        <ele>320.6</ele>
        <time>2020-12-29T14:03:19Z</time>
      </trkpt>
      <trkpt lat="47.64459" lon="6.19933">
        <ele>319.7</ele>
        <time>2020-12-29T14:03:25Z</time>
      </trkpt>
      <trkpt lat="47.64464" lon="6.19933">
        <ele>318.8</ele>
        <time>2020-12-29T14:03:32Z</time>
      </trkpt>
      <trkpt lat="47.64469" lon="6.19935">
        <ele>317.8</ele>
        <time>2020-12-29T14:04:02Z</time>
      </trkpt>
      <trkpt lat="47.64474" lon="6.19936">
        <ele>316.7</ele>
        <time>2020-12-29T14:04:06Z</time>
      </trkpt>
      <trkpt lat="47.6448" lon="6.1994">
        <ele>315.3</ele>
        <time>2020-12-29T14:04:09Z</time>
      </trkpt>
      <trkpt lat="47.64484" lon="6.19943">
        <ele>314</ele>
        <time>2020-12-29T14:04:13Z</time>
      </trkpt>
      <trkpt lat="47.64489" lon="6.19943">
        <ele>313</ele>
        <time>2020-12-29T14:04:22Z</time>
      </trkpt>
      <trkpt lat="47.64494" lon="6.19937">
        <ele>313</ele>
        <time>2020-12-29T14:04:25Z</time>
      </trkpt>
      <trkpt lat="47.64501" lon="6.19928">
        <ele>313</ele>
        <time>2020-12-29T14:04:27Z</time>
      </trkpt>
      <trkpt lat="47.64505" lon="6.19924">
        <ele>312.3</ele>
        <time>2020-12-29T14:04:28Z</time>
      </trkpt>
      <trkpt lat="47.64512" lon="6.19915">
        <ele>311.2</ele>
        <time>2020-12-29T14:04:29Z</time>
      </trkpt>
      <trkpt lat="47.64518" lon="6.19906">
        <ele>309.5</ele>
        <time>2020-12-29T14:04:30Z</time>
      </trkpt>
      <trkpt lat="47.64521" lon="6.19901">
        <ele>308.6</ele>
        <time>2020-12-29T14:04:31Z</time>
      </trkpt>
      <trkpt lat="47.64525" lon="6.19893">
        <ele>307.3</ele>
        <time>2020-12-29T14:04:32Z</time>
      </trkpt>
      <trkpt lat="47.64529" lon="6.19887">
        <ele>306.3</ele>
        <time>2020-12-29T14:04:33Z</time>
      </trkpt>
      <trkpt lat="47.64534" lon="6.19877">
        <ele>304.8</ele>
        <time>2020-12-29T14:04:35Z</time>
      </trkpt>
      <trkpt lat="47.64539" lon="6.19869">
        <ele>303.4</ele>
        <time>2020-12-29T14:04:37Z</time>
      </trkpt>
      <trkpt lat="47.64544" lon="6.19865">
        <ele>301.7</ele>
        <time>2020-12-29T14:04:39Z</time>
      </trkpt>
      <trkpt lat="47.64546" lon="6.19858">
        <ele>301.2</ele>
        <time>2020-12-29T14:04:54Z</time>
      </trkpt>
      <trkpt lat="47.64548" lon="6.19853">
        <ele>300.4</ele>
        <time>2020-12-29T14:05:13Z</time>
      </trkpt>
      <trkpt lat="47.64549" lon="6.19843">
        <ele>300.2</ele>
        <time>2020-12-29T14:05:39Z</time>
      </trkpt>
      <trkpt lat="47.64551" lon="6.19834">
        <ele>299.7</ele>
        <time>2020-12-29T14:05:42Z</time>
      </trkpt>
      <trkpt lat="47.64552" lon="6.19824">
        <ele>298.9</ele>
        <time>2020-12-29T14:05:44Z</time>
      </trkpt>
      <trkpt lat="47.64553" lon="6.19815">
        <ele>298.4</ele>
        <time>2020-12-29T14:05:46Z</time>
      </trkpt>
      <trkpt lat="47.64554" lon="6.19805">
        <ele>297.9</ele>
        <time>2020-12-29T14:05:48Z</time>
      </trkpt>
      <trkpt lat="47.64554" lon="6.19798">
        <ele>297.6</ele>
        <time>2020-12-29T14:05:50Z</time>
      </trkpt>
      <trkpt lat="47.64554" lon="6.19789">
        <ele>297.1</ele>
        <time>2020-12-29T14:05:53Z</time>
      </trkpt>
      <trkpt lat="47.64557" lon="6.19781">
        <ele>295.9</ele>
        <time>2020-12-29T14:06:15Z</time>
      </trkpt>
      <trkpt lat="47.6456" lon="6.19773">
        <ele>294.8</ele>
        <time>2020-12-29T14:06:18Z</time>
      </trkpt>
      <trkpt lat="47.64562" lon="6.19766">
        <ele>293.8</ele>
        <time>2020-12-29T14:06:20Z</time>
      </trkpt>
      <trkpt lat="47.64565" lon="6.19756">
        <ele>292.6</ele>
        <time>2020-12-29T14:06:22Z</time>
      </trkpt>
      <trkpt lat="47.64566" lon="6.19746">
        <ele>291.7</ele>
        <time>2020-12-29T14:06:24Z</time>
      </trkpt>
      <trkpt lat="47.64567" lon="6.1974">
        <ele>291.1</ele>
        <time>2020-12-29T14:06:25Z</time>
      </trkpt>
      <trkpt lat="47.64566" lon="6.1973">
        <ele>290.6</ele>
        <time>2020-12-29T14:06:27Z</time>
      </trkpt>
      <trkpt lat="47.64567" lon="6.19717">
        <ele>289.6</ele>
        <time>2020-12-29T14:06:29Z</time>
      </trkpt>
      <trkpt lat="47.64565" lon="6.19704">
        <ele>289.3</ele>
        <time>2020-12-29T14:06:31Z</time>
      </trkpt>
      <trkpt lat="47.64564" lon="6.19697">
        <ele>289.2</ele>
        <time>2020-12-29T14:06:32Z</time>
      </trkpt>
      <trkpt lat="47.64564" lon="6.1969">
        <ele>289.1</ele>
        <time>2020-12-29T14:06:33Z</time>
      </trkpt>
      <trkpt lat="47.64561" lon="6.19678">
        <ele>289.4</ele>
        <time>2020-12-29T14:06:35Z</time>
      </trkpt>
      <trkpt lat="47.6456" lon="6.19671">
        <ele>289.4</ele>
        <time>2020-12-29T14:06:36Z</time>
      </trkpt>
      <trkpt lat="47.64558" lon="6.19661">
        <ele>289.3</ele>
        <time>2020-12-29T14:06:38Z</time>
      </trkpt>
      <trkpt lat="47.64558" lon="6.19652">
        <ele>289.1</ele>
        <time>2020-12-29T14:06:39Z</time>
      </trkpt>
      <trkpt lat="47.64557" lon="6.19645">
        <ele>288.9</ele>
        <time>2020-12-29T14:06:40Z</time>
      </trkpt>
      <trkpt lat="47.64557" lon="6.19634">
        <ele>288.5</ele>
        <time>2020-12-29T14:06:42Z</time>
      </trkpt>
      <trkpt lat="47.64555" lon="6.19623">
        <ele>288.5</ele>
        <time>2020-12-29T14:06:44Z</time>
      </trkpt>
      <trkpt lat="47.64554" lon="6.19616">
        <ele>288.6</ele>
        <time>2020-12-29T14:06:45Z</time>
      </trkpt>
      <trkpt lat="47.64552" lon="6.19608">
        <ele>288.9</ele>
        <time>2020-12-29T14:06:47Z</time>
      </trkpt>
      <trkpt lat="47.6455" lon="6.196">
        <ele>289.3</ele>
        <time>2020-12-29T14:06:49Z</time>
      </trkpt>
      <trkpt lat="47.6455" lon="6.19593">
        <ele>289.3</ele>
        <time>2020-12-29T14:06:51Z</time>
      </trkpt>
      <trkpt lat="47.64548" lon="6.19584">
        <ele>289.5</ele>
        <time>2020-12-29T14:06:54Z</time>
      </trkpt>
      <trkpt lat="47.64547" lon="6.19576">
        <ele>289.1</ele>
        <time>2020-12-29T14:06:56Z</time>
      </trkpt>
      <trkpt lat="47.64546" lon="6.19569">
        <ele>288.6</ele>
        <time>2020-12-29T14:06:57Z</time>
      </trkpt>
      <trkpt lat="47.64546" lon="6.19561">
        <ele>287.9</ele>
        <time>2020-12-29T14:06:59Z</time>
      </trkpt>
      <trkpt lat="47.64545" lon="6.19553">
        <ele>287.5</ele>
        <time>2020-12-29T14:07:01Z</time>
      </trkpt>
      <trkpt lat="47.64543" lon="6.19541">
        <ele>287.3</ele>
        <time>2020-12-29T14:07:03Z</time>
      </trkpt>
      <trkpt lat="47.64541" lon="6.19532">
        <ele>287.3</ele>
        <time>2020-12-29T14:07:05Z</time>
      </trkpt>
      <trkpt lat="47.6454" lon="6.19525">
        <ele>287.2</ele>
        <time>2020-12-29T14:07:06Z</time>
      </trkpt>
      <trkpt lat="47.64538" lon="6.19512">
        <ele>286.6</ele>
        <time>2020-12-29T14:07:08Z</time>
      </trkpt>
      <trkpt lat="47.64538" lon="6.19501">
        <ele>286</ele>
        <time>2020-12-29T14:07:10Z</time>
      </trkpt>
      <trkpt lat="47.64536" lon="6.19493">
        <ele>285.6</ele>
        <time>2020-12-29T14:07:11Z</time>
      </trkpt>
      <trkpt lat="47.64535" lon="6.19485">
        <ele>285.1</ele>
        <time>2020-12-29T14:07:12Z</time>
      </trkpt>
      <trkpt lat="47.64534" lon="6.19471">
        <ele>284.2</ele>
        <time>2020-12-29T14:07:14Z</time>
      </trkpt>
      <trkpt lat="47.64533" lon="6.1946">
        <ele>283.6</ele>
        <time>2020-12-29T14:07:15Z</time>
      </trkpt>
      <trkpt lat="47.64532" lon="6.19451">
        <ele>283.1</ele>
        <time>2020-12-29T14:07:16Z</time>
      </trkpt>
      <trkpt lat="47.64531" lon="6.19437">
        <ele>282.1</ele>
        <time>2020-12-29T14:07:18Z</time>
      </trkpt>
      <trkpt lat="47.6453" lon="6.19426">
        <ele>281.4</ele>
        <time>2020-12-29T14:07:20Z</time>
      </trkpt>
      <trkpt lat="47.64529" lon="6.19416">
        <ele>280.8</ele>
        <time>2020-12-29T14:07:21Z</time>
      </trkpt>
      <trkpt lat="47.64527" lon="6.19406">
        <ele>280.3</ele>
        <time>2020-12-29T14:07:23Z</time>
      </trkpt>
      <trkpt lat="47.64527" lon="6.19397">
        <ele>279.6</ele>
        <time>2020-12-29T14:07:25Z</time>
      </trkpt>
      <trkpt lat="47.64525" lon="6.19389">
        <ele>279.3</ele>
        <time>2020-12-29T14:07:26Z</time>
      </trkpt>
      <trkpt lat="47.64525" lon="6.19379">
        <ele>278.5</ele>
        <time>2020-12-29T14:07:28Z</time>
      </trkpt>
      <trkpt lat="47.64524" lon="6.19371">
        <ele>278</ele>
        <time>2020-12-29T14:07:29Z</time>
      </trkpt>
      <trkpt lat="47.64523" lon="6.19362">
        <ele>277.4</ele>
        <time>2020-12-29T14:07:31Z</time>
      </trkpt>
      <trkpt lat="47.64521" lon="6.19353">
        <ele>277.5</ele>
        <time>2020-12-29T14:07:33Z</time>
      </trkpt>
      <trkpt lat="47.6452" lon="6.19346">
        <ele>277.4</ele>
        <time>2020-12-29T14:07:34Z</time>
      </trkpt>
      <trkpt lat="47.64519" lon="6.19339">
        <ele>277</ele>
        <time>2020-12-29T14:07:36Z</time>
      </trkpt>
      <trkpt lat="47.64517" lon="6.1933">
        <ele>276.8</ele>
        <time>2020-12-29T14:07:37Z</time>
      </trkpt>
      <trkpt lat="47.64517" lon="6.1932">
        <ele>276.1</ele>
        <time>2020-12-29T14:07:39Z</time>
      </trkpt>
      <trkpt lat="47.64516" lon="6.19312">
        <ele>275.6</ele>
        <time>2020-12-29T14:07:41Z</time>
      </trkpt>
      <trkpt lat="47.64516" lon="6.19303">
        <ele>274.7</ele>
        <time>2020-12-29T14:07:43Z</time>
      </trkpt>
      <trkpt lat="47.64516" lon="6.19296">
        <ele>273.7</ele>
        <time>2020-12-29T14:07:44Z</time>
      </trkpt>
      <trkpt lat="47.64515" lon="6.19288">
        <ele>273.2</ele>
        <time>2020-12-29T14:07:46Z</time>
      </trkpt>
      <trkpt lat="47.64513" lon="6.19279">
        <ele>273</ele>
        <time>2020-12-29T14:07:49Z</time>
      </trkpt>
      <trkpt lat="47.64512" lon="6.19272">
        <ele>272.8</ele>
        <time>2020-12-29T14:07:51Z</time>
      </trkpt>
      <trkpt lat="47.64511" lon="6.19264">
        <ele>272.4</ele>
        <time>2020-12-29T14:07:53Z</time>
      </trkpt>
      <trkpt lat="47.6451" lon="6.19256">
        <ele>271.8</ele>
        <time>2020-12-29T14:07:54Z</time>
      </trkpt>
      <trkpt lat="47.6451" lon="6.19247">
        <ele>270.8</ele>
        <time>2020-12-29T14:07:56Z</time>
      </trkpt>
      <trkpt lat="47.6451" lon="6.19239">
        <ele>269.7</ele>
        <time>2020-12-29T14:07:58Z</time>
      </trkpt>
      <trkpt lat="47.64509" lon="6.19232">
        <ele>269.1</ele>
        <time>2020-12-29T14:07:59Z</time>
      </trkpt>
      <trkpt lat="47.6451" lon="6.19224">
        <ele>267.9</ele>
        <time>2020-12-29T14:08:01Z</time>
      </trkpt>
      <trkpt lat="47.6451" lon="6.19215">
        <ele>267</ele>
        <time>2020-12-29T14:08:03Z</time>
      </trkpt>
      <trkpt lat="47.64509" lon="6.19208">
        <ele>266.4</ele>
        <time>2020-12-29T14:08:05Z</time>
      </trkpt>
      <trkpt lat="47.64509" lon="6.192">
        <ele>265.5</ele>
        <time>2020-12-29T14:08:07Z</time>
      </trkpt>
      <trkpt lat="47.64508" lon="6.19192">
        <ele>264.9</ele>
        <time>2020-12-29T14:08:09Z</time>
      </trkpt>
      <trkpt lat="47.64507" lon="6.19184">
        <ele>264.1</ele>
        <time>2020-12-29T14:08:10Z</time>
      </trkpt>
      <trkpt lat="47.64507" lon="6.19176">
        <ele>263.2</ele>
        <time>2020-12-29T14:08:12Z</time>
      </trkpt>
      <trkpt lat="47.64507" lon="6.19169">
        <ele>262.4</ele>
        <time>2020-12-29T14:08:13Z</time>
      </trkpt>
      <trkpt lat="47.64506" lon="6.19162">
        <ele>261.8</ele>
        <time>2020-12-29T14:08:15Z</time>
      </trkpt>
      <trkpt lat="47.64506" lon="6.19152">
        <ele>261.3</ele>
        <time>2020-12-29T14:08:17Z</time>
      </trkpt>
      <trkpt lat="47.64504" lon="6.19145">
        <ele>261.3</ele>
        <time>2020-12-29T14:08:19Z</time>
      </trkpt>
      <trkpt lat="47.64502" lon="6.19137">
        <ele>261.3</ele>
        <time>2020-12-29T14:08:21Z</time>
      </trkpt>
      <trkpt lat="47.645" lon="6.19129">
        <ele>261.2</ele>
        <time>2020-12-29T14:08:24Z</time>
      </trkpt>
      <trkpt lat="47.645" lon="6.19121">
        <ele>260.6</ele>
        <time>2020-12-29T14:08:28Z</time>
      </trkpt>
      <trkpt lat="47.64499" lon="6.19115">
        <ele>260.3</ele>
        <time>2020-12-29T14:08:32Z</time>
      </trkpt>
      <trkpt lat="47.64499" lon="6.19108">
        <ele>259.8</ele>
        <time>2020-12-29T14:08:37Z</time>
      </trkpt>
      <trkpt lat="47.64499" lon="6.19101">
        <ele>259.1</ele>
        <time>2020-12-29T14:08:40Z</time>
      </trkpt>
      <trkpt lat="47.645" lon="6.19094">
        <ele>258</ele>
        <time>2020-12-29T14:08:43Z</time>
      </trkpt>
      <trkpt lat="47.64501" lon="6.19086">
        <ele>256.8</ele>
        <time>2020-12-29T14:08:46Z</time>
      </trkpt>
      <trkpt lat="47.64502" lon="6.19078">
        <ele>255.9</ele>
        <time>2020-12-29T14:08:49Z</time>
      </trkpt>
      <trkpt lat="47.64503" lon="6.19069">
        <ele>255.3</ele>
        <time>2020-12-29T14:08:52Z</time>
      </trkpt>
      <trkpt lat="47.64502" lon="6.19061">
        <ele>255.3</ele>
        <time>2020-12-29T14:08:55Z</time>
      </trkpt>
      <trkpt lat="47.645" lon="6.19053">
        <ele>255.5</ele>
        <time>2020-12-29T14:08:58Z</time>
      </trkpt>
      <trkpt lat="47.645" lon="6.19045">
        <ele>255.3</ele>
        <time>2020-12-29T14:09:00Z</time>
      </trkpt>
      <trkpt lat="47.64497" lon="6.19038">
        <ele>255.6</ele>
        <time>2020-12-29T14:09:03Z</time>
      </trkpt>
      <trkpt lat="47.64494" lon="6.1903">
        <ele>255.8</ele>
        <time>2020-12-29T14:09:06Z</time>
      </trkpt>
      <trkpt lat="47.64494" lon="6.19022">
        <ele>255.3</ele>
        <time>2020-12-29T14:09:09Z</time>
      </trkpt>
      <trkpt lat="47.64494" lon="6.19015">
        <ele>255</ele>
        <time>2020-12-29T14:09:12Z</time>
      </trkpt>
      <trkpt lat="47.64494" lon="6.19007">
        <ele>254.6</ele>
        <time>2020-12-29T14:09:15Z</time>
      </trkpt>
      <trkpt lat="47.64492" lon="6.18999">
        <ele>254.4</ele>
        <time>2020-12-29T14:09:18Z</time>
      </trkpt>
      <trkpt lat="47.6449" lon="6.18991">
        <ele>254.3</ele>
        <time>2020-12-29T14:09:20Z</time>
      </trkpt>
      <trkpt lat="47.64483" lon="6.18981">
        <ele>254.8</ele>
        <time>2020-12-29T14:09:23Z</time>
      </trkpt>
      <trkpt lat="47.6448" lon="6.18974">
        <ele>254.8</ele>
        <time>2020-12-29T14:09:26Z</time>
      </trkpt>
      <trkpt lat="47.64478" lon="6.18964">
        <ele>254.3</ele>
        <time>2020-12-29T14:09:29Z</time>
      </trkpt>
      <trkpt lat="47.64476" lon="6.18957">
        <ele>254</ele>
        <time>2020-12-29T14:09:31Z</time>
      </trkpt>
      <trkpt lat="47.64474" lon="6.18946">
        <ele>253.5</ele>
        <time>2020-12-29T14:09:33Z</time>
      </trkpt>
      <trkpt lat="47.64471" lon="6.18936">
        <ele>253.2</ele>
        <time>2020-12-29T14:09:35Z</time>
      </trkpt>
      <trkpt lat="47.64468" lon="6.18928">
        <ele>252.9</ele>
        <time>2020-12-29T14:09:37Z</time>
      </trkpt>
      <trkpt lat="47.64465" lon="6.1892">
        <ele>252.8</ele>
        <time>2020-12-29T14:09:39Z</time>
      </trkpt>
      <trkpt lat="47.64461" lon="6.18915">
        <ele>252.9</ele>
        <time>2020-12-29T14:09:41Z</time>
      </trkpt>
      <trkpt lat="47.64457" lon="6.18909">
        <ele>252.8</ele>
        <time>2020-12-29T14:09:43Z</time>
      </trkpt>
      <trkpt lat="47.64452" lon="6.18904">
        <ele>252.8</ele>
        <time>2020-12-29T14:09:46Z</time>
      </trkpt>
      <trkpt lat="47.64447" lon="6.18898">
        <ele>252.9</ele>
        <time>2020-12-29T14:09:49Z</time>
      </trkpt>
      <trkpt lat="47.64442" lon="6.18893">
        <ele>252.9</ele>
        <time>2020-12-29T14:09:52Z</time>
      </trkpt>
      <trkpt lat="47.64438" lon="6.18888">
        <ele>252.9</ele>
        <time>2020-12-29T14:09:55Z</time>
      </trkpt>
      <trkpt lat="47.64435" lon="6.18883">
        <ele>252.7</ele>
        <time>2020-12-29T14:09:58Z</time>
      </trkpt>
      <trkpt lat="47.6443" lon="6.18881">
        <ele>253.1</ele>
        <time>2020-12-29T14:10:07Z</time>
      </trkpt>
      <trkpt lat="47.64426" lon="6.18879">
        <ele>253.4</ele>
        <time>2020-12-29T14:10:13Z</time>
      </trkpt>
      <trkpt lat="47.6442" lon="6.18877">
        <ele>253.8</ele>
        <time>2020-12-29T14:10:16Z</time>
      </trkpt>
      <trkpt lat="47.64413" lon="6.18874">
        <ele>254.5</ele>
        <time>2020-12-29T14:10:19Z</time>
      </trkpt>
      <trkpt lat="47.64407" lon="6.18872">
        <ele>255.1</ele>
        <time>2020-12-29T14:10:21Z</time>
      </trkpt>
      <trkpt lat="47.64401" lon="6.18868">
        <ele>255.7</ele>
        <time>2020-12-29T14:10:23Z</time>
      </trkpt>
      <trkpt lat="47.64397" lon="6.18866">
        <ele>256.1</ele>
        <time>2020-12-29T14:10:25Z</time>
      </trkpt>
      <trkpt lat="47.6439" lon="6.18862">
        <ele>256.7</ele>
        <time>2020-12-29T14:10:28Z</time>
      </trkpt>
      <trkpt lat="47.64386" lon="6.18857">
        <ele>256.6</ele>
        <time>2020-12-29T14:10:30Z</time>
      </trkpt>
      <trkpt lat="47.64382" lon="6.18852">
        <ele>256.6</ele>
        <time>2020-12-29T14:10:33Z</time>
      </trkpt>
      <trkpt lat="47.64377" lon="6.18846">
        <ele>256.5</ele>
        <time>2020-12-29T14:10:35Z</time>
      </trkpt>
      <trkpt lat="47.64372" lon="6.1884">
        <ele>256.5</ele>
        <time>2020-12-29T14:10:38Z</time>
      </trkpt>
      <trkpt lat="47.64368" lon="6.18834">
        <ele>256.3</ele>
        <time>2020-12-29T14:10:40Z</time>
      </trkpt>
      <trkpt lat="47.64365" lon="6.18829">
        <ele>256</ele>
        <time>2020-12-29T14:10:42Z</time>
      </trkpt>
      <trkpt lat="47.64361" lon="6.18822">
        <ele>255.4</ele>
        <time>2020-12-29T14:10:45Z</time>
      </trkpt>
      <trkpt lat="47.64357" lon="6.18815">
        <ele>254.9</ele>
        <time>2020-12-29T14:10:48Z</time>
      </trkpt>
      <trkpt lat="47.64353" lon="6.18809">
        <ele>254.2</ele>
        <time>2020-12-29T14:10:50Z</time>
      </trkpt>
      <trkpt lat="47.6435" lon="6.18805">
        <ele>254.1</ele>
        <time>2020-12-29T14:10:53Z</time>
      </trkpt>
      <trkpt lat="47.64345" lon="6.188">
        <ele>253.9</ele>
        <time>2020-12-29T14:10:55Z</time>
      </trkpt>
      <trkpt lat="47.64341" lon="6.18795">
        <ele>253.5</ele>
        <time>2020-12-29T14:10:58Z</time>
      </trkpt>
      <trkpt lat="47.64337" lon="6.18789">
        <ele>253.1</ele>
        <time>2020-12-29T14:11:01Z</time>
      </trkpt>
      <trkpt lat="47.64332" lon="6.18784">
        <ele>252.8</ele>
        <time>2020-12-29T14:11:03Z</time>
      </trkpt>
      <trkpt lat="47.64326" lon="6.18778">
        <ele>252.7</ele>
        <time>2020-12-29T14:11:06Z</time>
      </trkpt>
      <trkpt lat="47.64323" lon="6.18773">
        <ele>252.5</ele>
        <time>2020-12-29T14:11:08Z</time>
      </trkpt>
      <trkpt lat="47.64318" lon="6.18768">
        <ele>252.4</ele>
        <time>2020-12-29T14:11:10Z</time>
      </trkpt>
      <trkpt lat="47.64313" lon="6.18764">
        <ele>252.6</ele>
        <time>2020-12-29T14:11:12Z</time>
      </trkpt>
      <trkpt lat="47.64309" lon="6.18761">
        <ele>252.9</ele>
        <time>2020-12-29T14:11:14Z</time>
      </trkpt>
      <trkpt lat="47.64303" lon="6.18756">
        <ele>253.2</ele>
        <time>2020-12-29T14:11:17Z</time>
      </trkpt>
      <trkpt lat="47.64299" lon="6.18753">
        <ele>253.4</ele>
        <time>2020-12-29T14:11:19Z</time>
      </trkpt>
      <trkpt lat="47.64293" lon="6.18748">
        <ele>253.7</ele>
        <time>2020-12-29T14:11:22Z</time>
      </trkpt>
      <trkpt lat="47.64289" lon="6.18744">
        <ele>253.9</ele>
        <time>2020-12-29T14:11:25Z</time>
      </trkpt>
      <trkpt lat="47.64285" lon="6.18738">
        <ele>253.6</ele>
        <time>2020-12-29T14:11:28Z</time>
      </trkpt>
      <trkpt lat="47.64281" lon="6.18733">
        <ele>253.6</ele>
        <time>2020-12-29T14:11:30Z</time>
      </trkpt>
      <trkpt lat="47.64277" lon="6.18729">
        <ele>253.5</ele>
        <time>2020-12-29T14:11:32Z</time>
      </trkpt>
      <trkpt lat="47.64273" lon="6.18725">
        <ele>253.5</ele>
        <time>2020-12-29T14:11:34Z</time>
      </trkpt>
      <trkpt lat="47.64268" lon="6.1872">
        <ele>253.3</ele>
        <time>2020-12-29T14:11:36Z</time>
      </trkpt>
      <trkpt lat="47.64262" lon="6.18716">
        <ele>253.7</ele>
        <time>2020-12-29T14:11:40Z</time>
      </trkpt>
      <trkpt lat="47.64258" lon="6.18713">
        <ele>253.9</ele>
        <time>2020-12-29T14:11:43Z</time>
      </trkpt>
      <trkpt lat="47.64255" lon="6.18707">
        <ele>253.3</ele>
        <time>2020-12-29T14:11:45Z</time>
      </trkpt>
      <trkpt lat="47.64251" lon="6.18701">
        <ele>252.9</ele>
        <time>2020-12-29T14:11:47Z</time>
      </trkpt>
      <trkpt lat="47.64247" lon="6.18696">
        <ele>252.5</ele>
        <time>2020-12-29T14:11:50Z</time>
      </trkpt>
      <trkpt lat="47.64244" lon="6.1869">
        <ele>251.9</ele>
        <time>2020-12-29T14:11:52Z</time>
      </trkpt>
      <trkpt lat="47.6424" lon="6.18684">
        <ele>251.5</ele>
        <time>2020-12-29T14:11:54Z</time>
      </trkpt>
      <trkpt lat="47.64236" lon="6.18678">
        <ele>251</ele>
        <time>2020-12-29T14:11:57Z</time>
      </trkpt>
      <trkpt lat="47.64233" lon="6.18671">
        <ele>250.5</ele>
        <time>2020-12-29T14:12:00Z</time>
      </trkpt>
      <trkpt lat="47.64229" lon="6.18665">
        <ele>250.3</ele>
        <time>2020-12-29T14:12:02Z</time>
      </trkpt>
      <trkpt lat="47.64225" lon="6.1866">
        <ele>250.1</ele>
        <time>2020-12-29T14:12:04Z</time>
      </trkpt>
      <trkpt lat="47.64222" lon="6.18655">
        <ele>249.6</ele>
        <time>2020-12-29T14:12:06Z</time>
      </trkpt>
      <trkpt lat="47.64216" lon="6.18649">
        <ele>249.7</ele>
        <time>2020-12-29T14:12:09Z</time>
      </trkpt>
      <trkpt lat="47.64212" lon="6.18644">
        <ele>249.6</ele>
        <time>2020-12-29T14:12:12Z</time>
      </trkpt>
      <trkpt lat="47.64208" lon="6.18638">
        <ele>249.3</ele>
        <time>2020-12-29T14:12:14Z</time>
      </trkpt>
      <trkpt lat="47.64203" lon="6.18632">
        <ele>249.3</ele>
        <time>2020-12-29T14:12:17Z</time>
      </trkpt>
      <trkpt lat="47.64198" lon="6.18623">
        <ele>248.8</ele>
        <time>2020-12-29T14:12:20Z</time>
      </trkpt>
      <trkpt lat="47.64194" lon="6.18616">
        <ele>248.5</ele>
        <time>2020-12-29T14:12:23Z</time>
      </trkpt>
      <trkpt lat="47.6419" lon="6.18611">
        <ele>248.3</ele>
        <time>2020-12-29T14:12:25Z</time>
      </trkpt>
      <trkpt lat="47.64186" lon="6.18604">
        <ele>247.9</ele>
        <time>2020-12-29T14:12:28Z</time>
      </trkpt>
      <trkpt lat="47.64183" lon="6.18598">
        <ele>247.5</ele>
        <time>2020-12-29T14:12:30Z</time>
      </trkpt>
      <trkpt lat="47.64179" lon="6.18591">
        <ele>247.3</ele>
        <time>2020-12-29T14:12:33Z</time>
      </trkpt>
      <trkpt lat="47.64175" lon="6.18585">
        <ele>247</ele>
        <time>2020-12-29T14:12:36Z</time>
      </trkpt>
      <trkpt lat="47.64171" lon="6.18578">
        <ele>247.1</ele>
        <time>2020-12-29T14:12:38Z</time>
      </trkpt>
      <trkpt lat="47.64167" lon="6.18571">
        <ele>247.2</ele>
        <time>2020-12-29T14:12:41Z</time>
      </trkpt>
      <trkpt lat="47.64164" lon="6.18565">
        <ele>246.6</ele>
        <time>2020-12-29T14:12:43Z</time>
      </trkpt>
      <trkpt lat="47.64161" lon="6.1856">
        <ele>246.1</ele>
        <time>2020-12-29T14:12:44Z</time>
      </trkpt>
      <trkpt lat="47.64157" lon="6.18555">
        <ele>245.8</ele>
        <time>2020-12-29T14:12:47Z</time>
      </trkpt>
      <trkpt lat="47.64154" lon="6.1855">
        <ele>245.3</ele>
        <time>2020-12-29T14:12:49Z</time>
      </trkpt>
      <trkpt lat="47.6415" lon="6.18545">
        <ele>245</ele>
        <time>2020-12-29T14:12:51Z</time>
      </trkpt>
      <trkpt lat="47.64145" lon="6.18538">
        <ele>244.6</ele>
        <time>2020-12-29T14:12:53Z</time>
      </trkpt>
      <trkpt lat="47.64141" lon="6.18533">
        <ele>244.4</ele>
        <time>2020-12-29T14:12:54Z</time>
      </trkpt>
      <trkpt lat="47.64136" lon="6.18528">
        <ele>244.2</ele>
        <time>2020-12-29T14:12:55Z</time>
      </trkpt>
      <trkpt lat="47.64132" lon="6.18523">
        <ele>244.1</ele>
        <time>2020-12-29T14:12:56Z</time>
      </trkpt>
      <trkpt lat="47.64125" lon="6.18517">
        <ele>243.9</ele>
        <time>2020-12-29T14:12:58Z</time>
      </trkpt>
      <trkpt lat="47.64121" lon="6.18512">
        <ele>243.9</ele>
        <time>2020-12-29T14:13:00Z</time>
      </trkpt>
      <trkpt lat="47.64115" lon="6.18506">
        <ele>243.9</ele>
        <time>2020-12-29T14:13:01Z</time>
      </trkpt>
      <trkpt lat="47.64111" lon="6.18502">
        <ele>243.9</ele>
        <time>2020-12-29T14:13:02Z</time>
      </trkpt>
      <trkpt lat="47.64105" lon="6.18496">
        <ele>244</ele>
        <time>2020-12-29T14:13:04Z</time>
      </trkpt>
      <trkpt lat="47.641" lon="6.18491">
        <ele>244.1</ele>
        <time>2020-12-29T14:13:06Z</time>
      </trkpt>
      <trkpt lat="47.64095" lon="6.18486">
        <ele>244.1</ele>
        <time>2020-12-29T14:13:07Z</time>
      </trkpt>
      <trkpt lat="47.64091" lon="6.18483">
        <ele>244.2</ele>
        <time>2020-12-29T14:13:08Z</time>
      </trkpt>
      <trkpt lat="47.64086" lon="6.18478">
        <ele>244.2</ele>
        <time>2020-12-29T14:13:09Z</time>
      </trkpt>
      <trkpt lat="47.6408" lon="6.18474">
        <ele>244</ele>
        <time>2020-12-29T14:13:11Z</time>
      </trkpt>
      <trkpt lat="47.64074" lon="6.18469">
        <ele>243.7</ele>
        <time>2020-12-29T14:13:13Z</time>
      </trkpt>
      <trkpt lat="47.64068" lon="6.18464">
        <ele>243.4</ele>
        <time>2020-12-29T14:13:14Z</time>
      </trkpt>
      <trkpt lat="47.64059" lon="6.18457">
        <ele>243</ele>
        <time>2020-12-29T14:13:17Z</time>
      </trkpt>
      <trkpt lat="47.64054" lon="6.18454">
        <ele>242.9</ele>
        <time>2020-12-29T14:13:17Z</time>
      </trkpt>
      <trkpt lat="47.64049" lon="6.18451">
        <ele>242.8</ele>
        <time>2020-12-29T14:13:19Z</time>
      </trkpt>
      <trkpt lat="47.64044" lon="6.18447">
        <ele>242.7</ele>
        <time>2020-12-29T14:13:20Z</time>
      </trkpt>
      <trkpt lat="47.64038" lon="6.18442">
        <ele>242.5</ele>
        <time>2020-12-29T14:13:21Z</time>
      </trkpt>
      <trkpt lat="47.64032" lon="6.18438">
        <ele>242.3</ele>
        <time>2020-12-29T14:13:22Z</time>
      </trkpt>
      <trkpt lat="47.64024" lon="6.18432">
        <ele>242.1</ele>
        <time>2020-12-29T14:13:24Z</time>
      </trkpt>
      <trkpt lat="47.64019" lon="6.18428">
        <ele>242</ele>
        <time>2020-12-29T14:13:25Z</time>
      </trkpt>
      <trkpt lat="47.64013" lon="6.18425">
        <ele>242.1</ele>
        <time>2020-12-29T14:13:26Z</time>
      </trkpt>
      <trkpt lat="47.64006" lon="6.18425">
        <ele>242.5</ele>
        <time>2020-12-29T14:13:29Z</time>
      </trkpt>
      <trkpt lat="47.64002" lon="6.18421">
        <ele>242.3</ele>
        <time>2020-12-29T14:13:30Z</time>
      </trkpt>
      <trkpt lat="47.63998" lon="6.18412">
        <ele>241.5</ele>
        <time>2020-12-29T14:13:32Z</time>
      </trkpt>
      <trkpt lat="47.63999" lon="6.18404">
        <ele>240.5</ele>
        <time>2020-12-29T14:13:39Z</time>
      </trkpt>
      <trkpt lat="47.64" lon="6.18397">
        <ele>239.6</ele>
        <time>2020-12-29T14:13:40Z</time>
      </trkpt>
      <trkpt lat="47.64004" lon="6.18393">
        <ele>238.9</ele>
        <time>2020-12-29T14:13:42Z</time>
      </trkpt>
      <trkpt lat="47.64011" lon="6.1839">
        <ele>238.3</ele>
        <time>2020-12-29T14:13:43Z</time>
      </trkpt>
      <trkpt lat="47.64019" lon="6.18389">
        <ele>237.8</ele>
        <time>2020-12-29T14:13:45Z</time>
      </trkpt>
      <trkpt lat="47.64028" lon="6.18392">
        <ele>237.6</ele>
        <time>2020-12-29T14:13:47Z</time>
      </trkpt>
      <trkpt lat="47.64033" lon="6.18393">
        <ele>237.4</ele>
        <time>2020-12-29T14:13:48Z</time>
      </trkpt>
      <trkpt lat="47.6404" lon="6.18395">
        <ele>237.2</ele>
        <time>2020-12-29T14:13:49Z</time>
      </trkpt>
      <trkpt lat="47.64048" lon="6.18394">
        <ele>236.7</ele>
        <time>2020-12-29T14:13:50Z</time>
      </trkpt>
      <trkpt lat="47.64066" lon="6.18387">
        <ele>235.1</ele>
        <time>2020-12-29T14:13:52Z</time>
      </trkpt>
      <trkpt lat="47.64073" lon="6.18381">
        <ele>234.1</ele>
        <time>2020-12-29T14:13:53Z</time>
      </trkpt>
      <trkpt lat="47.64082" lon="6.18372">
        <ele>232.8</ele>
        <time>2020-12-29T14:13:54Z</time>
      </trkpt>
      <trkpt lat="47.64089" lon="6.18365">
        <ele>232.1</ele>
        <time>2020-12-29T14:13:55Z</time>
      </trkpt>
      <trkpt lat="47.64096" lon="6.18361">
        <ele>231.8</ele>
        <time>2020-12-29T14:13:56Z</time>
      </trkpt>
      <trkpt lat="47.64104" lon="6.18358">
        <ele>231.7</ele>
        <time>2020-12-29T14:13:57Z</time>
      </trkpt>
      <trkpt lat="47.6411" lon="6.18357">
        <ele>231.6</ele>
        <time>2020-12-29T14:13:58Z</time>
      </trkpt>
      <trkpt lat="47.64117" lon="6.18356">
        <ele>231.7</ele>
        <time>2020-12-29T14:13:59Z</time>
      </trkpt>
      <trkpt lat="47.64123" lon="6.18355">
        <ele>231.7</ele>
        <time>2020-12-29T14:14:00Z</time>
      </trkpt>
      <trkpt lat="47.64128" lon="6.18354">
        <ele>231.6</ele>
        <time>2020-12-29T14:14:01Z</time>
      </trkpt>
      <trkpt lat="47.64132" lon="6.18353">
        <ele>231.6</ele>
        <time>2020-12-29T14:14:02Z</time>
      </trkpt>
      <trkpt lat="47.6414" lon="6.18351">
        <ele>231.6</ele>
        <time>2020-12-29T14:14:04Z</time>
      </trkpt>
      <trkpt lat="47.64147" lon="6.18344">
        <ele>231.2</ele>
        <time>2020-12-29T14:14:06Z</time>
      </trkpt>
      <trkpt lat="47.64152" lon="6.18338">
        <ele>231</ele>
        <time>2020-12-29T14:14:07Z</time>
      </trkpt>
      <trkpt lat="47.64157" lon="6.18333">
        <ele>230.7</ele>
        <time>2020-12-29T14:14:08Z</time>
      </trkpt>
      <trkpt lat="47.64162" lon="6.18327">
        <ele>230.3</ele>
        <time>2020-12-29T14:14:09Z</time>
      </trkpt>
      <trkpt lat="47.64168" lon="6.18321">
        <ele>229.7</ele>
        <time>2020-12-29T14:14:10Z</time>
      </trkpt>
      <trkpt lat="47.64173" lon="6.18315">
        <ele>228.7</ele>
        <time>2020-12-29T14:14:11Z</time>
      </trkpt>
      <trkpt lat="47.64179" lon="6.18309">
        <ele>227.7</ele>
        <time>2020-12-29T14:14:12Z</time>
      </trkpt>
      <trkpt lat="47.64186" lon="6.18303">
        <ele>226.7</ele>
        <time>2020-12-29T14:14:13Z</time>
      </trkpt>
      <trkpt lat="47.64194" lon="6.18296">
        <ele>225.7</ele>
        <time>2020-12-29T14:14:14Z</time>
      </trkpt>
      <trkpt lat="47.64201" lon="6.18289">
        <ele>224.7</ele>
        <time>2020-12-29T14:14:15Z</time>
      </trkpt>
      <trkpt lat="47.64209" lon="6.18281">
        <ele>223.9</ele>
        <time>2020-12-29T14:14:16Z</time>
      </trkpt>
      <trkpt lat="47.64217" lon="6.18273">
        <ele>223.3</ele>
        <time>2020-12-29T14:14:17Z</time>
      </trkpt>
      <trkpt lat="47.64225" lon="6.18265">
        <ele>222.7</ele>
        <time>2020-12-29T14:14:18Z</time>
      </trkpt>
      <trkpt lat="47.64233" lon="6.18257">
        <ele>222.3</ele>
        <time>2020-12-29T14:14:19Z</time>
      </trkpt>
      <trkpt lat="47.6424" lon="6.1825">
        <ele>222.1</ele>
        <time>2020-12-29T14:14:20Z</time>
      </trkpt>
      <trkpt lat="47.64245" lon="6.18243">
        <ele>222</ele>
        <time>2020-12-29T14:14:21Z</time>
      </trkpt>
      <trkpt lat="47.64251" lon="6.18237">
        <ele>221.8</ele>
        <time>2020-12-29T14:14:22Z</time>
      </trkpt>
      <trkpt lat="47.64257" lon="6.18231">
        <ele>221.7</ele>
        <time>2020-12-29T14:14:23Z</time>
      </trkpt>
      <trkpt lat="47.64263" lon="6.18225">
        <ele>221.7</ele>
        <time>2020-12-29T14:14:24Z</time>
      </trkpt>
      <trkpt lat="47.64269" lon="6.1822">
        <ele>221.7</ele>
        <time>2020-12-29T14:14:25Z</time>
      </trkpt>
      <trkpt lat="47.64274" lon="6.18214">
        <ele>221.7</ele>
        <time>2020-12-29T14:14:26Z</time>
      </trkpt>
      <trkpt lat="47.6428" lon="6.18209">
        <ele>221.7</ele>
        <time>2020-12-29T14:14:27Z</time>
      </trkpt>
      <trkpt lat="47.64286" lon="6.18205">
        <ele>221.7</ele>
        <time>2020-12-29T14:14:28Z</time>
      </trkpt>
      <trkpt lat="47.64291" lon="6.18203">
        <ele>221.8</ele>
        <time>2020-12-29T14:14:29Z</time>
      </trkpt>
      <trkpt lat="47.64297" lon="6.18201">
        <ele>221.8</ele>
        <time>2020-12-29T14:14:30Z</time>
      </trkpt>
      <trkpt lat="47.64302" lon="6.18199">
        <ele>221.9</ele>
        <time>2020-12-29T14:14:31Z</time>
      </trkpt>
      <trkpt lat="47.64307" lon="6.18197">
        <ele>222</ele>
        <time>2020-12-29T14:14:32Z</time>
      </trkpt>
      <trkpt lat="47.64312" lon="6.18195">
        <ele>222.1</ele>
        <time>2020-12-29T14:14:33Z</time>
      </trkpt>
      <trkpt lat="47.64317" lon="6.18193">
        <ele>222.2</ele>
        <time>2020-12-29T14:14:34Z</time>
      </trkpt>
      <trkpt lat="47.64322" lon="6.18191">
        <ele>222.2</ele>
        <time>2020-12-29T14:14:35Z</time>
      </trkpt>
      <trkpt lat="47.64326" lon="6.1819">
        <ele>222.3</ele>
        <time>2020-12-29T14:14:36Z</time>
      </trkpt>
      <trkpt lat="47.64333" lon="6.18191">
        <ele>222.4</ele>
        <time>2020-12-29T14:14:38Z</time>
      </trkpt>
      <trkpt lat="47.64339" lon="6.18194">
        <ele>222.4</ele>
        <time>2020-12-29T14:14:40Z</time>
      </trkpt>
      <trkpt lat="47.64345" lon="6.18199">
        <ele>222.3</ele>
        <time>2020-12-29T14:14:43Z</time>
      </trkpt>
      <trkpt lat="47.64354" lon="6.18204">
        <ele>222.2</ele>
        <time>2020-12-29T14:14:45Z</time>
      </trkpt>
      <trkpt lat="47.64358" lon="6.18207">
        <ele>222.2</ele>
        <time>2020-12-29T14:14:47Z</time>
      </trkpt>
      <trkpt lat="47.64362" lon="6.18214">
        <ele>222.1</ele>
        <time>2020-12-29T14:14:49Z</time>
      </trkpt>
      <trkpt lat="47.64365" lon="6.18221">
        <ele>221.9</ele>
        <time>2020-12-29T14:14:51Z</time>
      </trkpt>
      <trkpt lat="47.6437" lon="6.18228">
        <ele>221.8</ele>
        <time>2020-12-29T14:14:52Z</time>
      </trkpt>
      <trkpt lat="47.64377" lon="6.18239">
        <ele>221.7</ele>
        <time>2020-12-29T14:14:54Z</time>
      </trkpt>
      <trkpt lat="47.64382" lon="6.18244">
        <ele>221.7</ele>
        <time>2020-12-29T14:14:55Z</time>
      </trkpt>
      <trkpt lat="47.64386" lon="6.18249">
        <ele>221.6</ele>
        <time>2020-12-29T14:14:56Z</time>
      </trkpt>
      <trkpt lat="47.64389" lon="6.18254">
        <ele>221.9</ele>
        <time>2020-12-29T14:14:57Z</time>
      </trkpt>
      <trkpt lat="47.64393" lon="6.18258">
        <ele>222.1</ele>
        <time>2020-12-29T14:14:58Z</time>
      </trkpt>
      <trkpt lat="47.64397" lon="6.18262">
        <ele>222.4</ele>
        <time>2020-12-29T14:14:59Z</time>
      </trkpt>
      <trkpt lat="47.64403" lon="6.18266">
        <ele>222.8</ele>
        <time>2020-12-29T14:15:00Z</time>
      </trkpt>
      <trkpt lat="47.64408" lon="6.18268">
        <ele>223</ele>
        <time>2020-12-29T14:15:02Z</time>
      </trkpt>
      <trkpt lat="47.64413" lon="6.18274">
        <ele>223.6</ele>
        <time>2020-12-29T14:15:04Z</time>
      </trkpt>
      <trkpt lat="47.64416" lon="6.18279">
        <ele>224.1</ele>
        <time>2020-12-29T14:15:05Z</time>
      </trkpt>
      <trkpt lat="47.64422" lon="6.18286">
        <ele>225.4</ele>
        <time>2020-12-29T14:15:07Z</time>
      </trkpt>
      <trkpt lat="47.64428" lon="6.18292">
        <ele>226.7</ele>
        <time>2020-12-29T14:15:09Z</time>
      </trkpt>
      <trkpt lat="47.64432" lon="6.18296">
        <ele>227.6</ele>
        <time>2020-12-29T14:15:10Z</time>
      </trkpt>
      <trkpt lat="47.64435" lon="6.18302">
        <ele>228.7</ele>
        <time>2020-12-29T14:15:13Z</time>
      </trkpt>
      <trkpt lat="47.6444" lon="6.18305">
        <ele>229.7</ele>
        <time>2020-12-29T14:15:15Z</time>
      </trkpt>
      <trkpt lat="47.64445" lon="6.18301">
        <ele>230.2</ele>
        <time>2020-12-29T14:15:19Z</time>
      </trkpt>
      <trkpt lat="47.64448" lon="6.18295">
        <ele>230.1</ele>
        <time>2020-12-29T14:15:22Z</time>
      </trkpt>
      <trkpt lat="47.64452" lon="6.18289">
        <ele>230</ele>
        <time>2020-12-29T14:15:24Z</time>
      </trkpt>
      <trkpt lat="47.64455" lon="6.18283">
        <ele>229.8</ele>
        <time>2020-12-29T14:15:27Z</time>
      </trkpt>
      <trkpt lat="47.6446" lon="6.18276">
        <ele>229.6</ele>
        <time>2020-12-29T14:15:30Z</time>
      </trkpt>
      <trkpt lat="47.64466" lon="6.18269">
        <ele>229.5</ele>
        <time>2020-12-29T14:15:33Z</time>
      </trkpt>
      <trkpt lat="47.64469" lon="6.18263">
        <ele>229.3</ele>
        <time>2020-12-29T14:15:35Z</time>
      </trkpt>
      <trkpt lat="47.64473" lon="6.18258">
        <ele>229.1</ele>
        <time>2020-12-29T14:15:37Z</time>
      </trkpt>
      <trkpt lat="47.64476" lon="6.18251">
        <ele>228.6</ele>
        <time>2020-12-29T14:15:38Z</time>
      </trkpt>
      <trkpt lat="47.64479" lon="6.18245">
        <ele>228.5</ele>
        <time>2020-12-29T14:15:40Z</time>
      </trkpt>
      <trkpt lat="47.64483" lon="6.18236">
        <ele>228.4</ele>
        <time>2020-12-29T14:15:42Z</time>
      </trkpt>
      <trkpt lat="47.64487" lon="6.18229">
        <ele>228.4</ele>
        <time>2020-12-29T14:15:43Z</time>
      </trkpt>
      <trkpt lat="47.64491" lon="6.1822">
        <ele>228.1</ele>
        <time>2020-12-29T14:15:46Z</time>
      </trkpt>
      <trkpt lat="47.64493" lon="6.18212">
        <ele>227.8</ele>
        <time>2020-12-29T14:15:47Z</time>
      </trkpt>
      <trkpt lat="47.64496" lon="6.18204">
        <ele>227.5</ele>
        <time>2020-12-29T14:15:50Z</time>
      </trkpt>
      <trkpt lat="47.645" lon="6.18198">
        <ele>227.2</ele>
        <time>2020-12-29T14:15:52Z</time>
      </trkpt>
      <trkpt lat="47.64502" lon="6.1819">
        <ele>227.1</ele>
        <time>2020-12-29T14:15:53Z</time>
      </trkpt>
      <trkpt lat="47.64505" lon="6.18178">
        <ele>226.8</ele>
        <time>2020-12-29T14:15:55Z</time>
      </trkpt>
      <trkpt lat="47.64501" lon="6.18168">
        <ele>225.3</ele>
        <time>2020-12-29T14:15:57Z</time>
      </trkpt>
      <trkpt lat="47.64498" lon="6.18157">
        <ele>224.7</ele>
        <time>2020-12-29T14:15:59Z</time>
      </trkpt>
      <trkpt lat="47.64498" lon="6.18148">
        <ele>224.5</ele>
        <time>2020-12-29T14:16:01Z</time>
      </trkpt>
      <trkpt lat="47.64497" lon="6.18141">
        <ele>224.3</ele>
        <time>2020-12-29T14:16:02Z</time>
      </trkpt>
      <trkpt lat="47.64497" lon="6.18132">
        <ele>224.1</ele>
        <time>2020-12-29T14:16:04Z</time>
      </trkpt>
      <trkpt lat="47.64498" lon="6.18125">
        <ele>224</ele>
        <time>2020-12-29T14:16:05Z</time>
      </trkpt>
      <trkpt lat="47.64499" lon="6.18111">
        <ele>223.7</ele>
        <time>2020-12-29T14:16:07Z</time>
      </trkpt>
      <trkpt lat="47.64501" lon="6.18099">
        <ele>223.5</ele>
        <time>2020-12-29T14:16:09Z</time>
      </trkpt>
      <trkpt lat="47.64503" lon="6.18087">
        <ele>223.8</ele>
        <time>2020-12-29T14:16:11Z</time>
      </trkpt>
      <trkpt lat="47.64505" lon="6.18079">
        <ele>224</ele>
        <time>2020-12-29T14:16:13Z</time>
      </trkpt>
      <trkpt lat="47.64507" lon="6.18072">
        <ele>224.4</ele>
        <time>2020-12-29T14:16:15Z</time>
      </trkpt>
      <trkpt lat="47.6451" lon="6.18063">
        <ele>224.9</ele>
        <time>2020-12-29T14:16:18Z</time>
      </trkpt>
      <trkpt lat="47.64513" lon="6.18055">
        <ele>225.2</ele>
        <time>2020-12-29T14:16:21Z</time>
      </trkpt>
      <trkpt lat="47.64514" lon="6.18048">
        <ele>225.3</ele>
        <time>2020-12-29T14:16:24Z</time>
      </trkpt>
      <trkpt lat="47.64509" lon="6.1805">
        <ele>224.5</ele>
        <time>2020-12-29T14:16:27Z</time>
      </trkpt>
      <trkpt lat="47.64502" lon="6.1805">
        <ele>223.4</ele>
        <time>2020-12-29T14:16:30Z</time>
      </trkpt>
      <trkpt lat="47.64497" lon="6.18046">
        <ele>223</ele>
        <time>2020-12-29T14:16:31Z</time>
      </trkpt>
      <trkpt lat="47.64491" lon="6.18042">
        <ele>222.9</ele>
        <time>2020-12-29T14:16:33Z</time>
      </trkpt>
      <trkpt lat="47.64485" lon="6.18038">
        <ele>222.9</ele>
        <time>2020-12-29T14:16:35Z</time>
      </trkpt>
      <trkpt lat="47.64476" lon="6.18035">
        <ele>222.8</ele>
        <time>2020-12-29T14:16:37Z</time>
      </trkpt>
      <trkpt lat="47.64469" lon="6.18039">
        <ele>222.8</ele>
        <time>2020-12-29T14:16:38Z</time>
      </trkpt>
      <trkpt lat="47.64467" lon="6.18046">
        <ele>222.8</ele>
        <time>2020-12-29T14:16:40Z</time>
      </trkpt>
      <trkpt lat="47.64465" lon="6.18053">
        <ele>222.8</ele>
        <time>2020-12-29T14:16:43Z</time>
      </trkpt>
      <trkpt lat="47.64462" lon="6.1806">
        <ele>222.9</ele>
        <time>2020-12-29T14:16:46Z</time>
      </trkpt>
      <trkpt lat="47.64459" lon="6.18065">
        <ele>222.9</ele>
        <time>2020-12-29T14:16:52Z</time>
      </trkpt>
      <trkpt lat="47.64455" lon="6.18068">
        <ele>222.9</ele>
        <time>2020-12-29T14:18:47Z</time>
      </trkpt>
      <trkpt lat="47.64459" lon="6.18063">
        <ele>222.9</ele>
        <time>2020-12-29T14:22:27Z</time>
      </trkpt>
      <trkpt lat="47.64461" lon="6.18057">
        <ele>222.9</ele>
        <time>2020-12-29T14:22:33Z</time>
      </trkpt>
      <trkpt lat="47.64463" lon="6.1805">
        <ele>222.8</ele>
        <time>2020-12-29T14:22:36Z</time>
      </trkpt>
      <trkpt lat="47.64465" lon="6.18043">
        <ele>222.8</ele>
        <time>2020-12-29T14:22:39Z</time>
      </trkpt>
      <trkpt lat="47.64469" lon="6.18041">
        <ele>222.8</ele>
        <time>2020-12-29T14:22:46Z</time>
      </trkpt>
      <trkpt lat="47.64474" lon="6.18042">
        <ele>222.8</ele>
        <time>2020-12-29T14:22:49Z</time>
      </trkpt>
      <trkpt lat="47.64478" lon="6.18044">
        <ele>222.9</ele>
        <time>2020-12-29T14:22:50Z</time>
      </trkpt>
      <trkpt lat="47.64485" lon="6.18047">
        <ele>222.9</ele>
        <time>2020-12-29T14:22:53Z</time>
      </trkpt>
      <trkpt lat="47.64489" lon="6.18048">
        <ele>222.9</ele>
        <time>2020-12-29T14:22:54Z</time>
      </trkpt>
      <trkpt lat="47.64496" lon="6.1805">
        <ele>223</ele>
        <time>2020-12-29T14:22:56Z</time>
      </trkpt>
      <trkpt lat="47.64503" lon="6.1805">
        <ele>223.6</ele>
        <time>2020-12-29T14:22:58Z</time>
      </trkpt>
      <trkpt lat="47.64512" lon="6.18046">
        <ele>225</ele>
        <time>2020-12-29T14:23:01Z</time>
      </trkpt>
      <trkpt lat="47.64517" lon="6.18041">
        <ele>225.8</ele>
        <time>2020-12-29T14:23:02Z</time>
      </trkpt>
      <trkpt lat="47.64522" lon="6.18038">
        <ele>226.5</ele>
        <time>2020-12-29T14:23:04Z</time>
      </trkpt>
      <trkpt lat="47.64527" lon="6.18034">
        <ele>227.2</ele>
        <time>2020-12-29T14:23:05Z</time>
      </trkpt>
      <trkpt lat="47.64532" lon="6.1803">
        <ele>227.8</ele>
        <time>2020-12-29T14:23:07Z</time>
      </trkpt>
      <trkpt lat="47.64536" lon="6.18026">
        <ele>228.2</ele>
        <time>2020-12-29T14:23:09Z</time>
      </trkpt>
      <trkpt lat="47.6454" lon="6.1802">
        <ele>228.6</ele>
        <time>2020-12-29T14:23:12Z</time>
      </trkpt>
      <trkpt lat="47.64543" lon="6.18014">
        <ele>228.8</ele>
        <time>2020-12-29T14:23:14Z</time>
      </trkpt>
      <trkpt lat="47.64546" lon="6.18008">
        <ele>228.9</ele>
        <time>2020-12-29T14:23:15Z</time>
      </trkpt>
      <trkpt lat="47.64549" lon="6.18002">
        <ele>229</ele>
        <time>2020-12-29T14:23:17Z</time>
      </trkpt>
      <trkpt lat="47.64552" lon="6.17996">
        <ele>228.9</ele>
        <time>2020-12-29T14:23:19Z</time>
      </trkpt>
      <trkpt lat="47.64556" lon="6.17986">
        <ele>228.6</ele>
        <time>2020-12-29T14:23:22Z</time>
      </trkpt>
      <trkpt lat="47.64559" lon="6.17978">
        <ele>228.3</ele>
        <time>2020-12-29T14:23:23Z</time>
      </trkpt>
      <trkpt lat="47.64562" lon="6.1797">
        <ele>227.9</ele>
        <time>2020-12-29T14:23:25Z</time>
      </trkpt>
      <trkpt lat="47.64565" lon="6.17959">
        <ele>227.3</ele>
        <time>2020-12-29T14:23:26Z</time>
      </trkpt>
      <trkpt lat="47.64568" lon="6.17952">
        <ele>226.8</ele>
        <time>2020-12-29T14:23:27Z</time>
      </trkpt>
      <trkpt lat="47.64571" lon="6.17942">
        <ele>226.1</ele>
        <time>2020-12-29T14:23:28Z</time>
      </trkpt>
      <trkpt lat="47.64575" lon="6.17935">
        <ele>225.6</ele>
        <time>2020-12-29T14:23:30Z</time>
      </trkpt>
      <trkpt lat="47.6458" lon="6.17929">
        <ele>225.2</ele>
        <time>2020-12-29T14:23:31Z</time>
      </trkpt>
      <trkpt lat="47.64588" lon="6.17915">
        <ele>223.9</ele>
        <time>2020-12-29T14:23:32Z</time>
      </trkpt>
      <trkpt lat="47.64593" lon="6.17907">
        <ele>223.9</ele>
        <time>2020-12-29T14:23:33Z</time>
      </trkpt>
      <trkpt lat="47.64599" lon="6.17901">
        <ele>223.8</ele>
        <time>2020-12-29T14:23:34Z</time>
      </trkpt>
      <trkpt lat="47.64604" lon="6.17895">
        <ele>223.6</ele>
        <time>2020-12-29T14:23:35Z</time>
      </trkpt>
      <trkpt lat="47.6461" lon="6.1789">
        <ele>223.5</ele>
        <time>2020-12-29T14:23:36Z</time>
      </trkpt>
      <trkpt lat="47.64615" lon="6.17887">
        <ele>223.3</ele>
        <time>2020-12-29T14:23:37Z</time>
      </trkpt>
      <trkpt lat="47.64621" lon="6.17887">
        <ele>223.1</ele>
        <time>2020-12-29T14:23:38Z</time>
      </trkpt>
      <trkpt lat="47.64626" lon="6.17888">
        <ele>223</ele>
        <time>2020-12-29T14:23:39Z</time>
      </trkpt>
      <trkpt lat="47.64632" lon="6.1789">
        <ele>222.8</ele>
        <time>2020-12-29T14:23:40Z</time>
      </trkpt>
      <trkpt lat="47.64637" lon="6.17892">
        <ele>222.6</ele>
        <time>2020-12-29T14:23:41Z</time>
      </trkpt>
      <trkpt lat="47.64642" lon="6.17894">
        <ele>222.5</ele>
        <time>2020-12-29T14:23:42Z</time>
      </trkpt>
      <trkpt lat="47.64647" lon="6.17895">
        <ele>222.3</ele>
        <time>2020-12-29T14:23:43Z</time>
      </trkpt>
      <trkpt lat="47.64652" lon="6.17897">
        <ele>222.2</ele>
        <time>2020-12-29T14:23:44Z</time>
      </trkpt>
      <trkpt lat="47.64657" lon="6.179">
        <ele>222.1</ele>
        <time>2020-12-29T14:23:45Z</time>
      </trkpt>
      <trkpt lat="47.64662" lon="6.17904">
        <ele>222</ele>
        <time>2020-12-29T14:23:46Z</time>
      </trkpt>
      <trkpt lat="47.64669" lon="6.17909">
        <ele>221.8</ele>
        <time>2020-12-29T14:23:48Z</time>
      </trkpt>
      <trkpt lat="47.64674" lon="6.17912">
        <ele>221.7</ele>
        <time>2020-12-29T14:23:49Z</time>
      </trkpt>
      <trkpt lat="47.64678" lon="6.17915">
        <ele>221.6</ele>
        <time>2020-12-29T14:23:49Z</time>
      </trkpt>
      <trkpt lat="47.64684" lon="6.1792">
        <ele>221.8</ele>
        <time>2020-12-29T14:23:51Z</time>
      </trkpt>
      <trkpt lat="47.6469" lon="6.17928">
        <ele>222.5</ele>
        <time>2020-12-29T14:23:53Z</time>
      </trkpt>
      <trkpt lat="47.64696" lon="6.17934">
        <ele>222.9</ele>
        <time>2020-12-29T14:23:55Z</time>
      </trkpt>
      <trkpt lat="47.647" lon="6.17941">
        <ele>223.3</ele>
        <time>2020-12-29T14:23:56Z</time>
      </trkpt>
      <trkpt lat="47.64704" lon="6.17948">
        <ele>223.7</ele>
        <time>2020-12-29T14:23:58Z</time>
      </trkpt>
      <trkpt lat="47.64707" lon="6.17953">
        <ele>223.9</ele>
        <time>2020-12-29T14:23:59Z</time>
      </trkpt>
      <trkpt lat="47.64711" lon="6.17959">
        <ele>224.1</ele>
        <time>2020-12-29T14:24:00Z</time>
      </trkpt>
      <trkpt lat="47.64714" lon="6.17965">
        <ele>224.2</ele>
        <time>2020-12-29T14:24:02Z</time>
      </trkpt>
      <trkpt lat="47.64718" lon="6.17973">
        <ele>224.4</ele>
        <time>2020-12-29T14:24:04Z</time>
      </trkpt>
      <trkpt lat="47.64722" lon="6.1798">
        <ele>224.4</ele>
        <time>2020-12-29T14:24:05Z</time>
      </trkpt>
      <trkpt lat="47.64725" lon="6.17985">
        <ele>224.2</ele>
        <time>2020-12-29T14:24:06Z</time>
      </trkpt>
      <trkpt lat="47.64728" lon="6.1799">
        <ele>224.1</ele>
        <time>2020-12-29T14:24:08Z</time>
      </trkpt>
      <trkpt lat="47.64732" lon="6.17996">
        <ele>223.9</ele>
        <time>2020-12-29T14:24:09Z</time>
      </trkpt>
      <trkpt lat="47.64737" lon="6.18005">
        <ele>224</ele>
        <time>2020-12-29T14:24:11Z</time>
      </trkpt>
      <trkpt lat="47.64741" lon="6.18011">
        <ele>224.5</ele>
        <time>2020-12-29T14:24:12Z</time>
      </trkpt>
      <trkpt lat="47.64745" lon="6.18019">
        <ele>225.2</ele>
        <time>2020-12-29T14:24:14Z</time>
      </trkpt>
      <trkpt lat="47.6475" lon="6.18027">
        <ele>225.9</ele>
        <time>2020-12-29T14:24:16Z</time>
      </trkpt>
      <trkpt lat="47.64755" lon="6.18035">
        <ele>227.1</ele>
        <time>2020-12-29T14:24:18Z</time>
      </trkpt>
      <trkpt lat="47.64759" lon="6.1804">
        <ele>227.8</ele>
        <time>2020-12-29T14:24:19Z</time>
      </trkpt>
      <trkpt lat="47.64764" lon="6.18048">
        <ele>228.7</ele>
        <time>2020-12-29T14:24:21Z</time>
      </trkpt>
      <trkpt lat="47.64771" lon="6.18054">
        <ele>229.1</ele>
        <time>2020-12-29T14:24:23Z</time>
      </trkpt>
      <trkpt lat="47.64779" lon="6.18059">
        <ele>229.1</ele>
        <time>2020-12-29T14:24:25Z</time>
      </trkpt>
      <trkpt lat="47.64786" lon="6.18062">
        <ele>228.9</ele>
        <time>2020-12-29T14:24:27Z</time>
      </trkpt>
      <trkpt lat="47.64792" lon="6.18063">
        <ele>228.4</ele>
        <time>2020-12-29T14:24:28Z</time>
      </trkpt>
      <trkpt lat="47.64799" lon="6.18064">
        <ele>227.9</ele>
        <time>2020-12-29T14:24:30Z</time>
      </trkpt>
      <trkpt lat="47.64807" lon="6.18066">
        <ele>227.2</ele>
        <time>2020-12-29T14:24:32Z</time>
      </trkpt>
      <trkpt lat="47.64813" lon="6.18067">
        <ele>226.7</ele>
        <time>2020-12-29T14:24:33Z</time>
      </trkpt>
      <trkpt lat="47.64818" lon="6.18069">
        <ele>226.3</ele>
        <time>2020-12-29T14:24:34Z</time>
      </trkpt>
      <trkpt lat="47.64824" lon="6.1807">
        <ele>225.7</ele>
        <time>2020-12-29T14:24:36Z</time>
      </trkpt>
      <trkpt lat="47.64828" lon="6.18071">
        <ele>225.3</ele>
        <time>2020-12-29T14:24:37Z</time>
      </trkpt>
      <trkpt lat="47.64833" lon="6.18072">
        <ele>224.8</ele>
        <time>2020-12-29T14:24:39Z</time>
      </trkpt>
      <trkpt lat="47.6484" lon="6.18075">
        <ele>225</ele>
        <time>2020-12-29T14:24:41Z</time>
      </trkpt>
      <trkpt lat="47.64845" lon="6.18076">
        <ele>225.1</ele>
        <time>2020-12-29T14:24:43Z</time>
      </trkpt>
      <trkpt lat="47.64851" lon="6.18077">
        <ele>225.3</ele>
        <time>2020-12-29T14:24:45Z</time>
      </trkpt>
      <trkpt lat="47.64856" lon="6.18078">
        <ele>225.5</ele>
        <time>2020-12-29T14:24:48Z</time>
      </trkpt>
      <trkpt lat="47.64862" lon="6.18079">
        <ele>225.6</ele>
        <time>2020-12-29T14:24:50Z</time>
      </trkpt>
      <trkpt lat="47.64867" lon="6.1808">
        <ele>225.8</ele>
        <time>2020-12-29T14:24:52Z</time>
      </trkpt>
      <trkpt lat="47.64873" lon="6.18082">
        <ele>225.9</ele>
        <time>2020-12-29T14:24:54Z</time>
      </trkpt>
      <trkpt lat="47.64878" lon="6.18084">
        <ele>226.2</ele>
        <time>2020-12-29T14:24:55Z</time>
      </trkpt>
      <trkpt lat="47.64884" lon="6.18086">
        <ele>226.6</ele>
        <time>2020-12-29T14:24:57Z</time>
      </trkpt>
      <trkpt lat="47.64891" lon="6.18089">
        <ele>227.1</ele>
        <time>2020-12-29T14:24:59Z</time>
      </trkpt>
      <trkpt lat="47.64898" lon="6.18091">
        <ele>227.5</ele>
        <time>2020-12-29T14:25:01Z</time>
      </trkpt>
      <trkpt lat="47.64905" lon="6.18094">
        <ele>227.9</ele>
        <time>2020-12-29T14:25:03Z</time>
      </trkpt>
      <trkpt lat="47.64911" lon="6.18096">
        <ele>228.3</ele>
        <time>2020-12-29T14:25:05Z</time>
      </trkpt>
      <trkpt lat="47.64918" lon="6.18098">
        <ele>228.7</ele>
        <time>2020-12-29T14:25:07Z</time>
      </trkpt>
      <trkpt lat="47.64924" lon="6.181">
        <ele>229.2</ele>
        <time>2020-12-29T14:25:09Z</time>
      </trkpt>
      <trkpt lat="47.6493" lon="6.18102">
        <ele>229.6</ele>
        <time>2020-12-29T14:25:11Z</time>
      </trkpt>
      <trkpt lat="47.64939" lon="6.18104">
        <ele>230.2</ele>
        <time>2020-12-29T14:25:13Z</time>
      </trkpt>
      <trkpt lat="47.64944" lon="6.18104">
        <ele>230.5</ele>
        <time>2020-12-29T14:25:14Z</time>
      </trkpt>
      <trkpt lat="47.6495" lon="6.18104">
        <ele>230.7</ele>
        <time>2020-12-29T14:25:15Z</time>
      </trkpt>
      <trkpt lat="47.6496" lon="6.18103">
        <ele>231.1</ele>
        <time>2020-12-29T14:25:17Z</time>
      </trkpt>
      <trkpt lat="47.64968" lon="6.18102">
        <ele>231.3</ele>
        <time>2020-12-29T14:25:19Z</time>
      </trkpt>
      <trkpt lat="47.64976" lon="6.18101">
        <ele>231.5</ele>
        <time>2020-12-29T14:25:21Z</time>
      </trkpt>
      <trkpt lat="47.64981" lon="6.18101">
        <ele>231.7</ele>
        <time>2020-12-29T14:25:22Z</time>
      </trkpt>
      <trkpt lat="47.64988" lon="6.18098">
        <ele>231.6</ele>
        <time>2020-12-29T14:25:24Z</time>
      </trkpt>
      <trkpt lat="47.64996" lon="6.18097">
        <ele>231.9</ele>
        <time>2020-12-29T14:25:26Z</time>
      </trkpt>
      <trkpt lat="47.65003" lon="6.18099">
        <ele>232.2</ele>
        <time>2020-12-29T14:25:27Z</time>
      </trkpt>
      <trkpt lat="47.6501" lon="6.18098">
        <ele>232.4</ele>
        <time>2020-12-29T14:25:29Z</time>
      </trkpt>
      <trkpt lat="47.65016" lon="6.18097">
        <ele>232.3</ele>
        <time>2020-12-29T14:25:31Z</time>
      </trkpt>
      <trkpt lat="47.65025" lon="6.18097">
        <ele>232.5</ele>
        <time>2020-12-29T14:25:33Z</time>
      </trkpt>
      <trkpt lat="47.65031" lon="6.18098">
        <ele>232.8</ele>
        <time>2020-12-29T14:25:34Z</time>
      </trkpt>
      <trkpt lat="47.65037" lon="6.18099">
        <ele>233</ele>
        <time>2020-12-29T14:25:36Z</time>
      </trkpt>
      <trkpt lat="47.65046" lon="6.181">
        <ele>233.5</ele>
        <time>2020-12-29T14:25:37Z</time>
      </trkpt>
      <trkpt lat="47.65054" lon="6.18101">
        <ele>233.7</ele>
        <time>2020-12-29T14:25:39Z</time>
      </trkpt>
      <trkpt lat="47.65061" lon="6.18102">
        <ele>234</ele>
        <time>2020-12-29T14:25:40Z</time>
      </trkpt>
      <trkpt lat="47.65066" lon="6.18102">
        <ele>234.2</ele>
        <time>2020-12-29T14:25:41Z</time>
      </trkpt>
      <trkpt lat="47.65071" lon="6.18103">
        <ele>234.5</ele>
        <time>2020-12-29T14:25:42Z</time>
      </trkpt>
      <trkpt lat="47.65077" lon="6.18104">
        <ele>234.9</ele>
        <time>2020-12-29T14:25:43Z</time>
      </trkpt>
      <trkpt lat="47.65085" lon="6.18106">
        <ele>235.3</ele>
        <time>2020-12-29T14:25:45Z</time>
      </trkpt>
      <trkpt lat="47.65092" lon="6.18107">
        <ele>235.7</ele>
        <time>2020-12-29T14:25:46Z</time>
      </trkpt>
      <trkpt lat="47.65101" lon="6.18106">
        <ele>236</ele>
        <time>2020-12-29T14:25:48Z</time>
      </trkpt>
      <trkpt lat="47.65108" lon="6.18105">
        <ele>236</ele>
        <time>2020-12-29T14:25:50Z</time>
      </trkpt>
      <trkpt lat="47.65116" lon="6.18102">
        <ele>235.7</ele>
        <time>2020-12-29T14:25:52Z</time>
      </trkpt>
      <trkpt lat="47.65123" lon="6.18099">
        <ele>235.3</ele>
        <time>2020-12-29T14:25:54Z</time>
      </trkpt>
      <trkpt lat="47.65132" lon="6.18093">
        <ele>234.5</ele>
        <time>2020-12-29T14:25:56Z</time>
      </trkpt>
      <trkpt lat="47.65139" lon="6.18087">
        <ele>233.6</ele>
        <time>2020-12-29T14:25:58Z</time>
      </trkpt>
      <trkpt lat="47.65143" lon="6.18083">
        <ele>233.1</ele>
        <time>2020-12-29T14:25:59Z</time>
      </trkpt>
      <trkpt lat="47.65149" lon="6.18076">
        <ele>232.7</ele>
        <time>2020-12-29T14:26:01Z</time>
      </trkpt>
      <trkpt lat="47.65154" lon="6.18068">
        <ele>232</ele>
        <time>2020-12-29T14:26:03Z</time>
      </trkpt>
      <trkpt lat="47.65159" lon="6.18064">
        <ele>231.6</ele>
        <time>2020-12-29T14:26:05Z</time>
      </trkpt>
      <trkpt lat="47.65166" lon="6.18056">
        <ele>230.8</ele>
        <time>2020-12-29T14:26:07Z</time>
      </trkpt>
      <trkpt lat="47.65169" lon="6.18051">
        <ele>230.3</ele>
        <time>2020-12-29T14:26:09Z</time>
      </trkpt>
      <trkpt lat="47.65173" lon="6.18045">
        <ele>229.9</ele>
        <time>2020-12-29T14:26:11Z</time>
      </trkpt>
      <trkpt lat="47.65177" lon="6.18037">
        <ele>229.3</ele>
        <time>2020-12-29T14:26:12Z</time>
      </trkpt>
      <trkpt lat="47.65181" lon="6.1803">
        <ele>228.7</ele>
        <time>2020-12-29T14:26:14Z</time>
      </trkpt>
      <trkpt lat="47.65186" lon="6.18025">
        <ele>228.3</ele>
        <time>2020-12-29T14:26:16Z</time>
      </trkpt>
      <trkpt lat="47.6519" lon="6.18018">
        <ele>227.8</ele>
        <time>2020-12-29T14:26:18Z</time>
      </trkpt>
      <trkpt lat="47.65193" lon="6.18011">
        <ele>227</ele>
        <time>2020-12-29T14:26:20Z</time>
      </trkpt>
      <trkpt lat="47.65197" lon="6.18005">
        <ele>226.5</ele>
        <time>2020-12-29T14:26:22Z</time>
      </trkpt>
      <trkpt lat="47.65201" lon="6.18">
        <ele>226.1</ele>
        <time>2020-12-29T14:26:24Z</time>
      </trkpt>
      <trkpt lat="47.65206" lon="6.17994">
        <ele>226.3</ele>
        <time>2020-12-29T14:26:26Z</time>
      </trkpt>
      <trkpt lat="47.65212" lon="6.17987">
        <ele>226.5</ele>
        <time>2020-12-29T14:26:29Z</time>
      </trkpt>
      <trkpt lat="47.65216" lon="6.17984">
        <ele>226.7</ele>
        <time>2020-12-29T14:26:31Z</time>
      </trkpt>
      <trkpt lat="47.65221" lon="6.17982">
        <ele>226.9</ele>
        <time>2020-12-29T14:26:33Z</time>
      </trkpt>
      <trkpt lat="47.65227" lon="6.1798">
        <ele>227.1</ele>
        <time>2020-12-29T14:26:34Z</time>
      </trkpt>
      <trkpt lat="47.65234" lon="6.17978">
        <ele>227.3</ele>
        <time>2020-12-29T14:26:36Z</time>
      </trkpt>
      <trkpt lat="47.6524" lon="6.17978">
        <ele>227.5</ele>
        <time>2020-12-29T14:26:38Z</time>
      </trkpt>
      <trkpt lat="47.65245" lon="6.17978">
        <ele>227.8</ele>
        <time>2020-12-29T14:26:39Z</time>
      </trkpt>
      <trkpt lat="47.65253" lon="6.1798">
        <ele>227.9</ele>
        <time>2020-12-29T14:26:41Z</time>
      </trkpt>
      <trkpt lat="47.65259" lon="6.17982">
        <ele>227.7</ele>
        <time>2020-12-29T14:26:43Z</time>
      </trkpt>
      <trkpt lat="47.65264" lon="6.17984">
        <ele>227.6</ele>
        <time>2020-12-29T14:26:44Z</time>
      </trkpt>
      <trkpt lat="47.6527" lon="6.1799">
        <ele>227.4</ele>
        <time>2020-12-29T14:26:46Z</time>
      </trkpt>
      <trkpt lat="47.65277" lon="6.17994">
        <ele>227.2</ele>
        <time>2020-12-29T14:26:48Z</time>
      </trkpt>
      <trkpt lat="47.65283" lon="6.18">
        <ele>227</ele>
        <time>2020-12-29T14:26:50Z</time>
      </trkpt>
      <trkpt lat="47.65287" lon="6.18006">
        <ele>227.4</ele>
        <time>2020-12-29T14:26:52Z</time>
      </trkpt>
      <trkpt lat="47.65289" lon="6.18013">
        <ele>227.8</ele>
        <time>2020-12-29T14:26:53Z</time>
      </trkpt>
      <trkpt lat="47.65291" lon="6.18021">
        <ele>228.5</ele>
        <time>2020-12-29T14:26:55Z</time>
      </trkpt>
      <trkpt lat="47.65292" lon="6.1803">
        <ele>229.2</ele>
        <time>2020-12-29T14:26:57Z</time>
      </trkpt>
      <trkpt lat="47.65295" lon="6.18041">
        <ele>229.8</ele>
        <time>2020-12-29T14:26:59Z</time>
      </trkpt>
      <trkpt lat="47.65298" lon="6.18056">
        <ele>230.6</ele>
        <time>2020-12-29T14:27:01Z</time>
      </trkpt>
      <trkpt lat="47.65299" lon="6.18063">
        <ele>231</ele>
        <time>2020-12-29T14:27:02Z</time>
      </trkpt>
      <trkpt lat="47.65301" lon="6.18075">
        <ele>231.6</ele>
        <time>2020-12-29T14:27:04Z</time>
      </trkpt>
      <trkpt lat="47.65302" lon="6.18083">
        <ele>231.9</ele>
        <time>2020-12-29T14:27:05Z</time>
      </trkpt>
      <trkpt lat="47.65303" lon="6.18091">
        <ele>232.3</ele>
        <time>2020-12-29T14:27:06Z</time>
      </trkpt>
      <trkpt lat="47.65305" lon="6.181">
        <ele>232.6</ele>
        <time>2020-12-29T14:27:07Z</time>
      </trkpt>
      <trkpt lat="47.65307" lon="6.1811">
        <ele>232.8</ele>
        <time>2020-12-29T14:27:09Z</time>
      </trkpt>
      <trkpt lat="47.65311" lon="6.18122">
        <ele>232.8</ele>
        <time>2020-12-29T14:27:11Z</time>
      </trkpt>
      <trkpt lat="47.65315" lon="6.18134">
        <ele>232.7</ele>
        <time>2020-12-29T14:27:13Z</time>
      </trkpt>
      <trkpt lat="47.65318" lon="6.18143">
        <ele>232.4</ele>
        <time>2020-12-29T14:27:15Z</time>
      </trkpt>
      <trkpt lat="47.65322" lon="6.18151">
        <ele>231.9</ele>
        <time>2020-12-29T14:27:16Z</time>
      </trkpt>
      <trkpt lat="47.65327" lon="6.18158">
        <ele>231.2</ele>
        <time>2020-12-29T14:27:18Z</time>
      </trkpt>
      <trkpt lat="47.6533" lon="6.18164">
        <ele>230.7</ele>
        <time>2020-12-29T14:27:19Z</time>
      </trkpt>
      <trkpt lat="47.65334" lon="6.18171">
        <ele>230.6</ele>
        <time>2020-12-29T14:27:21Z</time>
      </trkpt>
      <trkpt lat="47.65338" lon="6.18177">
        <ele>231.2</ele>
        <time>2020-12-29T14:27:22Z</time>
      </trkpt>
      <trkpt lat="47.65343" lon="6.18186">
        <ele>231.9</ele>
        <time>2020-12-29T14:27:24Z</time>
      </trkpt>
      <trkpt lat="47.65348" lon="6.1819">
        <ele>232.2</ele>
        <time>2020-12-29T14:27:26Z</time>
      </trkpt>
      <trkpt lat="47.65352" lon="6.18194">
        <ele>232.3</ele>
        <time>2020-12-29T14:27:27Z</time>
      </trkpt>
      <trkpt lat="47.65358" lon="6.182">
        <ele>232.4</ele>
        <time>2020-12-29T14:27:29Z</time>
      </trkpt>
      <trkpt lat="47.65364" lon="6.18205">
        <ele>232.4</ele>
        <time>2020-12-29T14:27:31Z</time>
      </trkpt>
      <trkpt lat="47.65369" lon="6.1821">
        <ele>232.3</ele>
        <time>2020-12-29T14:27:33Z</time>
      </trkpt>
      <trkpt lat="47.65375" lon="6.18215">
        <ele>232.1</ele>
        <time>2020-12-29T14:27:35Z</time>
      </trkpt>
      <trkpt lat="47.65381" lon="6.18222">
        <ele>232.1</ele>
        <time>2020-12-29T14:27:37Z</time>
      </trkpt>
      <trkpt lat="47.65385" lon="6.18226">
        <ele>231.9</ele>
        <time>2020-12-29T14:27:39Z</time>
      </trkpt>
      <trkpt lat="47.65391" lon="6.18231">
        <ele>231.5</ele>
        <time>2020-12-29T14:27:41Z</time>
      </trkpt>
      <trkpt lat="47.65397" lon="6.18235">
        <ele>231</ele>
        <time>2020-12-29T14:27:43Z</time>
      </trkpt>
      <trkpt lat="47.65401" lon="6.18238">
        <ele>230.7</ele>
        <time>2020-12-29T14:27:45Z</time>
      </trkpt>
      <trkpt lat="47.65406" lon="6.18242">
        <ele>230.2</ele>
        <time>2020-12-29T14:27:47Z</time>
      </trkpt>
      <trkpt lat="47.6541" lon="6.18246">
        <ele>229.7</ele>
        <time>2020-12-29T14:27:49Z</time>
      </trkpt>
      <trkpt lat="47.65415" lon="6.1825">
        <ele>229.2</ele>
        <time>2020-12-29T14:27:51Z</time>
      </trkpt>
      <trkpt lat="47.6542" lon="6.18254">
        <ele>230</ele>
        <time>2020-12-29T14:27:53Z</time>
      </trkpt>
      <trkpt lat="47.65425" lon="6.18257">
        <ele>231</ele>
        <time>2020-12-29T14:27:56Z</time>
      </trkpt>
      <trkpt lat="47.65431" lon="6.18259">
        <ele>231.5</ele>
        <time>2020-12-29T14:27:59Z</time>
      </trkpt>
      <trkpt lat="47.65436" lon="6.18261">
        <ele>232.2</ele>
        <time>2020-12-29T14:28:02Z</time>
      </trkpt>
      <trkpt lat="47.65442" lon="6.18263">
        <ele>232.8</ele>
        <time>2020-12-29T14:28:05Z</time>
      </trkpt>
      <trkpt lat="47.65449" lon="6.18265">
        <ele>233.7</ele>
        <time>2020-12-29T14:28:08Z</time>
      </trkpt>
      <trkpt lat="47.65454" lon="6.18268">
        <ele>234.4</ele>
        <time>2020-12-29T14:28:11Z</time>
      </trkpt>
      <trkpt lat="47.65459" lon="6.18267">
        <ele>234.3</ele>
        <time>2020-12-29T14:28:13Z</time>
      </trkpt>
      <trkpt lat="47.65463" lon="6.18266">
        <ele>234.3</ele>
        <time>2020-12-29T14:28:15Z</time>
      </trkpt>
      <trkpt lat="47.65468" lon="6.18268">
        <ele>234.9</ele>
        <time>2020-12-29T14:28:17Z</time>
      </trkpt>
      <trkpt lat="47.65472" lon="6.18267">
        <ele>234.8</ele>
        <time>2020-12-29T14:28:19Z</time>
      </trkpt>
      <trkpt lat="47.65478" lon="6.18266">
        <ele>234.8</ele>
        <time>2020-12-29T14:28:22Z</time>
      </trkpt>
      <trkpt lat="47.65483" lon="6.18266">
        <ele>235.1</ele>
        <time>2020-12-29T14:28:25Z</time>
      </trkpt>
      <trkpt lat="47.65488" lon="6.18265">
        <ele>234.9</ele>
        <time>2020-12-29T14:28:28Z</time>
      </trkpt>
      <trkpt lat="47.65493" lon="6.18263">
        <ele>234.7</ele>
        <time>2020-12-29T14:28:31Z</time>
      </trkpt>
      <trkpt lat="47.65499" lon="6.18261">
        <ele>234.4</ele>
        <time>2020-12-29T14:28:33Z</time>
      </trkpt>
      <trkpt lat="47.65503" lon="6.1826">
        <ele>234.6</ele>
        <time>2020-12-29T14:28:35Z</time>
      </trkpt>
      <trkpt lat="47.65509" lon="6.18258">
        <ele>234.7</ele>
        <time>2020-12-29T14:28:37Z</time>
      </trkpt>
      <trkpt lat="47.65516" lon="6.18255">
        <ele>234.9</ele>
        <time>2020-12-29T14:28:40Z</time>
      </trkpt>
      <trkpt lat="47.65521" lon="6.18253">
        <ele>235.1</ele>
        <time>2020-12-29T14:28:42Z</time>
      </trkpt>
      <trkpt lat="47.65526" lon="6.18252">
        <ele>235.2</ele>
        <time>2020-12-29T14:28:45Z</time>
      </trkpt>
      <trkpt lat="47.65531" lon="6.1825">
        <ele>235.3</ele>
        <time>2020-12-29T14:28:47Z</time>
      </trkpt>
      <trkpt lat="47.65535" lon="6.18247">
        <ele>235.4</ele>
        <time>2020-12-29T14:28:49Z</time>
      </trkpt>
      <trkpt lat="47.6554" lon="6.18244">
        <ele>235.6</ele>
        <time>2020-12-29T14:28:51Z</time>
      </trkpt>
      <trkpt lat="47.65546" lon="6.18241">
        <ele>235.9</ele>
        <time>2020-12-29T14:28:54Z</time>
      </trkpt>
      <trkpt lat="47.65551" lon="6.18238">
        <ele>236.1</ele>
        <time>2020-12-29T14:28:57Z</time>
      </trkpt>
      <trkpt lat="47.65557" lon="6.18234">
        <ele>236.1</ele>
        <time>2020-12-29T14:29:00Z</time>
      </trkpt>
      <trkpt lat="47.65561" lon="6.18231">
        <ele>236</ele>
        <time>2020-12-29T14:29:02Z</time>
      </trkpt>
      <trkpt lat="47.65566" lon="6.18225">
        <ele>235.7</ele>
        <time>2020-12-29T14:29:05Z</time>
      </trkpt>
      <trkpt lat="47.65572" lon="6.18218">
        <ele>235.2</ele>
        <time>2020-12-29T14:29:07Z</time>
      </trkpt>
      <trkpt lat="47.65577" lon="6.18211">
        <ele>234.5</ele>
        <time>2020-12-29T14:29:09Z</time>
      </trkpt>
      <trkpt lat="47.65582" lon="6.18203">
        <ele>233.6</ele>
        <time>2020-12-29T14:29:11Z</time>
      </trkpt>
      <trkpt lat="47.65587" lon="6.18195">
        <ele>232.8</ele>
        <time>2020-12-29T14:29:13Z</time>
      </trkpt>
      <trkpt lat="47.65592" lon="6.18185">
        <ele>231.9</ele>
        <time>2020-12-29T14:29:15Z</time>
      </trkpt>
      <trkpt lat="47.65599" lon="6.18176">
        <ele>231.2</ele>
        <time>2020-12-29T14:29:17Z</time>
      </trkpt>
      <trkpt lat="47.65608" lon="6.18169">
        <ele>231.1</ele>
        <time>2020-12-29T14:29:19Z</time>
      </trkpt>
      <trkpt lat="47.65613" lon="6.18168">
        <ele>231.5</ele>
        <time>2020-12-29T14:29:20Z</time>
      </trkpt>
      <trkpt lat="47.65623" lon="6.18169">
        <ele>232.7</ele>
        <time>2020-12-29T14:29:22Z</time>
      </trkpt>
      <trkpt lat="47.65627" lon="6.18169">
        <ele>233.2</ele>
        <time>2020-12-29T14:29:23Z</time>
      </trkpt>
      <trkpt lat="47.65632" lon="6.18169">
        <ele>233.6</ele>
        <time>2020-12-29T14:29:24Z</time>
      </trkpt>
      <trkpt lat="47.65637" lon="6.18168">
        <ele>234</ele>
        <time>2020-12-29T14:29:26Z</time>
      </trkpt>
      <trkpt lat="47.65643" lon="6.18165">
        <ele>234.3</ele>
        <time>2020-12-29T14:29:28Z</time>
      </trkpt>
      <trkpt lat="47.65647" lon="6.18161">
        <ele>234.4</ele>
        <time>2020-12-29T14:29:30Z</time>
      </trkpt>
      <trkpt lat="47.65652" lon="6.18156">
        <ele>234.5</ele>
        <time>2020-12-29T14:29:32Z</time>
      </trkpt>
      <trkpt lat="47.65657" lon="6.18153">
        <ele>234.7</ele>
        <time>2020-12-29T14:29:34Z</time>
      </trkpt>
      <trkpt lat="47.65663" lon="6.18148">
        <ele>234.9</ele>
        <time>2020-12-29T14:29:36Z</time>
      </trkpt>
      <trkpt lat="47.65668" lon="6.18147">
        <ele>235.3</ele>
        <time>2020-12-29T14:29:38Z</time>
      </trkpt>
      <trkpt lat="47.65673" lon="6.18144">
        <ele>235.8</ele>
        <time>2020-12-29T14:29:40Z</time>
      </trkpt>
      <trkpt lat="47.6568" lon="6.18138">
        <ele>236.4</ele>
        <time>2020-12-29T14:29:43Z</time>
      </trkpt>
      <trkpt lat="47.65684" lon="6.1813">
        <ele>236.1</ele>
        <time>2020-12-29T14:29:45Z</time>
      </trkpt>
      <trkpt lat="47.65688" lon="6.18122">
        <ele>235.9</ele>
        <time>2020-12-29T14:29:47Z</time>
      </trkpt>
      <trkpt lat="47.65691" lon="6.18116">
        <ele>235.6</ele>
        <time>2020-12-29T14:29:48Z</time>
      </trkpt>
      <trkpt lat="47.65696" lon="6.18106">
        <ele>235.3</ele>
        <time>2020-12-29T14:29:50Z</time>
      </trkpt>
      <trkpt lat="47.657" lon="6.18095">
        <ele>234.8</ele>
        <time>2020-12-29T14:29:52Z</time>
      </trkpt>
      <trkpt lat="47.65704" lon="6.18088">
        <ele>234.5</ele>
        <time>2020-12-29T14:29:54Z</time>
      </trkpt>
      <trkpt lat="47.65707" lon="6.18082">
        <ele>234.3</ele>
        <time>2020-12-29T14:29:55Z</time>
      </trkpt>
      <trkpt lat="47.65711" lon="6.18076">
        <ele>234.4</ele>
        <time>2020-12-29T14:29:57Z</time>
      </trkpt>
      <trkpt lat="47.65715" lon="6.18072">
        <ele>234.6</ele>
        <time>2020-12-29T14:29:59Z</time>
      </trkpt>
      <trkpt lat="47.65719" lon="6.18067">
        <ele>234.8</ele>
        <time>2020-12-29T14:30:01Z</time>
      </trkpt>
      <trkpt lat="47.65725" lon="6.18063">
        <ele>235</ele>
        <time>2020-12-29T14:30:03Z</time>
      </trkpt>
      <trkpt lat="47.6573" lon="6.18058">
        <ele>235.3</ele>
        <time>2020-12-29T14:30:05Z</time>
      </trkpt>
      <trkpt lat="47.65735" lon="6.18055">
        <ele>235.7</ele>
        <time>2020-12-29T14:30:07Z</time>
      </trkpt>
      <trkpt lat="47.65741" lon="6.18052">
        <ele>235.9</ele>
        <time>2020-12-29T14:30:09Z</time>
      </trkpt>
      <trkpt lat="47.65747" lon="6.18047">
        <ele>236.2</ele>
        <time>2020-12-29T14:30:12Z</time>
      </trkpt>
      <trkpt lat="47.65752" lon="6.18043">
        <ele>236.3</ele>
        <time>2020-12-29T14:30:15Z</time>
      </trkpt>
      <trkpt lat="47.65757" lon="6.18039">
        <ele>236.5</ele>
        <time>2020-12-29T14:30:18Z</time>
      </trkpt>
      <trkpt lat="47.65761" lon="6.18037">
        <ele>236.7</ele>
        <time>2020-12-29T14:30:21Z</time>
      </trkpt>
      <trkpt lat="47.65767" lon="6.18036">
        <ele>237.3</ele>
        <time>2020-12-29T14:30:25Z</time>
      </trkpt>
      <trkpt lat="47.65774" lon="6.18034">
        <ele>237.7</ele>
        <time>2020-12-29T14:30:28Z</time>
      </trkpt>
      <trkpt lat="47.65778" lon="6.1803">
        <ele>237.7</ele>
        <time>2020-12-29T14:30:30Z</time>
      </trkpt>
      <trkpt lat="47.65782" lon="6.18025">
        <ele>237.5</ele>
        <time>2020-12-29T14:30:32Z</time>
      </trkpt>
      <trkpt lat="47.65786" lon="6.18019">
        <ele>237.3</ele>
        <time>2020-12-29T14:30:34Z</time>
      </trkpt>
      <trkpt lat="47.65791" lon="6.18014">
        <ele>237.1</ele>
        <time>2020-12-29T14:30:37Z</time>
      </trkpt>
      <trkpt lat="47.65795" lon="6.18011">
        <ele>237.1</ele>
        <time>2020-12-29T14:30:39Z</time>
      </trkpt>
      <trkpt lat="47.658" lon="6.18007">
        <ele>237.1</ele>
        <time>2020-12-29T14:30:41Z</time>
      </trkpt>
      <trkpt lat="47.65806" lon="6.18001">
        <ele>236.9</ele>
        <time>2020-12-29T14:30:44Z</time>
      </trkpt>
      <trkpt lat="47.65812" lon="6.17997">
        <ele>236.9</ele>
        <time>2020-12-29T14:30:46Z</time>
      </trkpt>
      <trkpt lat="47.65816" lon="6.17994">
        <ele>236.9</ele>
        <time>2020-12-29T14:30:47Z</time>
      </trkpt>
      <trkpt lat="47.65821" lon="6.17991">
        <ele>236.8</ele>
        <time>2020-12-29T14:30:48Z</time>
      </trkpt>
      <trkpt lat="47.65828" lon="6.17985">
        <ele>236.8</ele>
        <time>2020-12-29T14:30:50Z</time>
      </trkpt>
      <trkpt lat="47.65834" lon="6.1798">
        <ele>236.7</ele>
        <time>2020-12-29T14:30:51Z</time>
      </trkpt>
      <trkpt lat="47.65841" lon="6.17975">
        <ele>235.9</ele>
        <time>2020-12-29T14:30:53Z</time>
      </trkpt>
      <trkpt lat="47.65847" lon="6.17972">
        <ele>235.4</ele>
        <time>2020-12-29T14:30:54Z</time>
      </trkpt>
      <trkpt lat="47.65855" lon="6.17968">
        <ele>234.9</ele>
        <time>2020-12-29T14:30:55Z</time>
      </trkpt>
      <trkpt lat="47.65861" lon="6.17966">
        <ele>234.6</ele>
        <time>2020-12-29T14:30:56Z</time>
      </trkpt>
      <trkpt lat="47.65868" lon="6.17965">
        <ele>234.4</ele>
        <time>2020-12-29T14:30:57Z</time>
      </trkpt>
      <trkpt lat="47.65881" lon="6.17965">
        <ele>234.2</ele>
        <time>2020-12-29T14:30:58Z</time>
      </trkpt>
      <trkpt lat="47.65888" lon="6.17968">
        <ele>234.5</ele>
        <time>2020-12-29T14:30:59Z</time>
      </trkpt>
      <trkpt lat="47.65895" lon="6.17973">
        <ele>235</ele>
        <time>2020-12-29T14:31:00Z</time>
      </trkpt>
      <trkpt lat="47.65902" lon="6.17977">
        <ele>235.5</ele>
        <time>2020-12-29T14:31:01Z</time>
      </trkpt>
      <trkpt lat="47.65907" lon="6.17981">
        <ele>235.8</ele>
        <time>2020-12-29T14:31:02Z</time>
      </trkpt>
      <trkpt lat="47.65912" lon="6.17984">
        <ele>236.1</ele>
        <time>2020-12-29T14:31:03Z</time>
      </trkpt>
      <trkpt lat="47.6592" lon="6.17988">
        <ele>236.4</ele>
        <time>2020-12-29T14:31:05Z</time>
      </trkpt>
      <trkpt lat="47.65926" lon="6.17991">
        <ele>236.6</ele>
        <time>2020-12-29T14:31:07Z</time>
      </trkpt>
      <trkpt lat="47.65932" lon="6.17993">
        <ele>236.7</ele>
        <time>2020-12-29T14:31:09Z</time>
      </trkpt>
      <trkpt lat="47.65939" lon="6.17997">
        <ele>236.9</ele>
        <time>2020-12-29T14:31:11Z</time>
      </trkpt>
      <trkpt lat="47.65943" lon="6.18">
        <ele>237</ele>
        <time>2020-12-29T14:31:12Z</time>
      </trkpt>
      <trkpt lat="47.65949" lon="6.18004">
        <ele>237.4</ele>
        <time>2020-12-29T14:31:14Z</time>
      </trkpt>
      <trkpt lat="47.65954" lon="6.18007">
        <ele>237.7</ele>
        <time>2020-12-29T14:31:17Z</time>
      </trkpt>
      <trkpt lat="47.65958" lon="6.18011">
        <ele>238</ele>
        <time>2020-12-29T14:31:19Z</time>
      </trkpt>
      <trkpt lat="47.65963" lon="6.18014">
        <ele>238.3</ele>
        <time>2020-12-29T14:31:22Z</time>
      </trkpt>
      <trkpt lat="47.65967" lon="6.18018">
        <ele>238.7</ele>
        <time>2020-12-29T14:31:25Z</time>
      </trkpt>
      <trkpt lat="47.65972" lon="6.18023">
        <ele>239.1</ele>
        <time>2020-12-29T14:31:28Z</time>
      </trkpt>
      <trkpt lat="47.65977" lon="6.18028">
        <ele>239.5</ele>
        <time>2020-12-29T14:31:32Z</time>
      </trkpt>
      <trkpt lat="47.6598" lon="6.18032">
        <ele>239.9</ele>
        <time>2020-12-29T14:31:36Z</time>
      </trkpt>
      <trkpt lat="47.65985" lon="6.18037">
        <ele>240.3</ele>
        <time>2020-12-29T14:31:40Z</time>
      </trkpt>
      <trkpt lat="47.65988" lon="6.18042">
        <ele>240.8</ele>
        <time>2020-12-29T14:31:44Z</time>
      </trkpt>
      <trkpt lat="47.65992" lon="6.18047">
        <ele>241.1</ele>
        <time>2020-12-29T14:31:48Z</time>
      </trkpt>
      <trkpt lat="47.65996" lon="6.18052">
        <ele>241.4</ele>
        <time>2020-12-29T14:31:52Z</time>
      </trkpt>
      <trkpt lat="47.66" lon="6.18056">
        <ele>241.7</ele>
        <time>2020-12-29T14:31:55Z</time>
      </trkpt>
      <trkpt lat="47.66004" lon="6.18061">
        <ele>242.4</ele>
        <time>2020-12-29T14:31:58Z</time>
      </trkpt>
      <trkpt lat="47.66008" lon="6.18066">
        <ele>243.1</ele>
        <time>2020-12-29T14:32:01Z</time>
      </trkpt>
      <trkpt lat="47.6601" lon="6.18072">
        <ele>243.8</ele>
        <time>2020-12-29T14:32:05Z</time>
      </trkpt>
      <trkpt lat="47.66013" lon="6.18078">
        <ele>244.6</ele>
        <time>2020-12-29T14:32:09Z</time>
      </trkpt>
      <trkpt lat="47.66017" lon="6.18083">
        <ele>245.3</ele>
        <time>2020-12-29T14:32:13Z</time>
      </trkpt>
      <trkpt lat="47.66021" lon="6.18087">
        <ele>246.1</ele>
        <time>2020-12-29T14:32:18Z</time>
      </trkpt>
      <trkpt lat="47.66024" lon="6.18092">
        <ele>247</ele>
        <time>2020-12-29T14:32:22Z</time>
      </trkpt>
      <trkpt lat="47.6603" lon="6.18096">
        <ele>247.8</ele>
        <time>2020-12-29T14:32:25Z</time>
      </trkpt>
      <trkpt lat="47.66033" lon="6.18101">
        <ele>248.6</ele>
        <time>2020-12-29T14:32:29Z</time>
      </trkpt>
      <trkpt lat="47.66038" lon="6.18105">
        <ele>249.4</ele>
        <time>2020-12-29T14:32:35Z</time>
      </trkpt>
      <trkpt lat="47.66042" lon="6.1811">
        <ele>250.2</ele>
        <time>2020-12-29T14:32:39Z</time>
      </trkpt>
      <trkpt lat="47.66047" lon="6.18111">
        <ele>250.4</ele>
        <time>2020-12-29T14:32:42Z</time>
      </trkpt>
      <trkpt lat="47.66053" lon="6.18113">
        <ele>250.8</ele>
        <time>2020-12-29T14:32:45Z</time>
      </trkpt>
      <trkpt lat="47.66058" lon="6.18117">
        <ele>251.3</ele>
        <time>2020-12-29T14:32:49Z</time>
      </trkpt>
      <trkpt lat="47.66063" lon="6.18119">
        <ele>251.6</ele>
        <time>2020-12-29T14:32:53Z</time>
      </trkpt>
      <trkpt lat="47.66069" lon="6.18119">
        <ele>251.7</ele>
        <time>2020-12-29T14:32:57Z</time>
      </trkpt>
      <trkpt lat="47.66075" lon="6.18119">
        <ele>251.6</ele>
        <time>2020-12-29T14:33:00Z</time>
      </trkpt>
      <trkpt lat="47.66079" lon="6.18119">
        <ele>251.6</ele>
        <time>2020-12-29T14:33:02Z</time>
      </trkpt>
      <trkpt lat="47.66086" lon="6.18119">
        <ele>251.6</ele>
        <time>2020-12-29T14:33:05Z</time>
      </trkpt>
      <trkpt lat="47.66091" lon="6.18121">
        <ele>251.5</ele>
        <time>2020-12-29T14:33:07Z</time>
      </trkpt>
      <trkpt lat="47.66096" lon="6.18123">
        <ele>251.6</ele>
        <time>2020-12-29T14:33:09Z</time>
      </trkpt>
      <trkpt lat="47.66101" lon="6.18125">
        <ele>251.5</ele>
        <time>2020-12-29T14:33:12Z</time>
      </trkpt>
      <trkpt lat="47.66106" lon="6.18127">
        <ele>251.5</ele>
        <time>2020-12-29T14:33:16Z</time>
      </trkpt>
      <trkpt lat="47.66111" lon="6.1813">
        <ele>251.6</ele>
        <time>2020-12-29T14:33:19Z</time>
      </trkpt>
      <trkpt lat="47.66116" lon="6.18129">
        <ele>251.3</ele>
        <time>2020-12-29T14:33:23Z</time>
      </trkpt>
      <trkpt lat="47.66121" lon="6.18132">
        <ele>251.3</ele>
        <time>2020-12-29T14:33:26Z</time>
      </trkpt>
      <trkpt lat="47.66125" lon="6.18132">
        <ele>251.1</ele>
        <time>2020-12-29T14:33:29Z</time>
      </trkpt>
      <trkpt lat="47.6613" lon="6.18133">
        <ele>250.8</ele>
        <time>2020-12-29T14:33:33Z</time>
      </trkpt>
      <trkpt lat="47.66135" lon="6.18135">
        <ele>250.8</ele>
        <time>2020-12-29T14:33:37Z</time>
      </trkpt>
      <trkpt lat="47.6614" lon="6.18138">
        <ele>250.8</ele>
        <time>2020-12-29T14:33:40Z</time>
      </trkpt>
      <trkpt lat="47.66146" lon="6.18141">
        <ele>250.8</ele>
        <time>2020-12-29T14:33:44Z</time>
      </trkpt>
      <trkpt lat="47.6615" lon="6.18143">
        <ele>250.8</ele>
        <time>2020-12-29T14:33:47Z</time>
      </trkpt>
      <trkpt lat="47.66157" lon="6.18147">
        <ele>250.8</ele>
        <time>2020-12-29T14:33:51Z</time>
      </trkpt>
      <trkpt lat="47.66161" lon="6.18149">
        <ele>250.7</ele>
        <time>2020-12-29T14:33:55Z</time>
      </trkpt>
      <trkpt lat="47.66165" lon="6.18153">
        <ele>250.7</ele>
        <time>2020-12-29T14:33:59Z</time>
      </trkpt>
      <trkpt lat="47.66169" lon="6.18159">
        <ele>251</ele>
        <time>2020-12-29T14:34:03Z</time>
      </trkpt>
      <trkpt lat="47.66174" lon="6.18162">
        <ele>251.1</ele>
        <time>2020-12-29T14:34:07Z</time>
      </trkpt>
      <trkpt lat="47.66177" lon="6.18167">
        <ele>251.2</ele>
        <time>2020-12-29T14:34:11Z</time>
      </trkpt>
      <trkpt lat="47.66182" lon="6.1817">
        <ele>251.3</ele>
        <time>2020-12-29T14:34:17Z</time>
      </trkpt>
      <trkpt lat="47.66187" lon="6.18174">
        <ele>251.5</ele>
        <time>2020-12-29T14:34:22Z</time>
      </trkpt>
      <trkpt lat="47.66191" lon="6.18176">
        <ele>251.6</ele>
        <time>2020-12-29T14:34:26Z</time>
      </trkpt>
      <trkpt lat="47.66195" lon="6.18179">
        <ele>251.5</ele>
        <time>2020-12-29T14:34:30Z</time>
      </trkpt>
      <trkpt lat="47.662" lon="6.18183">
        <ele>251.8</ele>
        <time>2020-12-29T14:34:35Z</time>
      </trkpt>
      <trkpt lat="47.66203" lon="6.18189">
        <ele>252.4</ele>
        <time>2020-12-29T14:34:38Z</time>
      </trkpt>
      <trkpt lat="47.66207" lon="6.18194">
        <ele>252.7</ele>
        <time>2020-12-29T14:34:42Z</time>
      </trkpt>
      <trkpt lat="47.6621" lon="6.18199">
        <ele>253.1</ele>
        <time>2020-12-29T14:34:47Z</time>
      </trkpt>
      <trkpt lat="47.66213" lon="6.18205">
        <ele>253.7</ele>
        <time>2020-12-29T14:34:51Z</time>
      </trkpt>
      <trkpt lat="47.66215" lon="6.18212">
        <ele>254.5</ele>
        <time>2020-12-29T14:34:55Z</time>
      </trkpt>
      <trkpt lat="47.66217" lon="6.18219">
        <ele>255.3</ele>
        <time>2020-12-29T14:34:59Z</time>
      </trkpt>
      <trkpt lat="47.6622" lon="6.18226">
        <ele>256</ele>
        <time>2020-12-29T14:35:04Z</time>
      </trkpt>
      <trkpt lat="47.66222" lon="6.18233">
        <ele>256.7</ele>
        <time>2020-12-29T14:35:08Z</time>
      </trkpt>
      <trkpt lat="47.66225" lon="6.18239">
        <ele>257.4</ele>
        <time>2020-12-29T14:35:13Z</time>
      </trkpt>
      <trkpt lat="47.66228" lon="6.18246">
        <ele>258.1</ele>
        <time>2020-12-29T14:35:18Z</time>
      </trkpt>
      <trkpt lat="47.66231" lon="6.18252">
        <ele>258.5</ele>
        <time>2020-12-29T14:35:22Z</time>
      </trkpt>
      <trkpt lat="47.66234" lon="6.18258">
        <ele>258.7</ele>
        <time>2020-12-29T14:35:26Z</time>
      </trkpt>
      <trkpt lat="47.66237" lon="6.18266">
        <ele>259.1</ele>
        <time>2020-12-29T14:35:31Z</time>
      </trkpt>
      <trkpt lat="47.6624" lon="6.18271">
        <ele>259.3</ele>
        <time>2020-12-29T14:35:32Z</time>
      </trkpt>
      <trkpt lat="47.66243" lon="6.18277">
        <ele>259.5</ele>
        <time>2020-12-29T14:35:34Z</time>
      </trkpt>
      <trkpt lat="47.66245" lon="6.18284">
        <ele>259.9</ele>
        <time>2020-12-29T14:35:37Z</time>
      </trkpt>
      <trkpt lat="47.66243" lon="6.1829">
        <ele>260.5</ele>
        <time>2020-12-29T14:35:40Z</time>
      </trkpt>
      <trkpt lat="47.66238" lon="6.18293">
        <ele>261.1</ele>
        <time>2020-12-29T14:35:43Z</time>
      </trkpt>
      <trkpt lat="47.66233" lon="6.18297">
        <ele>261.8</ele>
        <time>2020-12-29T14:35:47Z</time>
      </trkpt>
      <trkpt lat="47.66228" lon="6.18295">
        <ele>262.1</ele>
        <time>2020-12-29T14:35:51Z</time>
      </trkpt>
      <trkpt lat="47.66222" lon="6.18293">
        <ele>262.4</ele>
        <time>2020-12-29T14:35:54Z</time>
      </trkpt>
      <trkpt lat="47.66216" lon="6.18292">
        <ele>262.9</ele>
        <time>2020-12-29T14:35:59Z</time>
      </trkpt>
      <trkpt lat="47.6621" lon="6.18292">
        <ele>263.4</ele>
        <time>2020-12-29T14:36:01Z</time>
      </trkpt>
      <trkpt lat="47.66205" lon="6.18293">
        <ele>263.8</ele>
        <time>2020-12-29T14:36:04Z</time>
      </trkpt>
      <trkpt lat="47.662" lon="6.18293">
        <ele>264.3</ele>
        <time>2020-12-29T14:36:07Z</time>
      </trkpt>
      <trkpt lat="47.66196" lon="6.18292">
        <ele>264.6</ele>
        <time>2020-12-29T14:36:10Z</time>
      </trkpt>
      <trkpt lat="47.66191" lon="6.18287">
        <ele>264.5</ele>
        <time>2020-12-29T14:36:14Z</time>
      </trkpt>
      <trkpt lat="47.66188" lon="6.18282">
        <ele>264.3</ele>
        <time>2020-12-29T14:36:17Z</time>
      </trkpt>
      <trkpt lat="47.66184" lon="6.18277">
        <ele>264.2</ele>
        <time>2020-12-29T14:36:23Z</time>
      </trkpt>
      <trkpt lat="47.66178" lon="6.18279">
        <ele>264.9</ele>
        <time>2020-12-29T14:36:27Z</time>
      </trkpt>
      <trkpt lat="47.66174" lon="6.18284">
        <ele>265.7</ele>
        <time>2020-12-29T14:36:30Z</time>
      </trkpt>
      <trkpt lat="47.66167" lon="6.18281">
        <ele>265.9</ele>
        <time>2020-12-29T14:36:35Z</time>
      </trkpt>
      <trkpt lat="47.66163" lon="6.18277">
        <ele>265.8</ele>
        <time>2020-12-29T14:36:38Z</time>
      </trkpt>
      <trkpt lat="47.66157" lon="6.18275">
        <ele>266.1</ele>
        <time>2020-12-29T14:36:42Z</time>
      </trkpt>
      <trkpt lat="47.66152" lon="6.18275">
        <ele>266.4</ele>
        <time>2020-12-29T14:36:46Z</time>
      </trkpt>
      <trkpt lat="47.66149" lon="6.1827">
        <ele>266.2</ele>
        <time>2020-12-29T14:36:48Z</time>
      </trkpt>
      <trkpt lat="47.66144" lon="6.18271">
        <ele>266.7</ele>
        <time>2020-12-29T14:36:51Z</time>
      </trkpt>
      <trkpt lat="47.66138" lon="6.1827">
        <ele>267.1</ele>
        <time>2020-12-29T14:36:56Z</time>
      </trkpt>
      <trkpt lat="47.66133" lon="6.18267">
        <ele>267.2</ele>
        <time>2020-12-29T14:36:58Z</time>
      </trkpt>
      <trkpt lat="47.66128" lon="6.18265">
        <ele>267.4</ele>
        <time>2020-12-29T14:37:01Z</time>
      </trkpt>
      <trkpt lat="47.66123" lon="6.18263">
        <ele>267.7</ele>
        <time>2020-12-29T14:37:05Z</time>
      </trkpt>
      <trkpt lat="47.66118" lon="6.18262">
        <ele>267.9</ele>
        <time>2020-12-29T14:37:07Z</time>
      </trkpt>
      <trkpt lat="47.66113" lon="6.18262">
        <ele>268.3</ele>
        <time>2020-12-29T14:37:10Z</time>
      </trkpt>
      <trkpt lat="47.66109" lon="6.1826">
        <ele>268.6</ele>
        <time>2020-12-29T14:37:12Z</time>
      </trkpt>
      <trkpt lat="47.66104" lon="6.1826">
        <ele>268.9</ele>
        <time>2020-12-29T14:37:14Z</time>
      </trkpt>
      <trkpt lat="47.66099" lon="6.18258">
        <ele>269.3</ele>
        <time>2020-12-29T14:37:17Z</time>
      </trkpt>
      <trkpt lat="47.66091" lon="6.18256">
        <ele>269.7</ele>
        <time>2020-12-29T14:37:20Z</time>
      </trkpt>
      <trkpt lat="47.66086" lon="6.18255">
        <ele>270.1</ele>
        <time>2020-12-29T14:37:22Z</time>
      </trkpt>
      <trkpt lat="47.66081" lon="6.18253">
        <ele>270.2</ele>
        <time>2020-12-29T14:37:24Z</time>
      </trkpt>
      <trkpt lat="47.66073" lon="6.18252">
        <ele>270.1</ele>
        <time>2020-12-29T14:37:26Z</time>
      </trkpt>
      <trkpt lat="47.66067" lon="6.18251">
        <ele>270</ele>
        <time>2020-12-29T14:37:28Z</time>
      </trkpt>
      <trkpt lat="47.66062" lon="6.1825">
        <ele>270</ele>
        <time>2020-12-29T14:37:29Z</time>
      </trkpt>
      <trkpt lat="47.66057" lon="6.1825">
        <ele>270</ele>
        <time>2020-12-29T14:37:31Z</time>
      </trkpt>
      <trkpt lat="47.66052" lon="6.18251">
        <ele>270</ele>
        <time>2020-12-29T14:37:33Z</time>
      </trkpt>
      <trkpt lat="47.66047" lon="6.18251">
        <ele>270.1</ele>
        <time>2020-12-29T14:37:34Z</time>
      </trkpt>
      <trkpt lat="47.66041" lon="6.18251">
        <ele>270.1</ele>
        <time>2020-12-29T14:37:36Z</time>
      </trkpt>
      <trkpt lat="47.66036" lon="6.1825">
        <ele>270</ele>
        <time>2020-12-29T14:37:38Z</time>
      </trkpt>
      <trkpt lat="47.6603" lon="6.1825">
        <ele>270</ele>
        <time>2020-12-29T14:37:41Z</time>
      </trkpt>
      <trkpt lat="47.66025" lon="6.18251">
        <ele>270.1</ele>
        <time>2020-12-29T14:37:43Z</time>
      </trkpt>
      <trkpt lat="47.66019" lon="6.18251">
        <ele>270</ele>
        <time>2020-12-29T14:37:45Z</time>
      </trkpt>
      <trkpt lat="47.66015" lon="6.18248">
        <ele>269.8</ele>
        <time>2020-12-29T14:37:47Z</time>
      </trkpt>
      <trkpt lat="47.6601" lon="6.18244">
        <ele>269.3</ele>
        <time>2020-12-29T14:37:49Z</time>
      </trkpt>
      <trkpt lat="47.66004" lon="6.1824">
        <ele>268.8</ele>
        <time>2020-12-29T14:37:51Z</time>
      </trkpt>
      <trkpt lat="47.65998" lon="6.18237">
        <ele>268.4</ele>
        <time>2020-12-29T14:37:53Z</time>
      </trkpt>
      <trkpt lat="47.65989" lon="6.18235">
        <ele>268</ele>
        <time>2020-12-29T14:37:55Z</time>
      </trkpt>
      <trkpt lat="47.65985" lon="6.18234">
        <ele>267.7</ele>
        <time>2020-12-29T14:37:56Z</time>
      </trkpt>
      <trkpt lat="47.65975" lon="6.18232">
        <ele>267.2</ele>
        <time>2020-12-29T14:37:58Z</time>
      </trkpt>
      <trkpt lat="47.6597" lon="6.1823">
        <ele>266.9</ele>
        <time>2020-12-29T14:37:59Z</time>
      </trkpt>
      <trkpt lat="47.65958" lon="6.18224">
        <ele>266</ele>
        <time>2020-12-29T14:38:00Z</time>
      </trkpt>
      <trkpt lat="47.65952" lon="6.1822">
        <ele>265.5</ele>
        <time>2020-12-29T14:38:01Z</time>
      </trkpt>
      <trkpt lat="47.65946" lon="6.18215">
        <ele>265</ele>
        <time>2020-12-29T14:38:02Z</time>
      </trkpt>
      <trkpt lat="47.65939" lon="6.18211">
        <ele>264.5</ele>
        <time>2020-12-29T14:38:03Z</time>
      </trkpt>
      <trkpt lat="47.65933" lon="6.18207">
        <ele>264.1</ele>
        <time>2020-12-29T14:38:04Z</time>
      </trkpt>
      <trkpt lat="47.65925" lon="6.18204">
        <ele>263.8</ele>
        <time>2020-12-29T14:38:05Z</time>
      </trkpt>
      <trkpt lat="47.65917" lon="6.18201">
        <ele>263.5</ele>
        <time>2020-12-29T14:38:06Z</time>
      </trkpt>
      <trkpt lat="47.65911" lon="6.18199">
        <ele>263.3</ele>
        <time>2020-12-29T14:38:07Z</time>
      </trkpt>
      <trkpt lat="47.65904" lon="6.18197">
        <ele>263.1</ele>
        <time>2020-12-29T14:38:08Z</time>
      </trkpt>
      <trkpt lat="47.65898" lon="6.18195">
        <ele>262.9</ele>
        <time>2020-12-29T14:38:09Z</time>
      </trkpt>
      <trkpt lat="47.65892" lon="6.18193">
        <ele>262.7</ele>
        <time>2020-12-29T14:38:10Z</time>
      </trkpt>
      <trkpt lat="47.65886" lon="6.18191">
        <ele>262.5</ele>
        <time>2020-12-29T14:38:11Z</time>
      </trkpt>
      <trkpt lat="47.6588" lon="6.18189">
        <ele>262.4</ele>
        <time>2020-12-29T14:38:12Z</time>
      </trkpt>
      <trkpt lat="47.65875" lon="6.18188">
        <ele>262.3</ele>
        <time>2020-12-29T14:38:13Z</time>
      </trkpt>
      <trkpt lat="47.6587" lon="6.18187">
        <ele>262.2</ele>
        <time>2020-12-29T14:38:14Z</time>
      </trkpt>
      <trkpt lat="47.65862" lon="6.18184">
        <ele>262</ele>
        <time>2020-12-29T14:38:16Z</time>
      </trkpt>
      <trkpt lat="47.65855" lon="6.18184">
        <ele>262</ele>
        <time>2020-12-29T14:38:18Z</time>
      </trkpt>
      <trkpt lat="47.65851" lon="6.18189">
        <ele>262.2</ele>
        <time>2020-12-29T14:38:20Z</time>
      </trkpt>
      <trkpt lat="47.65844" lon="6.18203">
        <ele>262.9</ele>
        <time>2020-12-29T14:38:22Z</time>
      </trkpt>
      <trkpt lat="47.65846" lon="6.18209">
        <ele>263.2</ele>
        <time>2020-12-29T14:38:25Z</time>
      </trkpt>
      <trkpt lat="47.65846" lon="6.18217">
        <ele>263.6</ele>
        <time>2020-12-29T14:38:27Z</time>
      </trkpt>
      <trkpt lat="47.65847" lon="6.18224">
        <ele>264</ele>
        <time>2020-12-29T14:38:31Z</time>
      </trkpt>
      <trkpt lat="47.65844" lon="6.18231">
        <ele>264.3</ele>
        <time>2020-12-29T14:38:37Z</time>
      </trkpt>
      <trkpt lat="47.65839" lon="6.18236">
        <ele>264.4</ele>
        <time>2020-12-29T14:38:41Z</time>
      </trkpt>
      <trkpt lat="47.65835" lon="6.18239">
        <ele>264.5</ele>
        <time>2020-12-29T14:38:43Z</time>
      </trkpt>
      <trkpt lat="47.65831" lon="6.18243">
        <ele>264.6</ele>
        <time>2020-12-29T14:38:45Z</time>
      </trkpt>
      <trkpt lat="47.65825" lon="6.18247">
        <ele>264.7</ele>
        <time>2020-12-29T14:38:48Z</time>
      </trkpt>
      <trkpt lat="47.6582" lon="6.18251">
        <ele>264.7</ele>
        <time>2020-12-29T14:38:51Z</time>
      </trkpt>
      <trkpt lat="47.65815" lon="6.18254">
        <ele>264.8</ele>
        <time>2020-12-29T14:38:52Z</time>
      </trkpt>
      <trkpt lat="47.65811" lon="6.18256">
        <ele>264.9</ele>
        <time>2020-12-29T14:38:54Z</time>
      </trkpt>
      <trkpt lat="47.65803" lon="6.1826">
        <ele>265</ele>
        <time>2020-12-29T14:38:57Z</time>
      </trkpt>
      <trkpt lat="47.65798" lon="6.18263">
        <ele>265.1</ele>
        <time>2020-12-29T14:38:59Z</time>
      </trkpt>
      <trkpt lat="47.65791" lon="6.18269">
        <ele>265.4</ele>
        <time>2020-12-29T14:39:01Z</time>
      </trkpt>
      <trkpt lat="47.65787" lon="6.18272">
        <ele>265.5</ele>
        <time>2020-12-29T14:39:01Z</time>
      </trkpt>
      <trkpt lat="47.65781" lon="6.18277">
        <ele>265.8</ele>
        <time>2020-12-29T14:39:03Z</time>
      </trkpt>
      <trkpt lat="47.65777" lon="6.18281">
        <ele>266</ele>
        <time>2020-12-29T14:39:05Z</time>
      </trkpt>
      <trkpt lat="47.65771" lon="6.18285">
        <ele>266.2</ele>
        <time>2020-12-29T14:39:06Z</time>
      </trkpt>
      <trkpt lat="47.65765" lon="6.1829">
        <ele>266.6</ele>
        <time>2020-12-29T14:39:08Z</time>
      </trkpt>
      <trkpt lat="47.65759" lon="6.18296">
        <ele>267</ele>
        <time>2020-12-29T14:39:10Z</time>
      </trkpt>
      <trkpt lat="47.65753" lon="6.18303">
        <ele>267.5</ele>
        <time>2020-12-29T14:39:12Z</time>
      </trkpt>
      <trkpt lat="47.65746" lon="6.18309">
        <ele>267.7</ele>
        <time>2020-12-29T14:39:14Z</time>
      </trkpt>
      <trkpt lat="47.65741" lon="6.18314">
        <ele>267.8</ele>
        <time>2020-12-29T14:39:15Z</time>
      </trkpt>
      <trkpt lat="47.65735" lon="6.18319">
        <ele>268</ele>
        <time>2020-12-29T14:39:17Z</time>
      </trkpt>
      <trkpt lat="47.65731" lon="6.18323">
        <ele>268.2</ele>
        <time>2020-12-29T14:39:19Z</time>
      </trkpt>
      <trkpt lat="47.65725" lon="6.18331">
        <ele>268.9</ele>
        <time>2020-12-29T14:39:21Z</time>
      </trkpt>
      <trkpt lat="47.65722" lon="6.18337">
        <ele>269.4</ele>
        <time>2020-12-29T14:39:23Z</time>
      </trkpt>
      <trkpt lat="47.65719" lon="6.18344">
        <ele>270.1</ele>
        <time>2020-12-29T14:39:26Z</time>
      </trkpt>
      <trkpt lat="47.65716" lon="6.18351">
        <ele>270.9</ele>
        <time>2020-12-29T14:39:29Z</time>
      </trkpt>
      <trkpt lat="47.65714" lon="6.18357">
        <ele>271.4</ele>
        <time>2020-12-29T14:39:31Z</time>
      </trkpt>
      <trkpt lat="47.6571" lon="6.18362">
        <ele>272</ele>
        <time>2020-12-29T14:39:33Z</time>
      </trkpt>
      <trkpt lat="47.65706" lon="6.18366">
        <ele>272.4</ele>
        <time>2020-12-29T14:39:37Z</time>
      </trkpt>
      <trkpt lat="47.657" lon="6.18369">
        <ele>272.7</ele>
        <time>2020-12-29T14:39:40Z</time>
      </trkpt>
      <trkpt lat="47.65695" lon="6.18372">
        <ele>272.9</ele>
        <time>2020-12-29T14:39:42Z</time>
      </trkpt>
      <trkpt lat="47.65691" lon="6.18374">
        <ele>273.1</ele>
        <time>2020-12-29T14:39:45Z</time>
      </trkpt>
      <trkpt lat="47.65685" lon="6.18376">
        <ele>273.3</ele>
        <time>2020-12-29T14:39:46Z</time>
      </trkpt>
      <trkpt lat="47.65679" lon="6.18377">
        <ele>273.4</ele>
        <time>2020-12-29T14:39:50Z</time>
      </trkpt>
      <trkpt lat="47.65672" lon="6.18377">
        <ele>273.3</ele>
        <time>2020-12-29T14:39:52Z</time>
      </trkpt>
      <trkpt lat="47.65665" lon="6.18377">
        <ele>273.2</ele>
        <time>2020-12-29T14:39:54Z</time>
      </trkpt>
      <trkpt lat="47.65659" lon="6.18378">
        <ele>273</ele>
        <time>2020-12-29T14:39:56Z</time>
      </trkpt>
      <trkpt lat="47.65654" lon="6.18379">
        <ele>272.8</ele>
        <time>2020-12-29T14:39:57Z</time>
      </trkpt>
      <trkpt lat="47.65647" lon="6.18381">
        <ele>272.6</ele>
        <time>2020-12-29T14:39:59Z</time>
      </trkpt>
      <trkpt lat="47.6564" lon="6.18383">
        <ele>272.5</ele>
        <time>2020-12-29T14:40:01Z</time>
      </trkpt>
      <trkpt lat="47.65634" lon="6.18386">
        <ele>272.5</ele>
        <time>2020-12-29T14:40:03Z</time>
      </trkpt>
      <trkpt lat="47.65628" lon="6.18389">
        <ele>272.5</ele>
        <time>2020-12-29T14:40:06Z</time>
      </trkpt>
      <trkpt lat="47.65622" lon="6.18392">
        <ele>272.6</ele>
        <time>2020-12-29T14:40:07Z</time>
      </trkpt>
      <trkpt lat="47.65615" lon="6.18396">
        <ele>272.7</ele>
        <time>2020-12-29T14:40:10Z</time>
      </trkpt>
      <trkpt lat="47.65609" lon="6.184">
        <ele>272.9</ele>
        <time>2020-12-29T14:40:11Z</time>
      </trkpt>
      <trkpt lat="47.65603" lon="6.18402">
        <ele>273</ele>
        <time>2020-12-29T14:40:13Z</time>
      </trkpt>
      <trkpt lat="47.65597" lon="6.18404">
        <ele>272.9</ele>
        <time>2020-12-29T14:40:15Z</time>
      </trkpt>
      <trkpt lat="47.65592" lon="6.18406">
        <ele>272.8</ele>
        <time>2020-12-29T14:40:17Z</time>
      </trkpt>
      <trkpt lat="47.65585" lon="6.18409">
        <ele>272.9</ele>
        <time>2020-12-29T14:40:20Z</time>
      </trkpt>
      <trkpt lat="47.6558" lon="6.18412">
        <ele>272.9</ele>
        <time>2020-12-29T14:40:21Z</time>
      </trkpt>
      <trkpt lat="47.65574" lon="6.18415">
        <ele>272.9</ele>
        <time>2020-12-29T14:40:23Z</time>
      </trkpt>
      <trkpt lat="47.65567" lon="6.18418">
        <ele>272.7</ele>
        <time>2020-12-29T14:40:25Z</time>
      </trkpt>
      <trkpt lat="47.65562" lon="6.18419">
        <ele>272.4</ele>
        <time>2020-12-29T14:40:26Z</time>
      </trkpt>
      <trkpt lat="47.65551" lon="6.18423">
        <ele>271.8</ele>
        <time>2020-12-29T14:40:28Z</time>
      </trkpt>
      <trkpt lat="47.65547" lon="6.18425">
        <ele>271.5</ele>
        <time>2020-12-29T14:40:29Z</time>
      </trkpt>
      <trkpt lat="47.65538" lon="6.18429">
        <ele>271.1</ele>
        <time>2020-12-29T14:40:30Z</time>
      </trkpt>
      <trkpt lat="47.65533" lon="6.18431">
        <ele>270.8</ele>
        <time>2020-12-29T14:40:32Z</time>
      </trkpt>
      <trkpt lat="47.65525" lon="6.18435">
        <ele>270.4</ele>
        <time>2020-12-29T14:40:34Z</time>
      </trkpt>
      <trkpt lat="47.65518" lon="6.1844">
        <ele>270.2</ele>
        <time>2020-12-29T14:40:36Z</time>
      </trkpt>
      <trkpt lat="47.65512" lon="6.18445">
        <ele>270</ele>
        <time>2020-12-29T14:40:38Z</time>
      </trkpt>
      <trkpt lat="47.65505" lon="6.18449">
        <ele>269.8</ele>
        <time>2020-12-29T14:40:39Z</time>
      </trkpt>
      <trkpt lat="47.65499" lon="6.18453">
        <ele>269.6</ele>
        <time>2020-12-29T14:40:41Z</time>
      </trkpt>
      <trkpt lat="47.65491" lon="6.18457">
        <ele>269.4</ele>
        <time>2020-12-29T14:40:44Z</time>
      </trkpt>
      <trkpt lat="47.65485" lon="6.18462">
        <ele>269.4</ele>
        <time>2020-12-29T14:40:45Z</time>
      </trkpt>
      <trkpt lat="47.6548" lon="6.18464">
        <ele>269.3</ele>
        <time>2020-12-29T14:40:46Z</time>
      </trkpt>
      <trkpt lat="47.65476" lon="6.18467">
        <ele>269.3</ele>
        <time>2020-12-29T14:40:48Z</time>
      </trkpt>
      <trkpt lat="47.65469" lon="6.18473">
        <ele>269.1</ele>
        <time>2020-12-29T14:40:49Z</time>
      </trkpt>
      <trkpt lat="47.65465" lon="6.18476">
        <ele>269.1</ele>
        <time>2020-12-29T14:40:51Z</time>
      </trkpt>
      <trkpt lat="47.65457" lon="6.18484">
        <ele>269</ele>
        <time>2020-12-29T14:40:53Z</time>
      </trkpt>
      <trkpt lat="47.6545" lon="6.18491">
        <ele>268.9</ele>
        <time>2020-12-29T14:40:55Z</time>
      </trkpt>
      <trkpt lat="47.65445" lon="6.18496">
        <ele>268.9</ele>
        <time>2020-12-29T14:40:56Z</time>
      </trkpt>
      <trkpt lat="47.65442" lon="6.18502">
        <ele>268.9</ele>
        <time>2020-12-29T14:40:57Z</time>
      </trkpt>
      <trkpt lat="47.65438" lon="6.18506">
        <ele>268.9</ele>
        <time>2020-12-29T14:40:59Z</time>
      </trkpt>
      <trkpt lat="47.65434" lon="6.18511">
        <ele>268.8</ele>
        <time>2020-12-29T14:41:00Z</time>
      </trkpt>
      <trkpt lat="47.65429" lon="6.18517">
        <ele>268.9</ele>
        <time>2020-12-29T14:41:02Z</time>
      </trkpt>
      <trkpt lat="47.65425" lon="6.18522">
        <ele>268.9</ele>
        <time>2020-12-29T14:41:04Z</time>
      </trkpt>
      <trkpt lat="47.65421" lon="6.18528">
        <ele>268.9</ele>
        <time>2020-12-29T14:41:06Z</time>
      </trkpt>
      <trkpt lat="47.65417" lon="6.18535">
        <ele>269.1</ele>
        <time>2020-12-29T14:41:08Z</time>
      </trkpt>
      <trkpt lat="47.65411" lon="6.18544">
        <ele>269.4</ele>
        <time>2020-12-29T14:41:11Z</time>
      </trkpt>
      <trkpt lat="47.65408" lon="6.18552">
        <ele>269.7</ele>
        <time>2020-12-29T14:41:12Z</time>
      </trkpt>
      <trkpt lat="47.65404" lon="6.18558">
        <ele>269.9</ele>
        <time>2020-12-29T14:41:14Z</time>
      </trkpt>
      <trkpt lat="47.65399" lon="6.18566">
        <ele>270.2</ele>
        <time>2020-12-29T14:41:16Z</time>
      </trkpt>
      <trkpt lat="47.65395" lon="6.18572">
        <ele>270.3</ele>
        <time>2020-12-29T14:41:18Z</time>
      </trkpt>
      <trkpt lat="47.65391" lon="6.1858">
        <ele>270.5</ele>
        <time>2020-12-29T14:41:19Z</time>
      </trkpt>
      <trkpt lat="47.65385" lon="6.18587">
        <ele>270.6</ele>
        <time>2020-12-29T14:41:21Z</time>
      </trkpt>
      <trkpt lat="47.65381" lon="6.18593">
        <ele>270.4</ele>
        <time>2020-12-29T14:41:23Z</time>
      </trkpt>
      <trkpt lat="47.65376" lon="6.186">
        <ele>270.4</ele>
        <time>2020-12-29T14:41:25Z</time>
      </trkpt>
      <trkpt lat="47.65372" lon="6.18606">
        <ele>270.3</ele>
        <time>2020-12-29T14:41:27Z</time>
      </trkpt>
      <trkpt lat="47.65368" lon="6.18613">
        <ele>270.2</ele>
        <time>2020-12-29T14:41:30Z</time>
      </trkpt>
      <trkpt lat="47.65365" lon="6.18619">
        <ele>270.2</ele>
        <time>2020-12-29T14:41:32Z</time>
      </trkpt>
      <trkpt lat="47.65361" lon="6.18624">
        <ele>270.2</ele>
        <time>2020-12-29T14:41:34Z</time>
      </trkpt>
      <trkpt lat="47.65357" lon="6.18629">
        <ele>270.1</ele>
        <time>2020-12-29T14:41:36Z</time>
      </trkpt>
      <trkpt lat="47.65354" lon="6.18633">
        <ele>270</ele>
        <time>2020-12-29T14:41:39Z</time>
      </trkpt>
      <trkpt lat="47.6535" lon="6.18639">
        <ele>270</ele>
        <time>2020-12-29T14:41:41Z</time>
      </trkpt>
      <trkpt lat="47.65346" lon="6.18644">
        <ele>269.9</ele>
        <time>2020-12-29T14:41:45Z</time>
      </trkpt>
      <trkpt lat="47.65341" lon="6.18649">
        <ele>269.9</ele>
        <time>2020-12-29T14:41:48Z</time>
      </trkpt>
      <trkpt lat="47.65338" lon="6.18654">
        <ele>269.9</ele>
        <time>2020-12-29T14:41:51Z</time>
      </trkpt>
      <trkpt lat="47.65335" lon="6.18659">
        <ele>269.9</ele>
        <time>2020-12-29T14:41:53Z</time>
      </trkpt>
      <trkpt lat="47.65331" lon="6.18664">
        <ele>269.8</ele>
        <time>2020-12-29T14:41:56Z</time>
      </trkpt>
      <trkpt lat="47.65326" lon="6.18667">
        <ele>269.5</ele>
        <time>2020-12-29T14:41:58Z</time>
      </trkpt>
      <trkpt lat="47.65319" lon="6.18661">
        <ele>269</ele>
        <time>2020-12-29T14:42:01Z</time>
      </trkpt>
      <trkpt lat="47.65315" lon="6.18657">
        <ele>268.7</ele>
        <time>2020-12-29T14:42:03Z</time>
      </trkpt>
      <trkpt lat="47.6531" lon="6.18653">
        <ele>268.3</ele>
        <time>2020-12-29T14:42:05Z</time>
      </trkpt>
      <trkpt lat="47.65304" lon="6.18648">
        <ele>268</ele>
        <time>2020-12-29T14:42:06Z</time>
      </trkpt>
      <trkpt lat="47.653" lon="6.18643">
        <ele>267.6</ele>
        <time>2020-12-29T14:42:08Z</time>
      </trkpt>
      <trkpt lat="47.65294" lon="6.18636">
        <ele>267.3</ele>
        <time>2020-12-29T14:42:09Z</time>
      </trkpt>
      <trkpt lat="47.6529" lon="6.18632">
        <ele>267</ele>
        <time>2020-12-29T14:42:10Z</time>
      </trkpt>
      <trkpt lat="47.65284" lon="6.18624">
        <ele>266.6</ele>
        <time>2020-12-29T14:42:12Z</time>
      </trkpt>
      <trkpt lat="47.6528" lon="6.18618">
        <ele>266.4</ele>
        <time>2020-12-29T14:42:13Z</time>
      </trkpt>
      <trkpt lat="47.65276" lon="6.18612">
        <ele>266.1</ele>
        <time>2020-12-29T14:42:14Z</time>
      </trkpt>
      <trkpt lat="47.65269" lon="6.18601">
        <ele>265.8</ele>
        <time>2020-12-29T14:42:17Z</time>
      </trkpt>
      <trkpt lat="47.65263" lon="6.18591">
        <ele>265.5</ele>
        <time>2020-12-29T14:42:19Z</time>
      </trkpt>
      <trkpt lat="47.65258" lon="6.18583">
        <ele>265.3</ele>
        <time>2020-12-29T14:42:20Z</time>
      </trkpt>
      <trkpt lat="47.65253" lon="6.18575">
        <ele>264.9</ele>
        <time>2020-12-29T14:42:22Z</time>
      </trkpt>
      <trkpt lat="47.6525" lon="6.18569">
        <ele>264.7</ele>
        <time>2020-12-29T14:42:23Z</time>
      </trkpt>
      <trkpt lat="47.65247" lon="6.18564">
        <ele>264.4</ele>
        <time>2020-12-29T14:42:24Z</time>
      </trkpt>
      <trkpt lat="47.65241" lon="6.18551">
        <ele>263.9</ele>
        <time>2020-12-29T14:42:26Z</time>
      </trkpt>
      <trkpt lat="47.65235" lon="6.1854">
        <ele>263.4</ele>
        <time>2020-12-29T14:42:28Z</time>
      </trkpt>
      <trkpt lat="47.65231" lon="6.1853">
        <ele>263</ele>
        <time>2020-12-29T14:42:29Z</time>
      </trkpt>
      <trkpt lat="47.65226" lon="6.1852">
        <ele>262.6</ele>
        <time>2020-12-29T14:42:31Z</time>
      </trkpt>
      <trkpt lat="47.65223" lon="6.18513">
        <ele>262.3</ele>
        <time>2020-12-29T14:42:32Z</time>
      </trkpt>
      <trkpt lat="47.6522" lon="6.18507">
        <ele>262.1</ele>
        <time>2020-12-29T14:42:33Z</time>
      </trkpt>
      <trkpt lat="47.65218" lon="6.18501">
        <ele>261.9</ele>
        <time>2020-12-29T14:42:34Z</time>
      </trkpt>
      <trkpt lat="47.65215" lon="6.18495">
        <ele>261.7</ele>
        <time>2020-12-29T14:42:35Z</time>
      </trkpt>
      <trkpt lat="47.65212" lon="6.1849">
        <ele>261.5</ele>
        <time>2020-12-29T14:42:36Z</time>
      </trkpt>
      <trkpt lat="47.65209" lon="6.18484">
        <ele>261.3</ele>
        <time>2020-12-29T14:42:37Z</time>
      </trkpt>
      <trkpt lat="47.65206" lon="6.18479">
        <ele>261.2</ele>
        <time>2020-12-29T14:42:38Z</time>
      </trkpt>
      <trkpt lat="47.65203" lon="6.18474">
        <ele>261</ele>
        <time>2020-12-29T14:42:39Z</time>
      </trkpt>
      <trkpt lat="47.65197" lon="6.18465">
        <ele>260.7</ele>
        <time>2020-12-29T14:42:41Z</time>
      </trkpt>
      <trkpt lat="47.6519" lon="6.18455">
        <ele>260.3</ele>
        <time>2020-12-29T14:42:43Z</time>
      </trkpt>
      <trkpt lat="47.65187" lon="6.18451">
        <ele>260.1</ele>
        <time>2020-12-29T14:42:44Z</time>
      </trkpt>
      <trkpt lat="47.65183" lon="6.18446">
        <ele>259.9</ele>
        <time>2020-12-29T14:42:45Z</time>
      </trkpt>
      <trkpt lat="47.65179" lon="6.18442">
        <ele>259.7</ele>
        <time>2020-12-29T14:42:46Z</time>
      </trkpt>
      <trkpt lat="47.65175" lon="6.18438">
        <ele>259.5</ele>
        <time>2020-12-29T14:42:47Z</time>
      </trkpt>
      <trkpt lat="47.65171" lon="6.18433">
        <ele>259.3</ele>
        <time>2020-12-29T14:42:48Z</time>
      </trkpt>
      <trkpt lat="47.65166" lon="6.1843">
        <ele>259.2</ele>
        <time>2020-12-29T14:42:49Z</time>
      </trkpt>
      <trkpt lat="47.65162" lon="6.18426">
        <ele>259</ele>
        <time>2020-12-29T14:42:50Z</time>
      </trkpt>
      <trkpt lat="47.65158" lon="6.18422">
        <ele>258.9</ele>
        <time>2020-12-29T14:42:51Z</time>
      </trkpt>
      <trkpt lat="47.65153" lon="6.18419">
        <ele>258.7</ele>
        <time>2020-12-29T14:42:52Z</time>
      </trkpt>
      <trkpt lat="47.65148" lon="6.18416">
        <ele>258.6</ele>
        <time>2020-12-29T14:42:53Z</time>
      </trkpt>
      <trkpt lat="47.65144" lon="6.18414">
        <ele>258.4</ele>
        <time>2020-12-29T14:42:54Z</time>
      </trkpt>
      <trkpt lat="47.65139" lon="6.18411">
        <ele>258.3</ele>
        <time>2020-12-29T14:42:55Z</time>
      </trkpt>
      <trkpt lat="47.65134" lon="6.18408">
        <ele>258.1</ele>
        <time>2020-12-29T14:42:56Z</time>
      </trkpt>
      <trkpt lat="47.6513" lon="6.18405">
        <ele>258</ele>
        <time>2020-12-29T14:42:57Z</time>
      </trkpt>
      <trkpt lat="47.65125" lon="6.18401">
        <ele>257.8</ele>
        <time>2020-12-29T14:42:58Z</time>
      </trkpt>
      <trkpt lat="47.6512" lon="6.18395">
        <ele>257.6</ele>
        <time>2020-12-29T14:42:59Z</time>
      </trkpt>
      <trkpt lat="47.65114" lon="6.18388">
        <ele>257.4</ele>
        <time>2020-12-29T14:43:00Z</time>
      </trkpt>
      <trkpt lat="47.65108" lon="6.18381">
        <ele>257.2</ele>
        <time>2020-12-29T14:43:01Z</time>
      </trkpt>
      <trkpt lat="47.65103" lon="6.18376">
        <ele>257</ele>
        <time>2020-12-29T14:43:02Z</time>
      </trkpt>
      <trkpt lat="47.65097" lon="6.18369">
        <ele>256.7</ele>
        <time>2020-12-29T14:43:03Z</time>
      </trkpt>
      <trkpt lat="47.65091" lon="6.18362">
        <ele>256.5</ele>
        <time>2020-12-29T14:43:04Z</time>
      </trkpt>
      <trkpt lat="47.65085" lon="6.18356">
        <ele>256.3</ele>
        <time>2020-12-29T14:43:05Z</time>
      </trkpt>
      <trkpt lat="47.6508" lon="6.1835">
        <ele>256.1</ele>
        <time>2020-12-29T14:43:06Z</time>
      </trkpt>
      <trkpt lat="47.65075" lon="6.18345">
        <ele>256</ele>
        <time>2020-12-29T14:43:07Z</time>
      </trkpt>
      <trkpt lat="47.6507" lon="6.1834">
        <ele>255.8</ele>
        <time>2020-12-29T14:43:08Z</time>
      </trkpt>
      <trkpt lat="47.65064" lon="6.18334">
        <ele>255.6</ele>
        <time>2020-12-29T14:43:09Z</time>
      </trkpt>
      <trkpt lat="47.65058" lon="6.1833">
        <ele>255.2</ele>
        <time>2020-12-29T14:43:10Z</time>
      </trkpt>
      <trkpt lat="47.65052" lon="6.18326">
        <ele>254.9</ele>
        <time>2020-12-29T14:43:11Z</time>
      </trkpt>
      <trkpt lat="47.65045" lon="6.18323">
        <ele>254.6</ele>
        <time>2020-12-29T14:43:12Z</time>
      </trkpt>
      <trkpt lat="47.65039" lon="6.1832">
        <ele>254.3</ele>
        <time>2020-12-29T14:43:13Z</time>
      </trkpt>
      <trkpt lat="47.65032" lon="6.18318">
        <ele>254</ele>
        <time>2020-12-29T14:43:14Z</time>
      </trkpt>
      <trkpt lat="47.65026" lon="6.18317">
        <ele>253.8</ele>
        <time>2020-12-29T14:43:15Z</time>
      </trkpt>
      <trkpt lat="47.65021" lon="6.18315">
        <ele>253.5</ele>
        <time>2020-12-29T14:43:16Z</time>
      </trkpt>
      <trkpt lat="47.65015" lon="6.18314">
        <ele>253.3</ele>
        <time>2020-12-29T14:43:17Z</time>
      </trkpt>
      <trkpt lat="47.6501" lon="6.18314">
        <ele>253.1</ele>
        <time>2020-12-29T14:43:18Z</time>
      </trkpt>
      <trkpt lat="47.65004" lon="6.18313">
        <ele>252.9</ele>
        <time>2020-12-29T14:43:19Z</time>
      </trkpt>
      <trkpt lat="47.64999" lon="6.18313">
        <ele>252.7</ele>
        <time>2020-12-29T14:43:20Z</time>
      </trkpt>
      <trkpt lat="47.64994" lon="6.18312">
        <ele>252.7</ele>
        <time>2020-12-29T14:43:21Z</time>
      </trkpt>
      <trkpt lat="47.64989" lon="6.18311">
        <ele>252.6</ele>
        <time>2020-12-29T14:43:22Z</time>
      </trkpt>
      <trkpt lat="47.64985" lon="6.1831">
        <ele>252.5</ele>
        <time>2020-12-29T14:43:23Z</time>
      </trkpt>
      <trkpt lat="47.6498" lon="6.1831">
        <ele>252.5</ele>
        <time>2020-12-29T14:43:24Z</time>
      </trkpt>
      <trkpt lat="47.64976" lon="6.18309">
        <ele>252.4</ele>
        <time>2020-12-29T14:43:25Z</time>
      </trkpt>
      <trkpt lat="47.64971" lon="6.18309">
        <ele>252.3</ele>
        <time>2020-12-29T14:43:26Z</time>
      </trkpt>
      <trkpt lat="47.64966" lon="6.18308">
        <ele>252.2</ele>
        <time>2020-12-29T14:43:27Z</time>
      </trkpt>
      <trkpt lat="47.64961" lon="6.18307">
        <ele>252.1</ele>
        <time>2020-12-29T14:43:28Z</time>
      </trkpt>
      <trkpt lat="47.64953" lon="6.18307">
        <ele>252</ele>
        <time>2020-12-29T14:43:30Z</time>
      </trkpt>
      <trkpt lat="47.64945" lon="6.18306">
        <ele>251.9</ele>
        <time>2020-12-29T14:43:32Z</time>
      </trkpt>
      <trkpt lat="47.64936" lon="6.18305">
        <ele>251.8</ele>
        <time>2020-12-29T14:43:34Z</time>
      </trkpt>
      <trkpt lat="47.64924" lon="6.18303">
        <ele>251.5</ele>
        <time>2020-12-29T14:43:35Z</time>
      </trkpt>
      <trkpt lat="47.64919" lon="6.183">
        <ele>251.2</ele>
        <time>2020-12-29T14:43:38Z</time>
      </trkpt>
      <trkpt lat="47.64912" lon="6.18297">
        <ele>251</ele>
        <time>2020-12-29T14:43:41Z</time>
      </trkpt>
      <trkpt lat="47.64906" lon="6.18294">
        <ele>251</ele>
        <time>2020-12-29T14:43:43Z</time>
      </trkpt>
      <trkpt lat="47.64893" lon="6.18289">
        <ele>250.9</ele>
        <time>2020-12-29T14:43:45Z</time>
      </trkpt>
      <trkpt lat="47.64887" lon="6.18285">
        <ele>250.7</ele>
        <time>2020-12-29T14:43:46Z</time>
      </trkpt>
      <trkpt lat="47.64881" lon="6.18281">
        <ele>250.5</ele>
        <time>2020-12-29T14:43:47Z</time>
      </trkpt>
      <trkpt lat="47.64874" lon="6.18276">
        <ele>250.4</ele>
        <time>2020-12-29T14:43:48Z</time>
      </trkpt>
      <trkpt lat="47.64868" lon="6.18273">
        <ele>250.3</ele>
        <time>2020-12-29T14:43:49Z</time>
      </trkpt>
      <trkpt lat="47.64863" lon="6.18269">
        <ele>250.2</ele>
        <time>2020-12-29T14:43:50Z</time>
      </trkpt>
      <trkpt lat="47.64857" lon="6.18265">
        <ele>250.2</ele>
        <time>2020-12-29T14:43:51Z</time>
      </trkpt>
      <trkpt lat="47.64852" lon="6.18262">
        <ele>250.1</ele>
        <time>2020-12-29T14:43:52Z</time>
      </trkpt>
      <trkpt lat="47.64846" lon="6.18258">
        <ele>250.1</ele>
        <time>2020-12-29T14:43:53Z</time>
      </trkpt>
      <trkpt lat="47.64841" lon="6.18255">
        <ele>250</ele>
        <time>2020-12-29T14:43:54Z</time>
      </trkpt>
      <trkpt lat="47.64836" lon="6.18252">
        <ele>250</ele>
        <time>2020-12-29T14:43:55Z</time>
      </trkpt>
      <trkpt lat="47.6483" lon="6.18249">
        <ele>250</ele>
        <time>2020-12-29T14:43:56Z</time>
      </trkpt>
      <trkpt lat="47.64825" lon="6.18246">
        <ele>249.9</ele>
        <time>2020-12-29T14:43:57Z</time>
      </trkpt>
      <trkpt lat="47.6482" lon="6.18243">
        <ele>249.8</ele>
        <time>2020-12-29T14:43:58Z</time>
      </trkpt>
      <trkpt lat="47.64816" lon="6.1824">
        <ele>249.7</ele>
        <time>2020-12-29T14:43:59Z</time>
      </trkpt>
      <trkpt lat="47.64811" lon="6.18237">
        <ele>249.6</ele>
        <time>2020-12-29T14:44:00Z</time>
      </trkpt>
      <trkpt lat="47.64803" lon="6.18231">
        <ele>249.4</ele>
        <time>2020-12-29T14:44:02Z</time>
      </trkpt>
      <trkpt lat="47.64796" lon="6.18225">
        <ele>249.3</ele>
        <time>2020-12-29T14:44:04Z</time>
      </trkpt>
      <trkpt lat="47.64789" lon="6.1822">
        <ele>249.4</ele>
        <time>2020-12-29T14:44:06Z</time>
      </trkpt>
      <trkpt lat="47.64777" lon="6.18217">
        <ele>250.2</ele>
        <time>2020-12-29T14:44:08Z</time>
      </trkpt>
      <trkpt lat="47.64773" lon="6.1821">
        <ele>249.9</ele>
        <time>2020-12-29T14:44:10Z</time>
      </trkpt>
      <trkpt lat="47.64769" lon="6.18204">
        <ele>249.7</ele>
        <time>2020-12-29T14:44:12Z</time>
      </trkpt>
      <trkpt lat="47.64766" lon="6.18198">
        <ele>249.5</ele>
        <time>2020-12-29T14:44:14Z</time>
      </trkpt>
      <trkpt lat="47.64761" lon="6.18194">
        <ele>249.7</ele>
        <time>2020-12-29T14:44:16Z</time>
      </trkpt>
      <trkpt lat="47.64757" lon="6.18189">
        <ele>249.8</ele>
        <time>2020-12-29T14:44:18Z</time>
      </trkpt>
      <trkpt lat="47.64753" lon="6.18185">
        <ele>249.9</ele>
        <time>2020-12-29T14:44:20Z</time>
      </trkpt>
      <trkpt lat="47.6475" lon="6.18181">
        <ele>250</ele>
        <time>2020-12-29T14:44:23Z</time>
      </trkpt>
      <trkpt lat="47.64745" lon="6.18174">
        <ele>249.6</ele>
        <time>2020-12-29T14:44:26Z</time>
      </trkpt>
      <trkpt lat="47.64742" lon="6.1817">
        <ele>249.4</ele>
        <time>2020-12-29T14:44:28Z</time>
      </trkpt>
      <trkpt lat="47.64737" lon="6.18161">
        <ele>248.5</ele>
        <time>2020-12-29T14:44:31Z</time>
      </trkpt>
      <trkpt lat="47.64732" lon="6.18155">
        <ele>247.8</ele>
        <time>2020-12-29T14:44:34Z</time>
      </trkpt>
      <trkpt lat="47.64728" lon="6.1815">
        <ele>247.4</ele>
        <time>2020-12-29T14:44:36Z</time>
      </trkpt>
      <trkpt lat="47.64724" lon="6.18146">
        <ele>247.1</ele>
        <time>2020-12-29T14:44:38Z</time>
      </trkpt>
      <trkpt lat="47.64719" lon="6.18141">
        <ele>246.8</ele>
        <time>2020-12-29T14:44:41Z</time>
      </trkpt>
      <trkpt lat="47.64714" lon="6.18137">
        <ele>246.6</ele>
        <time>2020-12-29T14:44:44Z</time>
      </trkpt>
      <trkpt lat="47.64709" lon="6.18132">
        <ele>246.4</ele>
        <time>2020-12-29T14:44:47Z</time>
      </trkpt>
      <trkpt lat="47.64706" lon="6.18125">
        <ele>246</ele>
        <time>2020-12-29T14:44:50Z</time>
      </trkpt>
      <trkpt lat="47.64702" lon="6.1812">
        <ele>245.7</ele>
        <time>2020-12-29T14:44:52Z</time>
      </trkpt>
      <trkpt lat="47.64699" lon="6.18114">
        <ele>245.5</ele>
        <time>2020-12-29T14:44:54Z</time>
      </trkpt>
      <trkpt lat="47.64693" lon="6.18104">
        <ele>245.2</ele>
        <time>2020-12-29T14:44:57Z</time>
      </trkpt>
      <trkpt lat="47.64689" lon="6.18097">
        <ele>245.2</ele>
        <time>2020-12-29T14:44:59Z</time>
      </trkpt>
      <trkpt lat="47.64684" lon="6.18091">
        <ele>245.2</ele>
        <time>2020-12-29T14:45:00Z</time>
      </trkpt>
      <trkpt lat="47.6468" lon="6.18084">
        <ele>245.4</ele>
        <time>2020-12-29T14:45:03Z</time>
      </trkpt>
      <trkpt lat="47.64675" lon="6.18078">
        <ele>245.2</ele>
        <time>2020-12-29T14:45:05Z</time>
      </trkpt>
      <trkpt lat="47.6467" lon="6.18072">
        <ele>245</ele>
        <time>2020-12-29T14:45:06Z</time>
      </trkpt>
      <trkpt lat="47.64664" lon="6.18065">
        <ele>244.2</ele>
        <time>2020-12-29T14:45:09Z</time>
      </trkpt>
      <trkpt lat="47.64659" lon="6.18057">
        <ele>242.7</ele>
        <time>2020-12-29T14:45:11Z</time>
      </trkpt>
      <trkpt lat="47.64653" lon="6.1805">
        <ele>241.3</ele>
        <time>2020-12-29T14:45:12Z</time>
      </trkpt>
      <trkpt lat="47.64649" lon="6.18045">
        <ele>240.4</ele>
        <time>2020-12-29T14:45:13Z</time>
      </trkpt>
      <trkpt lat="47.64643" lon="6.18037">
        <ele>239.1</ele>
        <time>2020-12-29T14:45:15Z</time>
      </trkpt>
      <trkpt lat="47.64639" lon="6.18033">
        <ele>238.4</ele>
        <time>2020-12-29T14:45:16Z</time>
      </trkpt>
      <trkpt lat="47.64635" lon="6.18028">
        <ele>237.6</ele>
        <time>2020-12-29T14:45:17Z</time>
      </trkpt>
      <trkpt lat="47.6463" lon="6.18024">
        <ele>236.9</ele>
        <time>2020-12-29T14:45:18Z</time>
      </trkpt>
      <trkpt lat="47.64623" lon="6.18021">
        <ele>236.3</ele>
        <time>2020-12-29T14:45:20Z</time>
      </trkpt>
      <trkpt lat="47.64617" lon="6.1802">
        <ele>235.9</ele>
        <time>2020-12-29T14:45:21Z</time>
      </trkpt>
      <trkpt lat="47.64613" lon="6.18019">
        <ele>235.7</ele>
        <time>2020-12-29T14:45:23Z</time>
      </trkpt>
      <trkpt lat="47.64604" lon="6.18022">
        <ele>235.7</ele>
        <time>2020-12-29T14:45:24Z</time>
      </trkpt>
      <trkpt lat="47.64598" lon="6.18025">
        <ele>235.7</ele>
        <time>2020-12-29T14:45:25Z</time>
      </trkpt>
      <trkpt lat="47.64592" lon="6.1803">
        <ele>235.9</ele>
        <time>2020-12-29T14:45:27Z</time>
      </trkpt>
      <trkpt lat="47.64586" lon="6.18038">
        <ele>236.4</ele>
        <time>2020-12-29T14:45:28Z</time>
      </trkpt>
      <trkpt lat="47.64582" lon="6.18045">
        <ele>236.6</ele>
        <time>2020-12-29T14:45:30Z</time>
      </trkpt>
      <trkpt lat="47.64577" lon="6.18053">
        <ele>236.4</ele>
        <time>2020-12-29T14:45:31Z</time>
      </trkpt>
      <trkpt lat="47.64572" lon="6.18061">
        <ele>236.1</ele>
        <time>2020-12-29T14:45:32Z</time>
      </trkpt>
      <trkpt lat="47.64569" lon="6.18066">
        <ele>235.9</ele>
        <time>2020-12-29T14:45:33Z</time>
      </trkpt>
      <trkpt lat="47.64563" lon="6.18076">
        <ele>235.5</ele>
        <time>2020-12-29T14:45:35Z</time>
      </trkpt>
      <trkpt lat="47.64561" lon="6.18082">
        <ele>235.4</ele>
        <time>2020-12-29T14:45:37Z</time>
      </trkpt>
      <trkpt lat="47.64557" lon="6.18091">
        <ele>234.8</ele>
        <time>2020-12-29T14:45:39Z</time>
      </trkpt>
      <trkpt lat="47.64554" lon="6.18099">
        <ele>234.5</ele>
        <time>2020-12-29T14:45:41Z</time>
      </trkpt>
      <trkpt lat="47.6455" lon="6.18108">
        <ele>233.9</ele>
        <time>2020-12-29T14:45:44Z</time>
      </trkpt>
      <trkpt lat="47.64546" lon="6.18115">
        <ele>233.2</ele>
        <time>2020-12-29T14:45:47Z</time>
      </trkpt>
      <trkpt lat="47.64542" lon="6.18119">
        <ele>232.4</ele>
        <time>2020-12-29T14:45:50Z</time>
      </trkpt>
      <trkpt lat="47.64538" lon="6.18125">
        <ele>231.7</ele>
        <time>2020-12-29T14:45:56Z</time>
      </trkpt>
      <trkpt lat="47.64534" lon="6.18134">
        <ele>231.2</ele>
        <time>2020-12-29T14:46:00Z</time>
      </trkpt>
      <trkpt lat="47.64531" lon="6.18142">
        <ele>230.8</ele>
        <time>2020-12-29T14:46:02Z</time>
      </trkpt>
      <trkpt lat="47.64529" lon="6.18149">
        <ele>230.5</ele>
        <time>2020-12-29T14:46:04Z</time>
      </trkpt>
      <trkpt lat="47.64525" lon="6.18159">
        <ele>229.9</ele>
        <time>2020-12-29T14:46:06Z</time>
      </trkpt>
      <trkpt lat="47.6452" lon="6.18167">
        <ele>229</ele>
        <time>2020-12-29T14:46:08Z</time>
      </trkpt>
      <trkpt lat="47.64513" lon="6.18171">
        <ele>228</ele>
        <time>2020-12-29T14:46:11Z</time>
      </trkpt>
      <trkpt lat="47.64509" lon="6.18176">
        <ele>227.5</ele>
        <time>2020-12-29T14:46:12Z</time>
      </trkpt>
      <trkpt lat="47.64506" lon="6.18181">
        <ele>227.2</ele>
        <time>2020-12-29T14:46:14Z</time>
      </trkpt>
      <trkpt lat="47.64503" lon="6.18188">
        <ele>227</ele>
        <time>2020-12-29T14:46:16Z</time>
      </trkpt>
      <trkpt lat="47.645" lon="6.18196">
        <ele>227.2</ele>
        <time>2020-12-29T14:46:18Z</time>
      </trkpt>
      <trkpt lat="47.64499" lon="6.18203">
        <ele>227.6</ele>
        <time>2020-12-29T14:46:20Z</time>
      </trkpt>
      <trkpt lat="47.64498" lon="6.18211">
        <ele>228.1</ele>
        <time>2020-12-29T14:46:22Z</time>
      </trkpt>
      <trkpt lat="47.64497" lon="6.18219">
        <ele>228.5</ele>
        <time>2020-12-29T14:46:24Z</time>
      </trkpt>
      <trkpt lat="47.64495" lon="6.18225">
        <ele>228.7</ele>
        <time>2020-12-29T14:46:26Z</time>
      </trkpt>
      <trkpt lat="47.64491" lon="6.18229">
        <ele>228.7</ele>
        <time>2020-12-29T14:46:27Z</time>
      </trkpt>
      <trkpt lat="47.64487" lon="6.18235">
        <ele>228.7</ele>
        <time>2020-12-29T14:46:30Z</time>
      </trkpt>
      <trkpt lat="47.64483" lon="6.18243">
        <ele>228.7</ele>
        <time>2020-12-29T14:46:31Z</time>
      </trkpt>
      <trkpt lat="47.64478" lon="6.18252">
        <ele>228.8</ele>
        <time>2020-12-29T14:46:33Z</time>
      </trkpt>
      <trkpt lat="47.64473" lon="6.1826">
        <ele>229.5</ele>
        <time>2020-12-29T14:46:35Z</time>
      </trkpt>
      <trkpt lat="47.64469" lon="6.18265">
        <ele>229.5</ele>
        <time>2020-12-29T14:46:37Z</time>
      </trkpt>
      <trkpt lat="47.64466" lon="6.18271">
        <ele>229.8</ele>
        <time>2020-12-29T14:46:39Z</time>
      </trkpt>
      <trkpt lat="47.64461" lon="6.18273">
        <ele>229.5</ele>
        <time>2020-12-29T14:46:42Z</time>
      </trkpt>
      <trkpt lat="47.64459" lon="6.18279">
        <ele>229.9</ele>
        <time>2020-12-29T14:47:12Z</time>
      </trkpt>
      <trkpt lat="47.64454" lon="6.18282">
        <ele>229.5</ele>
        <time>2020-12-29T14:47:16Z</time>
      </trkpt>
      <trkpt lat="47.6445" lon="6.18287">
        <ele>229.4</ele>
        <time>2020-12-29T14:47:19Z</time>
      </trkpt>
      <trkpt lat="47.64444" lon="6.18294">
        <ele>229.4</ele>
        <time>2020-12-29T14:47:22Z</time>
      </trkpt>
      <trkpt lat="47.64443" lon="6.18302">
        <ele>229.9</ele>
        <time>2020-12-29T14:47:24Z</time>
      </trkpt>
      <trkpt lat="47.64443" lon="6.1831">
        <ele>230.8</ele>
        <time>2020-12-29T14:47:26Z</time>
      </trkpt>
      <trkpt lat="47.64443" lon="6.18318">
        <ele>231.6</ele>
        <time>2020-12-29T14:47:28Z</time>
      </trkpt>
      <trkpt lat="47.64444" lon="6.18327">
        <ele>232.6</ele>
        <time>2020-12-29T14:47:31Z</time>
      </trkpt>
      <trkpt lat="47.64439" lon="6.18324">
        <ele>231.4</ele>
        <time>2020-12-29T14:48:59Z</time>
      </trkpt>
      <trkpt lat="47.64439" lon="6.18315">
        <ele>230.6</ele>
        <time>2020-12-29T14:49:19Z</time>
      </trkpt>
      <trkpt lat="47.64441" lon="6.18309">
        <ele>230.4</ele>
        <time>2020-12-29T14:49:21Z</time>
      </trkpt>
      <trkpt lat="47.64446" lon="6.18311">
        <ele>231.3</ele>
        <time>2020-12-29T14:49:37Z</time>
      </trkpt>
      <trkpt lat="47.64442" lon="6.18309">
        <ele>230.4</ele>
        <time>2020-12-29T14:49:50Z</time>
      </trkpt>
      <trkpt lat="47.6443" lon="6.1831">
        <ele>228.6</ele>
        <time>2020-12-29T14:50:27Z</time>
      </trkpt>
      <trkpt lat="47.64435" lon="6.18311">
        <ele>229.5</ele>
        <time>2020-12-29T14:51:57Z</time>
      </trkpt>
      <trkpt lat="47.6443" lon="6.1831">
        <ele>228.6</ele>
        <time>2020-12-29T14:52:17Z</time>
      </trkpt>
    </trkseg>
  </trk>
</gpx>